Wetterdaten: Sonntag, 24.07.2016
Datum Zeit Temp. A. Feuchte A. Luftdruck Regen Wind Richtung Richtung Sonnenschein ET UV Solar Taupunkt Windchill Windben Empfang
24.07.2016 00:00 18,8 C 96 % 1015,7 hPa 0,0 l/m 6,3 km/h (2 Bft) SW 235 0 min 0,000 mm 0,0 UV-I 0 W/m 18,1 C 18,8 C 8,0 km/h (2 Bft) 100,00 %
24.07.2016 00:02 18,8 C 96 % 1015,7 hPa 0,0 l/m 8,1 km/h (2 Bft) SW 227 0 min 0,000 mm 0,0 UV-I 0 W/m 18,1 C 18,0 C 11,3 km/h (2 Bft) 95,65 %
24.07.2016 00:04 18,8 C 96 % 1015,6 hPa 0,2 l/m 7,2 km/h (2 Bft) SW 227 0 min 0,000 mm 0,0 UV-I 0 W/m 18,1 C 18,4 C 9,7 km/h (2 Bft) 100,00 %
24.07.2016 00:06 18,8 C 96 % 1015,6 hPa 0,0 l/m 6,0 km/h (2 Bft) S-SW 196 0 min 0,000 mm 0,0 UV-I 0 W/m 18,1 C 18,8 C 12,9 km/h (3 Bft) 97,87 %
24.07.2016 00:08 18,8 C 96 % 1015,6 hPa 0,0 l/m 7,1 km/h (2 Bft) S-SW 212 0 min 0,000 mm 0,0 UV-I 0 W/m 18,1 C 18,5 C 12,9 km/h (3 Bft) 100,00 %
24.07.2016 00:10 18,8 C 96 % 1015,6 hPa 0,0 l/m 5,1 km/h (1 Bft) S-SW 192 0 min 0,000 mm 0,0 UV-I 0 W/m 18,1 C 18,8 C 6,4 km/h (2 Bft) 97,87 %
24.07.2016 00:12 18,7 C 96 % 1015,6 hPa 0,0 l/m 6,3 km/h (2 Bft) S-SW 202 0 min 0,000 mm 0,0 UV-I 0 W/m 18,0 C 18,7 C 9,7 km/h (2 Bft) 97,87 %
24.07.2016 00:14 18,7 C 96 % 1015,7 hPa 0,0 l/m 6,3 km/h (2 Bft) S-SW 209 0 min 0,000 mm 0,0 UV-I 0 W/m 18,0 C 18,7 C 9,7 km/h (2 Bft) 97,87 %
24.07.2016 00:16 18,7 C 96 % 1015,7 hPa 0,2 l/m 8,4 km/h (2 Bft) SW 221 0 min 0,000 mm 0,0 UV-I 0 W/m 18,0 C 17,8 C 14,5 km/h (3 Bft) 97,87 %
24.07.2016 00:18 18,7 C 96 % 1015,7 hPa 0,0 l/m 7,8 km/h (2 Bft) S-SW 205 0 min 0,000 mm 0,0 UV-I 0 W/m 18,0 C 18,1 C 12,9 km/h (3 Bft) 98,00 %
24.07.2016 00:20 18,7 C 96 % 1015,7 hPa 0,0 l/m 8,8 km/h (2 Bft) SW 229 0 min 0,000 mm 0,0 UV-I 0 W/m 18,0 C 17,7 C 14,5 km/h (3 Bft) 100,00 %
24.07.2016 00:22 18,7 C 96 % 1015,8 hPa 0,0 l/m 8,1 km/h (2 Bft) W-SW 241 0 min 0,000 mm 0,0 UV-I 0 W/m 18,0 C 17,9 C 14,5 km/h (3 Bft) 100,00 %
24.07.2016 00:24 18,7 C 96 % 1015,9 hPa 0,0 l/m 7,2 km/h (2 Bft) SW 217 0 min 0,000 mm 0,0 UV-I 0 W/m 18,0 C 18,3 C 11,3 km/h (2 Bft) 97,87 %
24.07.2016 00:26 18,7 C 96 % 1015,8 hPa 0,0 l/m 8,6 km/h (2 Bft) SW 234 0 min 0,000 mm 0,0 UV-I 0 W/m 18,0 C 17,7 C 14,5 km/h (3 Bft) 100,00 %
24.07.2016 00:28 18,7 C 96 % 1015,9 hPa 0,0 l/m 7,0 km/h (2 Bft) SW 215 0 min 0,000 mm 0,0 UV-I 0 W/m 18,0 C 18,4 C 9,7 km/h (2 Bft) 100,00 %
24.07.2016 00:30 18,7 C 96 % 1015,9 hPa 0,0 l/m 6,8 km/h (2 Bft) SW 227 0 min 0,000 mm 0,0 UV-I 0 W/m 18,0 C 18,5 C 9,7 km/h (2 Bft) 100,00 %
24.07.2016 00:32 18,7 C 96 % 1015,8 hPa 0,0 l/m 6,7 km/h (2 Bft) SW 225 0 min 0,000 mm 0,0 UV-I 0 W/m 18,0 C 18,6 C 11,3 km/h (2 Bft) 100,00 %
24.07.2016 00:34 18,7 C 96 % 1015,9 hPa 0,0 l/m 8,0 km/h (2 Bft) S-SW 204 0 min 0,000 mm 0,0 UV-I 0 W/m 18,0 C 18,0 C 12,9 km/h (3 Bft) 97,87 %
24.07.2016 00:36 18,7 C 96 % 1015,8 hPa 0,0 l/m 7,2 km/h (2 Bft) W-SW 246 0 min 0,000 mm 0,0 UV-I 0 W/m 18,0 C 18,3 C 12,9 km/h (3 Bft) 100,00 %
24.07.2016 00:38 18,7 C 96 % 1015,8 hPa 0,0 l/m 7,0 km/h (2 Bft) SW 227 0 min 0,000 mm 0,0 UV-I 0 W/m 18,0 C 18,4 C 11,3 km/h (2 Bft) 100,00 %
24.07.2016 00:40 18,7 C 96 % 1015,8 hPa 0,0 l/m 8,7 km/h (2 Bft) S-SW 192 0 min 0,000 mm 0,0 UV-I 0 W/m 18,0 C 17,7 C 12,9 km/h (3 Bft) 97,37 %
24.07.2016 00:42 18,7 C 96 % 1015,8 hPa 0,0 l/m 8,6 km/h (2 Bft) SW 229 0 min 0,000 mm 0,0 UV-I 0 W/m 18,0 C 17,7 C 12,9 km/h (3 Bft) 100,00 %
24.07.2016 00:44 18,7 C 96 % 1015,8 hPa 0,0 l/m 8,3 km/h (2 Bft) S-SW 203 0 min 0,000 mm 0,0 UV-I 0 W/m 18,0 C 17,9 C 16,1 km/h (3 Bft) 97,87 %
24.07.2016 00:46 18,7 C 96 % 1015,7 hPa 0,0 l/m 10,6 km/h (2 Bft) W-SW 246 0 min 0,000 mm 0,0 UV-I 0 W/m 18,0 C 17,0 C 16,1 km/h (3 Bft) 100,00 %
24.07.2016 00:48 18,7 C 96 % 1015,8 hPa 0,0 l/m 10,5 km/h (2 Bft) SW 215 0 min 0,000 mm 0,0 UV-I 0 W/m 18,0 C 17,0 C 16,1 km/h (3 Bft) 93,62 %
24.07.2016 00:50 18,7 C 96 % 1015,8 hPa 0,0 l/m 10,6 km/h (2 Bft) W-SW 237 0 min 0,000 mm 0,0 UV-I 0 W/m 18,0 C 17,0 C 20,9 km/h (4 Bft) 98,00 %
24.07.2016 00:52 18,7 C 96 % 1015,9 hPa 0,0 l/m 13,4 km/h (3 Bft) SW 229 0 min 0,000 mm 0,0 UV-I 0 W/m 18,0 C 16,1 C 19,3 km/h (3 Bft) 100,00 %
24.07.2016 00:54 18,7 C 96 % 1015,9 hPa 0,0 l/m 11,1 km/h (2 Bft) W-SW 238 0 min 0,000 mm 0,0 UV-I 0 W/m 18,0 C 16,8 C 16,1 km/h (3 Bft) 100,00 %
24.07.2016 00:56 18,7 C 96 % 1015,8 hPa 0,0 l/m 11,8 km/h (2 Bft) SW 229 0 min 0,000 mm 0,0 UV-I 0 W/m 18,0 C 16,6 C 17,7 km/h (3 Bft) 97,87 %
24.07.2016 00:58 18,7 C 96 % 1015,8 hPa 0,0 l/m 12,2 km/h (2 Bft) SW 227 0 min 0,000 mm 0,0 UV-I 0 W/m 18,0 C 16,5 C 17,7 km/h (3 Bft) 100,00 %
24.07.2016 01:00 18,7 C 96 % 1015,8 hPa 0,0 l/m 10,7 km/h (2 Bft) SW 221 0 min 0,000 mm 0,0 UV-I 0 W/m 18,0 C 17,0 C 16,1 km/h (3 Bft) 97,87 %
24.07.2016 01:02 18,7 C 96 % 1015,8 hPa 0,0 l/m 10,9 km/h (2 Bft) S-SW 210 0 min 0,000 mm 0,0 UV-I 0 W/m 18,0 C 16,9 C 14,5 km/h (3 Bft) 97,87 %
24.07.2016 01:04 18,7 C 96 % 1015,8 hPa 0,0 l/m 11,0 km/h (2 Bft) W-SW 237 0 min 0,000 mm 0,0 UV-I 0 W/m 18,0 C 16,9 C 17,7 km/h (3 Bft) 97,87 %
24.07.2016 01:06 18,7 C 96 % 1015,8 hPa 0,0 l/m 11,1 km/h (2 Bft) W-SW 239 0 min 0,000 mm 0,0 UV-I 0 W/m 18,0 C 16,8 C 16,1 km/h (3 Bft) 97,87 %
24.07.2016 01:08 18,7 C 96 % 1015,8 hPa 0,0 l/m 7,9 km/h (2 Bft) S-SW 212 0 min 0,000 mm 0,0 UV-I 0 W/m 18,0 C 18,0 C 14,5 km/h (3 Bft) 97,87 %
24.07.2016 01:10 18,7 C 96 % 1015,8 hPa 0,0 l/m 7,7 km/h (2 Bft) S-SW 209 0 min 0,000 mm 0,0 UV-I 0 W/m 18,0 C 18,1 C 11,3 km/h (2 Bft) 95,74 %
24.07.2016 01:12 18,7 C 96 % 1015,8 hPa 0,0 l/m 7,1 km/h (2 Bft) S-SW 202 0 min 0,000 mm 0,0 UV-I 0 W/m 18,0 C 18,4 C 12,9 km/h (3 Bft) 97,87 %
24.07.2016 01:14 18,7 C 96 % 1015,9 hPa 0,0 l/m 9,6 km/h (2 Bft) SW 228 0 min 0,000 mm 0,0 UV-I 0 W/m 18,0 C 17,4 C 12,9 km/h (3 Bft) 97,87 %
24.07.2016 01:16 18,7 C 96 % 1015,8 hPa 0,0 l/m 7,1 km/h (2 Bft) W-SW 237 0 min 0,000 mm 0,0 UV-I 0 W/m 18,0 C 18,4 C 14,5 km/h (3 Bft) 95,83 %
24.07.2016 01:18 18,6 C 96 % 1015,9 hPa 0,0 l/m 6,9 km/h (2 Bft) SW 229 0 min 0,000 mm 0,0 UV-I 0 W/m 17,9 C 18,4 C 9,7 km/h (2 Bft) 97,37 %
24.07.2016 01:20 18,7 C 96 % 1015,9 hPa 0,0 l/m 9,1 km/h (2 Bft) S-SW 209 0 min 0,000 mm 0,0 UV-I 0 W/m 18,0 C 17,5 C 12,9 km/h (3 Bft) 96,00 %
24.07.2016 01:22 18,7 C 96 % 1015,8 hPa 0,0 l/m 7,7 km/h (2 Bft) SW 227 0 min 0,000 mm 0,0 UV-I 0 W/m 18,0 C 18,1 C 12,9 km/h (3 Bft) 97,87 %
24.07.2016 01:24 18,7 C 96 % 1015,7 hPa 0,0 l/m 9,0 km/h (2 Bft) S-SW 212 0 min 0,000 mm 0,0 UV-I 0 W/m 18,0 C 17,6 C 14,5 km/h (3 Bft) 97,87 %
24.07.2016 01:26 18,7 C 96 % 1015,7 hPa 0,0 l/m 9,3 km/h (2 Bft) SW 234 0 min 0,000 mm 0,0 UV-I 0 W/m 18,0 C 17,5 C 14,5 km/h (3 Bft) 97,87 %
24.07.2016 01:28 18,6 C 96 % 1015,7 hPa 0,0 l/m 10,2 km/h (2 Bft) SW 219 0 min 0,000 mm 0,0 UV-I 0 W/m 17,9 C 17,0 C 16,1 km/h (3 Bft) 97,87 %
24.07.2016 01:30 18,6 C 96 % 1015,6 hPa 0,0 l/m 8,1 km/h (2 Bft) S-SW 205 0 min 0,000 mm 0,0 UV-I 0 W/m 17,9 C 17,8 C 14,5 km/h (3 Bft) 98,00 %
24.07.2016 01:32 18,6 C 96 % 1015,6 hPa 0,0 l/m 10,2 km/h (2 Bft) SW 231 0 min 0,000 mm 0,0 UV-I 0 W/m 17,9 C 17,0 C 16,1 km/h (3 Bft) 97,87 %
24.07.2016 01:34 18,6 C 96 % 1015,6 hPa 0,0 l/m 11,2 km/h (2 Bft) SW 220 0 min 0,000 mm 0,0 UV-I 0 W/m 17,9 C 16,7 C 16,1 km/h (3 Bft) 95,74 %
24.07.2016 01:36 18,6 C 96 % 1015,6 hPa 0,0 l/m 10,6 km/h (2 Bft) W-SW 242 0 min 0,000 mm 0,0 UV-I 0 W/m 17,9 C 16,9 C 17,7 km/h (3 Bft) 100,00 %
24.07.2016 01:38 18,6 C 96 % 1015,5 hPa 0,0 l/m 9,2 km/h (2 Bft) SW 229 0 min 0,000 mm 0,0 UV-I 0 W/m 17,9 C 17,4 C 14,5 km/h (3 Bft) 97,87 %
24.07.2016 01:40 18,6 C 96 % 1015,5 hPa 0,0 l/m 11,6 km/h (2 Bft) W-SW 238 0 min 0,000 mm 0,0 UV-I 0 W/m 17,9 C 16,5 C 16,1 km/h (3 Bft) 97,87 %
24.07.2016 01:42 18,6 C 96 % 1015,5 hPa 0,0 l/m 11,8 km/h (2 Bft) W-SW 248 0 min 0,000 mm 0,0 UV-I 0 W/m 17,9 C 16,5 C 17,7 km/h (3 Bft) 95,74 %
24.07.2016 01:44 18,6 C 96 % 1015,5 hPa 0,0 l/m 9,7 km/h (2 Bft) W-SW 250 0 min 0,000 mm 0,0 UV-I 0 W/m 17,9 C 17,2 C 14,5 km/h (3 Bft) 97,37 %
24.07.2016 01:46 18,6 C 96 % 1015,4 hPa 0,0 l/m 12,6 km/h (3 Bft) W-SW 252 0 min 0,000 mm 0,0 UV-I 0 W/m 17,9 C 16,2 C 17,7 km/h (3 Bft) 100,00 %
24.07.2016 01:48 18,6 C 96 % 1015,4 hPa 0,0 l/m 11,9 km/h (2 Bft) W-SW 248 0 min 0,000 mm 0,0 UV-I 0 W/m 17,9 C 16,4 C 16,1 km/h (3 Bft) 95,74 %
24.07.2016 01:50 18,6 C 96 % 1015,4 hPa 0,0 l/m 10,6 km/h (2 Bft) W-SW 240 0 min 0,000 mm 0,0 UV-I 0 W/m 17,9 C 16,9 C 16,1 km/h (3 Bft) 95,83 %
24.07.2016 01:52 18,6 C 96 % 1015,5 hPa 0,0 l/m 12,8 km/h (3 Bft) W-SW 246 0 min 0,000 mm 0,0 UV-I 0 W/m 17,9 C 16,2 C 17,7 km/h (3 Bft) 100,00 %
24.07.2016 01:54 18,6 C 96 % 1015,5 hPa 0,0 l/m 10,2 km/h (2 Bft) W 263 0 min 0,000 mm 0,0 UV-I 0 W/m 17,9 C 17,0 C 16,1 km/h (3 Bft) 100,00 %
24.07.2016 01:56 18,6 C 96 % 1015,4 hPa 0,0 l/m 11,0 km/h (2 Bft) W-SW 246 0 min 0,000 mm 0,0 UV-I 0 W/m 17,9 C 16,7 C 16,1 km/h (3 Bft) 97,87 %
24.07.2016 01:58 18,6 C 96 % 1015,4 hPa 0,0 l/m 10,7 km/h (2 Bft) SW 232 0 min 0,000 mm 0,0 UV-I 0 W/m 17,9 C 16,8 C 17,7 km/h (3 Bft) 97,87 %
24.07.2016 02:00 18,6 C 96 % 1015,5 hPa 0,0 l/m 10,1 km/h (2 Bft) W-SW 239 0 min 0,000 mm 0,0 UV-I 0 W/m 17,9 C 17,1 C 14,5 km/h (3 Bft) 100,00 %
24.07.2016 02:02 18,6 C 96 % 1015,5 hPa 0,0 l/m 8,9 km/h (2 Bft) SW 228 0 min 0,000 mm 0,0 UV-I 0 W/m 17,9 C 17,5 C 14,5 km/h (3 Bft) 100,00 %
24.07.2016 02:04 18,5 C 96 % 1015,6 hPa 0,0 l/m 9,6 km/h (2 Bft) SW 221 0 min 0,000 mm 0,0 UV-I 0 W/m 17,8 C 17,1 C 14,5 km/h (3 Bft) 100,00 %
24.07.2016 02:06 18,5 C 96 % 1015,6 hPa 0,0 l/m 9,6 km/h (2 Bft) SW 217 0 min 0,000 mm 0,0 UV-I 0 W/m 17,8 C 17,1 C 16,1 km/h (3 Bft) 100,00 %
24.07.2016 02:08 18,5 C 96 % 1015,6 hPa 0,0 l/m 9,2 km/h (2 Bft) SW 230 0 min 0,000 mm 0,0 UV-I 0 W/m 17,8 C 17,3 C 12,9 km/h (3 Bft) 100,00 %
24.07.2016 02:10 18,5 C 96 % 1015,7 hPa 0,0 l/m 9,3 km/h (2 Bft) SW 226 0 min 0,000 mm 0,0 UV-I 0 W/m 17,8 C 17,2 C 14,5 km/h (3 Bft) 100,00 %
24.07.2016 02:12 18,5 C 96 % 1015,6 hPa 0,0 l/m 9,7 km/h (2 Bft) W-SW 240 0 min 0,000 mm 0,0 UV-I 0 W/m 17,8 C 17,1 C 12,9 km/h (3 Bft) 100,00 %
24.07.2016 02:14 18,4 C 96 % 1015,6 hPa 0,0 l/m 9,4 km/h (2 Bft) W-SW 246 0 min 0,000 mm 0,0 UV-I 0 W/m 17,7 C 17,1 C 14,5 km/h (3 Bft) 100,00 %
24.07.2016 02:16 18,4 C 96 % 1015,6 hPa 0,0 l/m 8,0 km/h (2 Bft) W-SW 252 0 min 0,000 mm 0,0 UV-I 0 W/m 17,7 C 17,7 C 14,5 km/h (3 Bft) 100,00 %
24.07.2016 02:18 18,4 C 96 % 1015,6 hPa 0,0 l/m 10,0 km/h (2 Bft) W-SW 252 0 min 0,000 mm 0,0 UV-I 0 W/m 17,7 C 16,9 C 16,1 km/h (3 Bft) 100,00 %
24.07.2016 02:20 18,4 C 96 % 1015,7 hPa 0,0 l/m 10,1 km/h (2 Bft) W-SW 239 0 min 0,000 mm 0,0 UV-I 0 W/m 17,7 C 16,8 C 16,1 km/h (3 Bft) 100,00 %
24.07.2016 02:22 18,5 C 96 % 1015,7 hPa 0,0 l/m 12,5 km/h (3 Bft) W-SW 244 0 min 0,000 mm 0,0 UV-I 0 W/m 17,8 C 16,1 C 17,7 km/h (3 Bft) 100,00 %
24.07.2016 02:24 18,4 C 96 % 1015,7 hPa 0,0 l/m 13,1 km/h (3 Bft) W 261 0 min 0,000 mm 0,0 UV-I 0 W/m 17,7 C 15,8 C 17,7 km/h (3 Bft) 97,87 %
24.07.2016 02:26 18,4 C 96 % 1015,7 hPa 0,0 l/m 13,9 km/h (3 Bft) W-SW 250 0 min 0,000 mm 0,0 UV-I 0 W/m 17,7 C 15,6 C 20,9 km/h (4 Bft) 100,00 %
24.07.2016 02:28 18,4 C 96 % 1015,6 hPa 0,0 l/m 14,8 km/h (3 Bft) W-SW 245 0 min 0,000 mm 0,0 UV-I 0 W/m 17,7 C 15,4 C 20,9 km/h (4 Bft) 100,00 %
24.07.2016 02:30 18,4 C 96 % 1015,6 hPa 0,0 l/m 13,3 km/h (3 Bft) W-SW 254 0 min 0,000 mm 0,0 UV-I 0 W/m 17,7 C 15,8 C 20,9 km/h (4 Bft) 100,00 %
24.07.2016 02:32 18,4 C 96 % 1015,7 hPa 0,0 l/m 14,7 km/h (3 Bft) W 275 0 min 0,000 mm 0,0 UV-I 0 W/m 17,7 C 15,4 C 20,9 km/h (4 Bft) 100,00 %
24.07.2016 02:34 18,4 C 96 % 1015,7 hPa 0,0 l/m 13,7 km/h (3 Bft) W 266 0 min 0,000 mm 0,0 UV-I 0 W/m 17,7 C 15,7 C 19,3 km/h (3 Bft) 100,00 %
24.07.2016 02:36 18,4 C 96 % 1015,8 hPa 0,0 l/m 12,2 km/h (2 Bft) W-SW 249 0 min 0,000 mm 0,0 UV-I 0 W/m 17,7 C 16,1 C 20,9 km/h (4 Bft) 100,00 %
24.07.2016 02:38 18,4 C 96 % 1015,8 hPa 0,0 l/m 12,6 km/h (3 Bft) W-SW 246 0 min 0,000 mm 0,0 UV-I 0 W/m 17,7 C 16,0 C 17,7 km/h (3 Bft) 97,87 %
24.07.2016 02:40 18,4 C 96 % 1015,8 hPa 0,0 l/m 11,0 km/h (2 Bft) W-SW 251 0 min 0,000 mm 0,0 UV-I 0 W/m 17,7 C 16,5 C 16,1 km/h (3 Bft) 100,00 %
24.07.2016 02:42 18,4 C 96 % 1015,9 hPa 0,0 l/m 10,0 km/h (2 Bft) W 263 0 min 0,000 mm 0,0 UV-I 0 W/m 17,7 C 16,9 C 14,5 km/h (3 Bft) 97,87 %
24.07.2016 02:44 18,4 C 96 % 1015,9 hPa 0,0 l/m 11,2 km/h (2 Bft) SW 236 0 min 0,000 mm 0,0 UV-I 0 W/m 17,7 C 16,5 C 17,7 km/h (3 Bft) 97,87 %
24.07.2016 02:46 18,4 C 96 % 1015,9 hPa 0,0 l/m 12,1 km/h (2 Bft) W-SW 251 0 min 0,000 mm 0,0 UV-I 0 W/m 17,7 C 16,2 C 16,1 km/h (3 Bft) 100,00 %
24.07.2016 02:48 18,4 C 96 % 1015,9 hPa 0,0 l/m 10,5 km/h (2 Bft) W 268 0 min 0,000 mm 0,0 UV-I 0 W/m 17,7 C 16,7 C 16,1 km/h (3 Bft) 97,87 %
24.07.2016 02:50 18,4 C 96 % 1015,9 hPa 0,0 l/m 12,6 km/h (3 Bft) SW 229 0 min 0,000 mm 0,0 UV-I 0 W/m 17,7 C 16,0 C 19,3 km/h (3 Bft) 93,62 %
24.07.2016 02:52 18,4 C 96 % 1015,9 hPa 0,0 l/m 12,1 km/h (2 Bft) W 264 0 min 0,000 mm 0,0 UV-I 0 W/m 17,7 C 16,2 C 17,7 km/h (3 Bft) 100,00 %
24.07.2016 02:54 18,4 C 96 % 1015,9 hPa 0,0 l/m 8,2 km/h (2 Bft) W 276 0 min 0,000 mm 0,0 UV-I 0 W/m 17,7 C 17,6 C 12,9 km/h (3 Bft) 100,00 %
24.07.2016 02:56 18,3 C 96 % 1015,9 hPa 0,0 l/m 10,4 km/h (2 Bft) W 259 0 min 0,000 mm 0,0 UV-I 0 W/m 17,6 C 16,6 C 16,1 km/h (3 Bft) 100,00 %
24.07.2016 02:58 18,3 C 96 % 1016,0 hPa 0,0 l/m 10,6 km/h (2 Bft) W-SW 240 0 min 0,000 mm 0,0 UV-I 0 W/m 17,6 C 16,5 C 16,1 km/h (3 Bft) 97,87 %
24.07.2016 03:00 18,3 C 96 % 1015,9 hPa 0,0 l/m 9,3 km/h (2 Bft) W-SW 253 0 min 0,000 mm 0,0 UV-I 0 W/m 17,6 C 17,0 C 14,5 km/h (3 Bft) 97,87 %
24.07.2016 03:02 18,3 C 96 % 1016,0 hPa 0,0 l/m 9,7 km/h (2 Bft) W-SW 244 0 min 0,000 mm 0,0 UV-I 0 W/m 17,6 C 16,9 C 14,5 km/h (3 Bft) 95,74 %
24.07.2016 03:04 18,3 C 96 % 1016,1 hPa 0,0 l/m 10,2 km/h (2 Bft) W-SW 253 0 min 0,000 mm 0,0 UV-I 0 W/m 17,6 C 16,7 C 16,1 km/h (3 Bft) 97,87 %
24.07.2016 03:06 18,3 C 96 % 1016,0 hPa 0,0 l/m 9,1 km/h (2 Bft) W-SW 255 0 min 0,000 mm 0,0 UV-I 0 W/m 17,6 C 17,1 C 16,1 km/h (3 Bft) 97,56 %
24.07.2016 03:08 18,3 C 96 % 1016,1 hPa 0,0 l/m 11,6 km/h (2 Bft) W-SW 244 0 min 0,000 mm 0,0 UV-I 0 W/m 17,6 C 16,2 C 17,7 km/h (3 Bft) 98,00 %
24.07.2016 03:10 18,3 C 96 % 1016,1 hPa 0,0 l/m 10,1 km/h (2 Bft) W-SW 242 0 min 0,000 mm 0,0 UV-I 0 W/m 17,6 C 16,7 C 14,5 km/h (3 Bft) 97,87 %
24.07.2016 03:12 18,3 C 96 % 1016,1 hPa 0,0 l/m 10,4 km/h (2 Bft) W-NW 285 0 min 0,000 mm 0,0 UV-I 0 W/m 17,6 C 16,6 C 17,7 km/h (3 Bft) 97,44 %
24.07.2016 03:14 18,3 C 96 % 1016,1 hPa 0,0 l/m 9,9 km/h (2 Bft) W-SW 242 0 min 0,000 mm 0,0 UV-I 0 W/m 17,6 C 16,8 C 14,5 km/h (3 Bft) 93,62 %
24.07.2016 03:16 18,3 C 96 % 1016,1 hPa 0,0 l/m 10,8 km/h (2 Bft) W 267 0 min 0,000 mm 0,0 UV-I 0 W/m 17,6 C 16,5 C 14,5 km/h (3 Bft) 95,74 %
24.07.2016 03:18 18,3 C 96 % 1016,1 hPa 0,0 l/m 11,5 km/h (2 Bft) W-SW 246 0 min 0,000 mm 0,0 UV-I 0 W/m 17,6 C 16,2 C 19,3 km/h (3 Bft) 97,87 %
24.07.2016 03:20 18,3 C 96 % 1016,2 hPa 0,0 l/m 12,6 km/h (3 Bft) W 261 0 min 0,000 mm 0,0 UV-I 0 W/m 17,6 C 15,9 C 17,7 km/h (3 Bft) 97,87 %
24.07.2016 03:22 18,3 C 96 % 1016,2 hPa 0,0 l/m 12,6 km/h (3 Bft) W-SW 255 0 min 0,000 mm 0,0 UV-I 0 W/m 17,6 C 15,9 C 17,7 km/h (3 Bft) 95,83 %
24.07.2016 03:24 18,3 C 96 % 1016,2 hPa 0,0 l/m 13,1 km/h (3 Bft) W-SW 253 0 min 0,000 mm 0,0 UV-I 0 W/m 17,6 C 15,7 C 19,3 km/h (3 Bft) 97,87 %
24.07.2016 03:26 18,3 C 95 % 1016,2 hPa 0,0 l/m 8,3 km/h (2 Bft) W-SW 242 0 min 0,000 mm 0,0 UV-I 0 W/m 17,5 C 17,4 C 16,1 km/h (3 Bft) 97,87 %
24.07.2016 03:28 18,3 C 95 % 1016,2 hPa 0,0 l/m 6,7 km/h (2 Bft) W-SW 238 0 min 0,000 mm 0,0 UV-I 0 W/m 17,5 C 18,2 C 11,3 km/h (2 Bft) 98,11 %
24.07.2016 03:30 18,3 C 95 % 1016,2 hPa 0,0 l/m 8,0 km/h (2 Bft) SW 233 0 min 0,000 mm 0,0 UV-I 0 W/m 17,5 C 17,6 C 12,9 km/h (3 Bft) 97,87 %
24.07.2016 03:32 18,3 C 95 % 1016,2 hPa 0,0 l/m 6,8 km/h (2 Bft) SW 232 0 min 0,000 mm 0,0 UV-I 0 W/m 17,5 C 18,1 C 11,3 km/h (2 Bft) 97,87 %
24.07.2016 03:34 18,3 C 95 % 1016,2 hPa 0,0 l/m 7,2 km/h (2 Bft) W 259 0 min 0,000 mm 0,0 UV-I 0 W/m 17,5 C 17,9 C 12,9 km/h (3 Bft) 95,74 %
24.07.2016 03:36 18,3 C 95 % 1016,2 hPa 0,0 l/m 8,3 km/h (2 Bft) W-SW 242 0 min 0,000 mm 0,0 UV-I 0 W/m 17,5 C 17,4 C 12,9 km/h (3 Bft) 95,74 %
24.07.2016 03:38 18,3 C 95 % 1016,2 hPa 0,0 l/m 7,3 km/h (2 Bft) W-SW 243 0 min 0,000 mm 0,0 UV-I 0 W/m 17,5 C 17,9 C 11,3 km/h (2 Bft) 97,87 %
24.07.2016 03:40 18,3 C 95 % 1016,1 hPa 0,0 l/m 8,1 km/h (2 Bft) W-SW 244 0 min 0,000 mm 0,0 UV-I 0 W/m 17,5 C 17,5 C 14,5 km/h (3 Bft) 97,37 %
24.07.2016 03:42 18,3 C 95 % 1016,2 hPa 0,0 l/m 8,9 km/h (2 Bft) W-SW 246 0 min 0,000 mm 0,0 UV-I 0 W/m 17,5 C 17,2 C 14,5 km/h (3 Bft) 97,92 %
24.07.2016 03:44 18,3 C 95 % 1016,2 hPa 0,0 l/m 7,9 km/h (2 Bft) W-SW 251 0 min 0,000 mm 0,0 UV-I 0 W/m 17,5 C 17,6 C 12,9 km/h (3 Bft) 100,00 %
24.07.2016 03:46 18,3 C 95 % 1016,2 hPa 0,0 l/m 7,9 km/h (2 Bft) W-SW 239 0 min 0,000 mm 0,0 UV-I 0 W/m 17,5 C 17,6 C 14,5 km/h (3 Bft) 95,74 %
24.07.2016 03:48 18,3 C 95 % 1016,2 hPa 0,0 l/m 7,3 km/h (2 Bft) W-SW 254 0 min 0,000 mm 0,0 UV-I 0 W/m 17,5 C 17,9 C 11,3 km/h (2 Bft) 100,00 %
24.07.2016 03:50 18,3 C 95 % 1016,2 hPa 0,0 l/m 8,5 km/h (2 Bft) W-SW 256 0 min 0,000 mm 0,0 UV-I 0 W/m 17,5 C 17,4 C 12,9 km/h (3 Bft) 100,00 %
24.07.2016 03:52 18,3 C 95 % 1016,2 hPa 0,0 l/m 8,3 km/h (2 Bft) W-SW 244 0 min 0,000 mm 0,0 UV-I 0 W/m 17,5 C 17,4 C 12,9 km/h (3 Bft) 95,74 %
24.07.2016 03:54 18,3 C 95 % 1016,3 hPa 0,0 l/m 7,8 km/h (2 Bft) W-SW 243 0 min 0,000 mm 0,0 UV-I 0 W/m 17,5 C 17,7 C 12,9 km/h (3 Bft) 100,00 %
24.07.2016 03:56 18,3 C 95 % 1016,3 hPa 0,0 l/m 7,4 km/h (2 Bft) W-SW 242 0 min 0,000 mm 0,0 UV-I 0 W/m 17,5 C 17,8 C 12,9 km/h (3 Bft) 100,00 %
24.07.2016 03:58 18,2 C 95 % 1016,2 hPa 0,0 l/m 6,1 km/h (2 Bft) W-SW 244 0 min 0,000 mm 0,0 UV-I 0 W/m 17,4 C 18,2 C 11,3 km/h (2 Bft) 97,87 %
24.07.2016 04:00 18,2 C 95 % 1016,2 hPa 0,0 l/m 3,1 km/h (1 Bft) W 273 0 min 0,000 mm 0,0 UV-I 0 W/m 17,4 C 18,2 C 6,4 km/h (2 Bft) 95,74 %
24.07.2016 04:02 18,2 C 95 % 1016,2 hPa 0,0 l/m 4,9 km/h (1 Bft) W-SW 256 0 min 0,000 mm 0,0 UV-I 0 W/m 17,4 C 18,2 C 9,7 km/h (2 Bft) 96,30 %
24.07.2016 04:04 18,2 C 95 % 1016,2 hPa 0,0 l/m 3,5 km/h (1 Bft) W-SW 258 0 min 0,000 mm 0,0 UV-I 0 W/m 17,4 C 18,2 C 4,8 km/h (1 Bft) 97,87 %
24.07.2016 04:06 18,2 C 95 % 1016,1 hPa 0,0 l/m 4,0 km/h (1 Bft) W-SW 258 0 min 0,000 mm 0,0 UV-I 0 W/m 17,4 C 18,2 C 6,4 km/h (2 Bft) 97,87 %
24.07.2016 04:08 18,2 C 95 % 1016,2 hPa 0,0 l/m 2,9 km/h (1 Bft) S-SW 211 0 min 0,000 mm 0,0 UV-I 0 W/m 17,4 C 18,2 C 4,8 km/h (1 Bft) 100,00 %
24.07.2016 04:10 18,2 C 95 % 1016,2 hPa 0,0 l/m 3,5 km/h (1 Bft) S-SW 208 0 min 0,000 mm 0,0 UV-I 0 W/m 17,4 C 18,2 C 6,4 km/h (2 Bft) 100,00 %
24.07.2016 04:12 18,2 C 95 % 1016,2 hPa 0,0 l/m 1,7 km/h (1 Bft) S-SW 208 0 min 0,000 mm 0,0 UV-I 0 W/m 17,4 C 18,2 C 4,8 km/h (1 Bft) 100,00 %
24.07.2016 04:14 18,2 C 95 % 1016,2 hPa 0,0 l/m 1,9 km/h (1 Bft) S-SW 208 0 min 0,000 mm 0,0 UV-I 0 W/m 17,4 C 18,2 C 3,2 km/h (1 Bft) 95,74 %
24.07.2016 04:16 18,2 C 95 % 1016,2 hPa 0,0 l/m 2,2 km/h (1 Bft) S-SW 208 0 min 0,000 mm 0,0 UV-I 0 W/m 17,4 C 18,2 C 3,2 km/h (1 Bft) 100,00 %
24.07.2016 04:18 18,1 C 95 % 1016,3 hPa 0,0 l/m 2,9 km/h (1 Bft) SW 226 0 min 0,000 mm 0,0 UV-I 0 W/m 17,3 C 18,1 C 4,8 km/h (1 Bft) 100,00 %
24.07.2016 04:20 18,1 C 95 % 1016,2 hPa 0,0 l/m 2,5 km/h (1 Bft) SW 227 0 min 0,000 mm 0,0 UV-I 0 W/m 17,3 C 18,1 C 3,2 km/h (1 Bft) 97,87 %
24.07.2016 04:22 18,1 C 95 % 1016,2 hPa 0,0 l/m 3,0 km/h (1 Bft) SW 227 0 min 0,000 mm 0,0 UV-I 0 W/m 17,3 C 18,1 C 4,8 km/h (1 Bft) 100,00 %
24.07.2016 04:24 18,1 C 95 % 1016,2 hPa 0,0 l/m 3,0 km/h (1 Bft) SW 227 0 min 0,000 mm 0,0 UV-I 0 W/m 17,3 C 18,1 C 4,8 km/h (1 Bft) 100,00 %
24.07.2016 04:26 18,1 C 95 % 1016,2 hPa 0,0 l/m 2,5 km/h (1 Bft) SW 227 0 min 0,000 mm 0,0 UV-I 0 W/m 17,3 C 18,1 C 4,8 km/h (1 Bft) 100,00 %
24.07.2016 04:28 18,1 C 95 % 1016,2 hPa 0,0 l/m 4,8 km/h (1 Bft) SW 217 0 min 0,000 mm 0,0 UV-I 0 W/m 17,3 C 18,1 C 6,4 km/h (2 Bft) 100,00 %
24.07.2016 04:30 18,1 C 95 % 1016,2 hPa 0,0 l/m 4,5 km/h (1 Bft) SW 234 0 min 0,000 mm 0,0 UV-I 0 W/m 17,3 C 18,1 C 6,4 km/h (2 Bft) 100,00 %
24.07.2016 04:32 18,1 C 95 % 1016,1 hPa 0,0 l/m 4,3 km/h (1 Bft) SW 234 0 min 0,000 mm 0,0 UV-I 0 W/m 17,3 C 18,1 C 6,4 km/h (2 Bft) 100,00 %
24.07.2016 04:34 18,0 C 95 % 1016,2 hPa 0,0 l/m 5,3 km/h (1 Bft) SW 219 0 min 0,000 mm 0,0 UV-I 0 W/m 17,2 C 18,0 C 6,4 km/h (2 Bft) 97,87 %
24.07.2016 04:36 18,0 C 95 % 1016,1 hPa 0,0 l/m 6,0 km/h (2 Bft) S-SW 197 0 min 0,000 mm 0,0 UV-I 0 W/m 17,2 C 18,0 C 9,7 km/h (2 Bft) 95,74 %
24.07.2016 04:38 18,0 C 95 % 1016,1 hPa 0,0 l/m 5,5 km/h (1 Bft) W-SW 255 0 min 0,000 mm 0,0 UV-I 0 W/m 17,2 C 18,0 C 11,3 km/h (2 Bft) 100,00 %
24.07.2016 04:40 18,0 C 95 % 1016,0 hPa 0,0 l/m 6,9 km/h (2 Bft) SW 231 0 min 0,000 mm 0,0 UV-I 0 W/m 17,2 C 17,8 C 11,3 km/h (2 Bft) 97,87 %
24.07.2016 04:42 17,9 C 95 % 1016,0 hPa 0,0 l/m 6,1 km/h (2 Bft) W-SW 242 0 min 0,000 mm 0,0 UV-I 0 W/m 17,1 C 17,9 C 9,7 km/h (2 Bft) 100,00 %
24.07.2016 04:44 17,9 C 95 % 1016,1 hPa 0,0 l/m 8,3 km/h (2 Bft) W 263 0 min 0,000 mm 0,0 UV-I 0 W/m 17,1 C 17,0 C 14,5 km/h (3 Bft) 97,87 %
24.07.2016 04:46 18,0 C 95 % 1016,0 hPa 0,0 l/m 9,9 km/h (2 Bft) W-SW 254 0 min 0,000 mm 0,0 UV-I 0 W/m 17,2 C 16,5 C 14,5 km/h (3 Bft) 100,00 %
24.07.2016 04:48 18,0 C 95 % 1016,0 hPa 0,0 l/m 10,4 km/h (2 Bft) W 277 0 min 0,000 mm 0,0 UV-I 0 W/m 17,2 C 16,3 C 14,5 km/h (3 Bft) 95,74 %
24.07.2016 04:50 18,0 C 95 % 1015,9 hPa 0,0 l/m 9,7 km/h (2 Bft) W 262 0 min 0,000 mm 0,0 UV-I 0 W/m 17,2 C 16,5 C 12,9 km/h (3 Bft) 97,87 %
24.07.2016 04:52 18,0 C 95 % 1015,9 hPa 0,0 l/m 8,4 km/h (2 Bft) W-SW 252 0 min 0,000 mm 0,0 UV-I 0 W/m 17,2 C 17,1 C 12,9 km/h (3 Bft) 100,00 %
24.07.2016 04:54 18,0 C 95 % 1015,9 hPa 0,0 l/m 8,3 km/h (2 Bft) SW 234 0 min 0,000 mm 0,0 UV-I 0 W/m 17,2 C 17,1 C 16,1 km/h (3 Bft) 98,11 %
24.07.2016 04:56 18,0 C 95 % 1015,9 hPa 0,0 l/m 9,2 km/h (2 Bft) W-SW 242 0 min 0,000 mm 0,0 UV-I 0 W/m 17,2 C 16,7 C 16,1 km/h (3 Bft) 100,00 %
24.07.2016 04:58 18,1 C 95 % 1015,9 hPa 0,0 l/m 9,0 km/h (2 Bft) W-SW 248 0 min 0,000 mm 0,0 UV-I 0 W/m 17,3 C 16,9 C 11,3 km/h (2 Bft) 97,87 %
24.07.2016 05:00 18,1 C 95 % 1015,9 hPa 0,0 l/m 8,9 km/h (2 Bft) W-SW 242 0 min 0,000 mm 0,0 UV-I 0 W/m 17,3 C 17,0 C 14,5 km/h (3 Bft) 100,00 %
24.07.2016 05:02 18,1 C 95 % 1015,9 hPa 0,0 l/m 8,7 km/h (2 Bft) W 260 0 min 0,000 mm 0,0 UV-I 0 W/m 17,3 C 17,1 C 12,9 km/h (3 Bft) 97,87 %
24.07.2016 05:04 18,1 C 95 % 1015,9 hPa 0,0 l/m 6,6 km/h (2 Bft) SW 229 0 min 0,000 mm 0,0 UV-I 0 W/m 17,3 C 18,0 C 11,3 km/h (2 Bft) 95,74 %
24.07.2016 05:06 18,1 C 95 % 1016,0 hPa 0,0 l/m 6,6 km/h (2 Bft) SW 223 0 min 0,000 mm 0,0 UV-I 0 W/m 17,3 C 18,0 C 11,3 km/h (2 Bft) 97,87 %
24.07.2016 05:08 18,1 C 95 % 1016,1 hPa 0,0 l/m 7,4 km/h (2 Bft) SW 215 0 min 0,000 mm 0,0 UV-I 0 W/m 17,3 C 17,6 C 11,3 km/h (2 Bft) 98,00 %
24.07.2016 05:10 18,1 C 95 % 1016,1 hPa 0,0 l/m 7,7 km/h (2 Bft) SW 225 0 min 0,000 mm 0,0 UV-I 0 W/m 17,3 C 17,5 C 11,3 km/h (2 Bft) 100,00 %
24.07.2016 05:12 18,1 C 95 % 1016,1 hPa 0,0 l/m 6,7 km/h (2 Bft) W-SW 240 0 min 0,000 mm 0,0 UV-I 0 W/m 17,3 C 18,0 C 9,7 km/h (2 Bft) 96,92 %
24.07.2016 05:14 18,2 C 95 % 1016,1 hPa 0,0 l/m 5,6 km/h (1 Bft) S-SW 213 0 min 0,000 mm 0,0 UV-I 0 W/m 17,4 C 18,2 C 8,0 km/h (2 Bft) 95,74 %
24.07.2016 05:16 18,2 C 95 % 1016,1 hPa 0,0 l/m 4,6 km/h (1 Bft) SW 232 0 min 0,000 mm 0,0 UV-I 0 W/m 17,4 C 18,2 C 8,0 km/h (2 Bft) 97,87 %
24.07.2016 05:18 18,2 C 95 % 1016,2 hPa 0,0 l/m 4,9 km/h (1 Bft) W-SW 245 0 min 0,000 mm 0,0 UV-I 0 W/m 17,4 C 18,2 C 8,0 km/h (2 Bft) 95,74 %
24.07.2016 05:20 18,2 C 95 % 1016,2 hPa 0,0 l/m 4,9 km/h (1 Bft) SW 228 0 min 0,000 mm 0,0 UV-I 0 W/m 17,4 C 18,2 C 8,0 km/h (2 Bft) 97,87 %
24.07.2016 05:22 18,2 C 95 % 1016,2 hPa 0,0 l/m 6,2 km/h (2 Bft) SW 224 0 min 0,000 mm 0,0 UV-I 0 W/m 17,4 C 18,2 C 8,0 km/h (2 Bft) 95,74 %
24.07.2016 05:24 18,3 C 95 % 1016,1 hPa 0,0 l/m 4,1 km/h (1 Bft) SW 229 0 min 0,000 mm 0,0 UV-I 0 W/m 17,5 C 18,3 C 8,0 km/h (2 Bft) 97,87 %
24.07.2016 05:26 18,3 C 95 % 1016,1 hPa 0,0 l/m 5,1 km/h (1 Bft) S-SW 202 0 min 0,000 mm 0,0 UV-I 0 W/m 17,5 C 18,3 C 9,7 km/h (2 Bft) 97,87 %
24.07.2016 05:28 18,3 C 95 % 1016,1 hPa 0,0 l/m 5,1 km/h (1 Bft) W-SW 240 0 min 0,000 mm 0,0 UV-I 0 W/m 17,5 C 18,3 C 8,0 km/h (2 Bft) 97,87 %
24.07.2016 05:30 18,3 C 95 % 1016,1 hPa 0,0 l/m 7,1 km/h (2 Bft) W-SW 239 0 min 0,000 mm 0,0 UV-I 0 W/m 17,5 C 18,0 C 12,9 km/h (3 Bft) 97,87 %
24.07.2016 05:32 18,3 C 95 % 1016,2 hPa 0,0 l/m 5,4 km/h (1 Bft) SW 233 0 min 0,000 mm 0,0 UV-I 0 W/m 17,5 C 18,3 C 8,0 km/h (2 Bft) 97,87 %
24.07.2016 05:34 18,3 C 95 % 1016,1 hPa 0,0 l/m 5,0 km/h (1 Bft) W-SW 242 0 min 0,000 mm 0,0 UV-I 0 W/m 17,5 C 18,3 C 8,0 km/h (2 Bft) 97,87 %
24.07.2016 05:36 18,3 C 95 % 1016,1 hPa 0,0 l/m 5,3 km/h (1 Bft) SW 224 0 min 0,000 mm 0,0 UV-I 0 W/m 17,5 C 18,3 C 9,7 km/h (2 Bft) 97,87 %
24.07.2016 05:38 18,3 C 95 % 1016,1 hPa 0,0 l/m 5,0 km/h (1 Bft) SW 227 0 min 0,000 mm 0,0 UV-I 0 W/m 17,5 C 18,3 C 9,7 km/h (2 Bft) 100,00 %
24.07.2016 05:40 18,3 C 95 % 1016,1 hPa 0,0 l/m 4,8 km/h (1 Bft) SW 229 0 min 0,000 mm 0,0 UV-I 0 W/m 17,5 C 18,3 C 8,0 km/h (2 Bft) 97,87 %
24.07.2016 05:42 18,3 C 95 % 1016,2 hPa 0,0 l/m 6,6 km/h (2 Bft) W-SW 240 0 min 0,000 mm 0,0 UV-I 0 W/m 17,5 C 18,2 C 12,9 km/h (3 Bft) 97,87 %
24.07.2016 05:44 18,3 C 94 % 1016,2 hPa 0,0 l/m 4,8 km/h (1 Bft) SW 222 0 min 0,000 mm 0,0 UV-I 0 W/m 17,3 C 18,3 C 8,0 km/h (2 Bft) 100,00 %
24.07.2016 05:46 18,4 C 94 % 1016,2 hPa 0,0 l/m 7,6 km/h (2 Bft) W-SW 246 0 min 0,000 mm 0,0 UV-I 0 W/m 17,4 C 17,8 C 14,5 km/h (3 Bft) 97,87 %
24.07.2016 05:48 18,4 C 94 % 1016,2 hPa 0,0 l/m 4,9 km/h (1 Bft) W-SW 248 0 min 0,000 mm 0,0 UV-I 1 W/m 17,4 C 18,4 C 11,3 km/h (2 Bft) 100,00 %
24.07.2016 05:50 18,4 C 94 % 1016,3 hPa 0,0 l/m 5,8 km/h (2 Bft) W-SW 252 0 min 0,000 mm 0,0 UV-I 5 W/m 17,4 C 18,4 C 11,3 km/h (2 Bft) 97,87 %
24.07.2016 05:52 18,4 C 94 % 1016,3 hPa 0,0 l/m 6,6 km/h (2 Bft) W-SW 246 0 min 0,000 mm 0,0 UV-I 5 W/m 17,4 C 18,3 C 11,3 km/h (2 Bft) 97,87 %
24.07.2016 05:54 18,4 C 94 % 1016,2 hPa 0,0 l/m 6,5 km/h (2 Bft) SW 229 0 min 0,000 mm 0,0 UV-I 5 W/m 17,4 C 18,4 C 11,3 km/h (2 Bft) 100,00 %
24.07.2016 05:56 18,5 C 94 % 1016,3 hPa 0,0 l/m 7,5 km/h (2 Bft) SW 236 0 min 0,000 mm 0,0 UV-I 6 W/m 17,5 C 18,0 C 12,9 km/h (3 Bft) 95,74 %
24.07.2016 05:58 18,5 C 94 % 1016,3 hPa 0,0 l/m 6,9 km/h (2 Bft) SW 225 0 min 0,000 mm 0,0 UV-I 7 W/m 17,5 C 18,3 C 9,7 km/h (2 Bft) 100,00 %
24.07.2016 06:00 18,5 C 94 % 1016,3 hPa 0,0 l/m 5,8 km/h (2 Bft) SW 234 0 min 0,000 mm 0,0 UV-I 7 W/m 17,5 C 18,5 C 12,9 km/h (3 Bft) 98,00 %
24.07.2016 06:02 18,6 C 94 % 1016,3 hPa 0,0 l/m 6,2 km/h (2 Bft) SW 232 0 min 0,000 mm 0,0 UV-I 7 W/m 17,6 C 18,6 C 8,0 km/h (2 Bft) 95,74 %
24.07.2016 06:04 18,6 C 94 % 1016,3 hPa 0,0 l/m 7,5 km/h (2 Bft) SW 234 0 min 0,000 mm 0,0 UV-I 8 W/m 17,6 C 18,1 C 12,9 km/h (3 Bft) 95,74 %
24.07.2016 06:06 18,6 C 94 % 1016,3 hPa 0,0 l/m 6,0 km/h (2 Bft) SW 227 0 min 0,000 mm 0,0 UV-I 11 W/m 17,6 C 18,6 C 9,7 km/h (2 Bft) 100,00 %
24.07.2016 06:08 18,6 C 94 % 1016,4 hPa 0,0 l/m 5,6 km/h (1 Bft) S-SW 212 0 min 0,000 mm 0,0 UV-I 13 W/m 17,6 C 18,6 C 8,0 km/h (2 Bft) 100,00 %
24.07.2016 06:10 18,6 C 94 % 1016,5 hPa 0,0 l/m 5,3 km/h (1 Bft) SW 232 0 min 0,000 mm 0,0 UV-I 15 W/m 17,6 C 18,6 C 6,4 km/h (2 Bft) 100,00 %
24.07.2016 06:12 18,6 C 94 % 1016,4 hPa 0,0 l/m 4,2 km/h (1 Bft) SW 230 0 min 0,000 mm 0,0 UV-I 19 W/m 17,6 C 18,6 C 8,0 km/h (2 Bft) 97,87 %
24.07.2016 06:14 18,6 C 94 % 1016,4 hPa 0,0 l/m 4,6 km/h (1 Bft) SW 218 0 min 0,000 mm 0,0 UV-I 22 W/m 17,6 C 18,6 C 8,0 km/h (2 Bft) 100,00 %
24.07.2016 06:16 18,6 C 94 % 1016,4 hPa 0,0 l/m 4,9 km/h (1 Bft) SW 232 0 min 0,000 mm 0,0 UV-I 23 W/m 17,6 C 18,6 C 6,4 km/h (2 Bft) 97,87 %
24.07.2016 06:18 18,6 C 94 % 1016,4 hPa 0,0 l/m 5,4 km/h (1 Bft) S-SW 213 0 min 0,000 mm 0,0 UV-I 23 W/m 17,6 C 18,6 C 9,7 km/h (2 Bft) 100,00 %
24.07.2016 06:20 18,6 C 94 % 1016,4 hPa 0,0 l/m 6,0 km/h (2 Bft) W-SW 239 0 min 0,000 mm 0,0 UV-I 25 W/m 17,6 C 18,6 C 9,7 km/h (2 Bft) 100,00 %
24.07.2016 06:22 18,7 C 94 % 1016,4 hPa 0,0 l/m 6,4 km/h (2 Bft) SW 232 0 min 0,000 mm 0,0 UV-I 27 W/m 17,7 C 18,7 C 9,7 km/h (2 Bft) 100,00 %
24.07.2016 06:24 18,7 C 94 % 1016,4 hPa 0,0 l/m 6,3 km/h (2 Bft) W-SW 238 0 min 0,000 mm 0,0 UV-I 31 W/m 17,7 C 18,7 C 8,0 km/h (2 Bft) 100,00 %
24.07.2016 06:26 18,7 C 94 % 1016,4 hPa 0,0 l/m 5,1 km/h (1 Bft) W-SW 242 0 min 0,000 mm 0,0 UV-I 34 W/m 17,7 C 18,7 C 8,0 km/h (2 Bft) 97,87 %
24.07.2016 06:28 18,7 C 94 % 1016,4 hPa 0,0 l/m 6,3 km/h (2 Bft) SW 219 0 min 0,000 mm 0,0 UV-I 35 W/m 17,7 C 18,7 C 8,0 km/h (2 Bft) 100,00 %
24.07.2016 06:30 18,8 C 94 % 1016,4 hPa 0,0 l/m 6,1 km/h (2 Bft) SW 234 0 min 0,000 mm 0,0 UV-I 34 W/m 17,8 C 18,8 C 9,7 km/h (2 Bft) 100,00 %
24.07.2016 06:32 18,8 C 94 % 1016,3 hPa 0,0 l/m 6,3 km/h (2 Bft) W-SW 242 0 min 0,000 mm 0,0 UV-I 30 W/m 17,8 C 18,8 C 11,3 km/h (2 Bft) 95,74 %
24.07.2016 06:34 18,8 C 94 % 1016,4 hPa 0,0 l/m 4,4 km/h (1 Bft) SW 224 0 min 0,000 mm 0,0 UV-I 26 W/m 17,8 C 18,8 C 8,0 km/h (2 Bft) 100,00 %
24.07.2016 06:36 18,8 C 94 % 1016,4 hPa 0,0 l/m 5,4 km/h (1 Bft) SW 224 0 min 0,000 mm 0,0 UV-I 26 W/m 17,8 C 18,8 C 8,0 km/h (2 Bft) 100,00 %
24.07.2016 06:38 18,8 C 94 % 1016,4 hPa 0,0 l/m 7,5 km/h (2 Bft) SW 230 0 min 0,000 mm 0,0 UV-I 29 W/m 17,8 C 18,3 C 16,1 km/h (3 Bft) 100,00 %
24.07.2016 06:40 18,8 C 94 % 1016,4 hPa 0,0 l/m 6,9 km/h (2 Bft) SW 220 0 min 0,000 mm 0,0 UV-I 30 W/m 17,8 C 18,6 C 9,7 km/h (2 Bft) 95,74 %
24.07.2016 06:42 18,8 C 94 % 1016,4 hPa 0,0 l/m 5,1 km/h (1 Bft) SW 234 0 min 0,000 mm 0,0 UV-I 34 W/m 17,8 C 18,8 C 8,0 km/h (2 Bft) 100,00 %
24.07.2016 06:44 18,8 C 94 % 1016,3 hPa 0,0 l/m 7,1 km/h (2 Bft) SW 230 0 min 0,000 mm 0,0 UV-I 41 W/m 17,8 C 18,5 C 11,3 km/h (2 Bft) 100,00 %
24.07.2016 06:46 18,8 C 94 % 1016,4 hPa 0,0 l/m 6,9 km/h (2 Bft) SW 229 0 min 0,000 mm 0,0 UV-I 49 W/m 17,8 C 18,6 C 9,7 km/h (2 Bft) 100,00 %
24.07.2016 06:48 18,9 C 94 % 1016,4 hPa 0,0 l/m 7,6 km/h (2 Bft) W-SW 250 0 min 0,000 mm 0,0 UV-I 52 W/m 17,9 C 18,4 C 12,9 km/h (3 Bft) 97,87 %
24.07.2016 06:50 18,9 C 94 % 1016,4 hPa 0,0 l/m 8,6 km/h (2 Bft) S-SW 194 0 min 0,000 mm 0,0 UV-I 51 W/m 17,9 C 18,0 C 16,1 km/h (3 Bft) 97,87 %
24.07.2016 06:52 18,9 C 93 % 1016,4 hPa 0,0 l/m 7,4 km/h (2 Bft) SW 232 0 min 0,000 mm 0,0 UV-I 48 W/m 17,7 C 18,5 C 11,3 km/h (2 Bft) 100,00 %
24.07.2016 06:54 18,9 C 93 % 1016,4 hPa 0,0 l/m 8,4 km/h (2 Bft) S-SW 209 0 min 0,000 mm 0,0 UV-I 49 W/m 17,7 C 18,0 C 14,5 km/h (3 Bft) 97,87 %
24.07.2016 06:56 18,9 C 93 % 1016,4 hPa 0,0 l/m 10,5 km/h (2 Bft) S-SW 192 0 min 0,000 mm 0,0 UV-I 49 W/m 17,7 C 17,3 C 17,7 km/h (3 Bft) 97,87 %
24.07.2016 06:58 18,9 C 93 % 1016,4 hPa 0,0 l/m 11,3 km/h (2 Bft) SW 217 0 min 0,000 mm 0,0 UV-I 49 W/m 17,7 C 17,0 C 16,1 km/h (3 Bft) 100,00 %
24.07.2016 07:00 19,0 C 93 % 1016,4 hPa 0,0 l/m 11,4 km/h (2 Bft) S-SW 205 0 min 0,025 mm 0,0 UV-I 56 W/m 17,8 C 17,1 C 16,1 km/h (3 Bft) 97,87 %
24.07.2016 07:02 19,0 C 93 % 1016,4 hPa 0,0 l/m 8,3 km/h (2 Bft) SW 223 0 min 0,000 mm 0,0 UV-I 66 W/m 17,8 C 18,2 C 12,9 km/h (3 Bft) 100,00 %
24.07.2016 07:04 19,0 C 93 % 1016,4 hPa 0,0 l/m 7,7 km/h (2 Bft) S-SW 213 0 min 0,000 mm 0,0 UV-I 75 W/m 17,8 C 18,4 C 16,1 km/h (3 Bft) 91,49 %
24.07.2016 07:06 19,0 C 93 % 1016,4 hPa 0,0 l/m 8,1 km/h (2 Bft) W 261 0 min 0,000 mm 0,0 UV-I 83 W/m 17,8 C 18,3 C 12,9 km/h (3 Bft) 96,00 %
24.07.2016 07:08 19,1 C 93 % 1016,4 hPa 0,0 l/m 8,7 km/h (2 Bft) SW 214 0 min 0,000 mm 0,0 UV-I 88 W/m 17,9 C 18,1 C 14,5 km/h (3 Bft) 97,22 %
24.07.2016 07:10 19,1 C 93 % 1016,4 hPa 0,0 l/m 9,5 km/h (2 Bft) SW 232 0 min 0,000 mm 0,0 UV-I 86 W/m 17,9 C 17,8 C 14,5 km/h (3 Bft) 97,87 %
24.07.2016 07:12 19,1 C 93 % 1016,4 hPa 0,0 l/m 8,1 km/h (2 Bft) SW 234 0 min 0,000 mm 0,0 UV-I 83 W/m 17,9 C 18,4 C 12,9 km/h (3 Bft) 96,00 %
24.07.2016 07:14 19,1 C 93 % 1016,4 hPa 0,0 l/m 8,3 km/h (2 Bft) SW 227 0 min 0,000 mm 0,0 UV-I 86 W/m 17,9 C 18,3 C 16,1 km/h (3 Bft) 97,87 %
24.07.2016 07:16 19,1 C 93 % 1016,4 hPa 0,0 l/m 8,7 km/h (2 Bft) S-SW 192 0 min 0,000 mm 0,0 UV-I 96 W/m 17,9 C 18,1 C 12,9 km/h (3 Bft) 97,87 %
24.07.2016 07:18 19,1 C 93 % 1016,5 hPa 0,0 l/m 6,8 km/h (2 Bft) SW 222 0 min 0,000 mm 0,0 UV-I 103 W/m 17,9 C 18,9 C 9,7 km/h (2 Bft) 95,74 %
24.07.2016 07:20 19,1 C 93 % 1016,5 hPa 0,0 l/m 7,7 km/h (2 Bft) S-SW 195 0 min 0,000 mm 0,0 UV-I 93 W/m 17,9 C 18,5 C 16,1 km/h (3 Bft) 97,87 %
24.07.2016 07:22 19,1 C 93 % 1016,5 hPa 0,0 l/m 9,1 km/h (2 Bft) SW 226 0 min 0,000 mm 0,0 UV-I 80 W/m 17,9 C 18,0 C 12,9 km/h (3 Bft) 97,87 %
24.07.2016 07:24 19,1 C 93 % 1016,5 hPa 0,0 l/m 7,9 km/h (2 Bft) SW 219 0 min 0,000 mm 0,0 UV-I 66 W/m 17,9 C 18,4 C 12,9 km/h (3 Bft) 96,00 %
24.07.2016 07:26 19,1 C 93 % 1016,5 hPa 0,0 l/m 6,3 km/h (2 Bft) S-SW 200 0 min 0,000 mm 0,0 UV-I 53 W/m 17,9 C 19,1 C 11,3 km/h (2 Bft) 98,00 %
24.07.2016 07:28 19,1 C 93 % 1016,5 hPa 0,0 l/m 7,3 km/h (2 Bft) SW 229 0 min 0,000 mm 0,0 UV-I 48 W/m 17,9 C 18,7 C 9,7 km/h (2 Bft) 97,87 %
24.07.2016 07:30 19,1 C 93 % 1016,5 hPa 0,0 l/m 6,8 km/h (2 Bft) SW 219 0 min 0,000 mm 0,0 UV-I 46 W/m 17,9 C 18,9 C 12,9 km/h (3 Bft) 97,87 %
24.07.2016 07:32 19,1 C 93 % 1016,6 hPa 0,0 l/m 9,8 km/h (2 Bft) S 186 0 min 0,000 mm 0,0 UV-I 44 W/m 17,9 C 17,7 C 17,7 km/h (3 Bft) 97,44 %
24.07.2016 07:34 19,1 C 93 % 1016,6 hPa 0,0 l/m 8,4 km/h (2 Bft) S 188 0 min 0,000 mm 0,0 UV-I 40 W/m 17,9 C 18,2 C 12,9 km/h (3 Bft) 97,87 %
24.07.2016 07:36 19,0 C 93 % 1016,6 hPa 0,0 l/m 8,1 km/h (2 Bft) S-SW 205 0 min 0,000 mm 0,0 UV-I 35 W/m 17,8 C 18,3 C 12,9 km/h (3 Bft) 96,00 %
24.07.2016 07:38 19,0 C 93 % 1016,6 hPa 0,0 l/m 6,4 km/h (2 Bft) S-SW 206 0 min 0,000 mm 0,0 UV-I 34 W/m 17,8 C 19,0 C 11,3 km/h (2 Bft) 97,87 %
24.07.2016 07:40 18,9 C 93 % 1016,6 hPa 0,0 l/m 4,8 km/h (1 Bft) SW 225 0 min 0,000 mm 0,0 UV-I 33 W/m 17,7 C 18,9 C 9,7 km/h (2 Bft) 95,74 %
24.07.2016 07:42 18,9 C 94 % 1016,6 hPa 0,0 l/m 6,2 km/h (2 Bft) S-SW 196 0 min 0,000 mm 0,0 UV-I 32 W/m 17,9 C 18,9 C 9,7 km/h (2 Bft) 100,00 %
24.07.2016 07:44 18,9 C 94 % 1016,6 hPa 0,0 l/m 4,5 km/h (1 Bft) SW 236 0 min 0,000 mm 0,0 UV-I 36 W/m 17,9 C 18,9 C 8,0 km/h (2 Bft) 100,00 %
24.07.2016 07:46 18,8 C 94 % 1016,6 hPa 0,0 l/m 7,5 km/h (2 Bft) S 176 0 min 0,000 mm 0,0 UV-I 39 W/m 17,8 C 18,3 C 12,9 km/h (3 Bft) 100,00 %
24.07.2016 07:48 18,8 C 94 % 1016,6 hPa 0,0 l/m 5,8 km/h (2 Bft) W-SW 251 0 min 0,000 mm 0,0 UV-I 42 W/m 17,8 C 18,8 C 9,7 km/h (2 Bft) 95,74 %
24.07.2016 07:50 18,8 C 94 % 1016,6 hPa 0,0 l/m 8,6 km/h (2 Bft) SW 226 0 min 0,000 mm 0,0 UV-I 48 W/m 17,8 C 17,8 C 12,9 km/h (3 Bft) 100,00 %
24.07.2016 07:52 18,8 C 94 % 1016,6 hPa 0,0 l/m 8,9 km/h (2 Bft) W-SW 247 0 min 0,000 mm 0,0 UV-I 54 W/m 17,8 C 17,7 C 16,1 km/h (3 Bft) 97,87 %
24.07.2016 07:54 18,8 C 95 % 1016,6 hPa 0,0 l/m 10,5 km/h (2 Bft) SW 218 0 min 0,000 mm 0,0 UV-I 59 W/m 18,0 C 17,1 C 14,5 km/h (3 Bft) 97,87 %
24.07.2016 07:56 18,8 C 95 % 1016,6 hPa 0,0 l/m 11,4 km/h (2 Bft) W-SW 244 0 min 0,000 mm 0,0 UV-I 65 W/m 18,0 C 16,8 C 14,5 km/h (3 Bft) 97,87 %
24.07.2016 07:58 18,7 C 95 % 1016,6 hPa 0,0 l/m 10,3 km/h (2 Bft) SW 225 0 min 0,000 mm 0,0 UV-I 72 W/m 17,9 C 17,1 C 14,5 km/h (3 Bft) 97,87 %
24.07.2016 08:00 18,8 C 95 % 1016,6 hPa 0,0 l/m 9,4 km/h (2 Bft) SW 227 0 min 0,051 mm 0,0 UV-I 78 W/m 18,0 C 17,5 C 16,1 km/h (3 Bft) 97,87 %
24.07.2016 08:02 18,8 C 95 % 1016,6 hPa 0,0 l/m 6,6 km/h (2 Bft) SW 221 0 min 0,000 mm 0,0 UV-I 81 W/m 18,0 C 18,7 C 11,3 km/h (2 Bft) 100,00 %
24.07.2016 08:04 18,8 C 95 % 1016,6 hPa 0,0 l/m 7,6 km/h (2 Bft) SW 226 0 min 0,000 mm 0,0 UV-I 82 W/m 18,0 C 18,3 C 14,5 km/h (3 Bft) 95,74 %
24.07.2016 08:06 18,8 C 95 % 1016,6 hPa 0,0 l/m 10,1 km/h (2 Bft) W-SW 239 0 min 0,000 mm 0,0 UV-I 84 W/m 18,0 C 17,3 C 12,9 km/h (3 Bft) 98,00 %
24.07.2016 08:08 18,8 C 95 % 1016,6 hPa 0,0 l/m 7,2 km/h (2 Bft) SW 229 0 min 0,000 mm 0,0 UV-I 86 W/m 18,0 C 18,4 C 11,3 km/h (2 Bft) 100,00 %
24.07.2016 08:10 18,8 C 95 % 1016,6 hPa 0,0 l/m 8,3 km/h (2 Bft) W-SW 242 0 min 0,000 mm 0,0 UV-I 87 W/m 18,0 C 18,0 C 12,9 km/h (3 Bft) 100,00 %
24.07.2016 08:12 18,9 C 95 % 1016,6 hPa 0,0 l/m 8,3 km/h (2 Bft) W-SW 240 0 min 0,000 mm 0,0 UV-I 89 W/m 18,1 C 18,1 C 12,9 km/h (3 Bft) 100,00 %
24.07.2016 08:14 18,9 C 95 % 1016,6 hPa 0,0 l/m 8,5 km/h (2 Bft) SW 229 0 min 0,000 mm 0,0 UV-I 90 W/m 18,1 C 18,0 C 14,5 km/h (3 Bft) 100,00 %
24.07.2016 08:16 18,9 C 95 % 1016,7 hPa 0,0 l/m 7,7 km/h (2 Bft) S-SW 203 0 min 0,000 mm 0,0 UV-I 88 W/m 18,1 C 18,3 C 12,9 km/h (3 Bft) 100,00 %
24.07.2016 08:18 19,0 C 95 % 1016,7 hPa 0,0 l/m 8,4 km/h (2 Bft) S-SW 213 0 min 0,000 mm 0,0 UV-I 80 W/m 18,2 C 18,1 C 12,9 km/h (3 Bft) 100,00 %
24.07.2016 08:20 19,0 C 95 % 1016,7 hPa 0,0 l/m 10,0 km/h (2 Bft) W-SW 244 0 min 0,000 mm 0,0 UV-I 69 W/m 18,2 C 17,5 C 19,3 km/h (3 Bft) 100,00 %
24.07.2016 08:22 19,0 C 94 % 1016,8 hPa 0,0 l/m 9,6 km/h (2 Bft) SW 220 0 min 0,000 mm 0,0 UV-I 61 W/m 18,0 C 17,7 C 17,7 km/h (3 Bft) 100,00 %
24.07.2016 08:24 19,1 C 94 % 1016,8 hPa 0,0 l/m 7,4 km/h (2 Bft) SW 236 0 min 0,000 mm 0,0 UV-I 62 W/m 18,1 C 18,7 C 12,9 km/h (3 Bft) 100,00 %
24.07.2016 08:26 19,1 C 94 % 1016,8 hPa 0,0 l/m 8,3 km/h (2 Bft) W-SW 254 0 min 0,000 mm 0,0 UV-I 56 W/m 18,1 C 18,3 C 12,9 km/h (3 Bft) 100,00 %
24.07.2016 08:28 19,1 C 94 % 1016,8 hPa 0,0 l/m 9,5 km/h (2 Bft) S-SW 202 0 min 0,000 mm 0,0 UV-I 48 W/m 18,1 C 17,8 C 14,5 km/h (3 Bft) 100,00 %
24.07.2016 08:30 19,1 C 94 % 1016,8 hPa 0,0 l/m 10,1 km/h (2 Bft) W-SW 245 0 min 0,000 mm 0,0 UV-I 46 W/m 18,1 C 17,6 C 17,7 km/h (3 Bft) 100,00 %
24.07.2016 08:32 19,1 C 94 % 1016,8 hPa 0,0 l/m 7,4 km/h (2 Bft) SW 227 0 min 0,000 mm 0,0 UV-I 51 W/m 18,1 C 18,7 C 11,3 km/h (2 Bft) 100,00 %
24.07.2016 08:34 19,1 C 94 % 1016,8 hPa 0,0 l/m 7,4 km/h (2 Bft) W-SW 240 0 min 0,000 mm 0,0 UV-I 56 W/m 18,1 C 18,7 C 16,1 km/h (3 Bft) 100,00 %
24.07.2016 08:36 19,1 C 93 % 1016,8 hPa 0,0 l/m 8,5 km/h (2 Bft) W-SW 247 0 min 0,000 mm 0,0 UV-I 66 W/m 17,9 C 18,2 C 12,9 km/h (3 Bft) 100,00 %
24.07.2016 08:38 19,1 C 94 % 1016,8 hPa 0,0 l/m 6,8 km/h (2 Bft) SW 232 0 min 0,000 mm 0,0 UV-I 78 W/m 18,1 C 18,9 C 11,3 km/h (2 Bft) 100,00 %
24.07.2016 08:40 19,1 C 94 % 1016,8 hPa 0,0 l/m 9,0 km/h (2 Bft) SW 221 0 min 0,000 mm 0,1 UV-I 87 W/m 18,1 C 18,0 C 14,5 km/h (3 Bft) 95,74 %
24.07.2016 08:42 19,1 C 93 % 1016,8 hPa 0,0 l/m 7,5 km/h (2 Bft) SW 232 0 min 0,000 mm 0,5 UV-I 91 W/m 17,9 C 18,6 C 12,9 km/h (3 Bft) 100,00 %
24.07.2016 08:44 19,2 C 93 % 1016,8 hPa 0,0 l/m 5,0 km/h (1 Bft) SW 215 0 min 0,000 mm 0,5 UV-I 95 W/m 18,0 C 19,2 C 6,4 km/h (2 Bft) 100,00 %
24.07.2016 08:46 19,2 C 93 % 1016,8 hPa 0,0 l/m 6,6 km/h (2 Bft) SW 221 0 min 0,000 mm 0,5 UV-I 100 W/m 18,0 C 19,1 C 11,3 km/h (2 Bft) 97,87 %
24.07.2016 08:48 19,2 C 93 % 1016,9 hPa 0,0 l/m 6,0 km/h (2 Bft) S-SW 207 0 min 0,000 mm 0,6 UV-I 109 W/m 18,0 C 19,2 C 11,3 km/h (2 Bft) 100,00 %
24.07.2016 08:50 19,2 C 93 % 1016,8 hPa 0,0 l/m 7,6 km/h (2 Bft) SW 216 0 min 0,000 mm 0,6 UV-I 113 W/m 18,0 C 18,7 C 11,3 km/h (2 Bft) 100,00 %
24.07.2016 08:52 19,2 C 93 % 1016,8 hPa 0,0 l/m 9,6 km/h (2 Bft) W-SW 244 0 min 0,000 mm 0,6 UV-I 113 W/m 18,0 C 17,9 C 17,7 km/h (3 Bft) 97,87 %
24.07.2016 08:54 19,3 C 94 % 1016,9 hPa 0,0 l/m 9,6 km/h (2 Bft) S-SW 202 0 min 0,000 mm 0,6 UV-I 111 W/m 18,3 C 18,0 C 14,5 km/h (3 Bft) 100,00 %
24.07.2016 08:56 19,3 C 93 % 1016,8 hPa 0,0 l/m 10,8 km/h (2 Bft) SW 221 0 min 0,000 mm 0,6 UV-I 111 W/m 18,1 C 17,6 C 14,5 km/h (3 Bft) 100,00 %
24.07.2016 08:58 19,3 C 93 % 1016,8 hPa 0,0 l/m 7,6 km/h (2 Bft) W-SW 242 0 min 0,000 mm 0,6 UV-I 111 W/m 18,1 C 18,8 C 16,1 km/h (3 Bft) 100,00 %
24.07.2016 09:00 19,4 C 93 % 1016,8 hPa 0,0 l/m 10,3 km/h (2 Bft) SW 228 0 min 0,051 mm 0,6 UV-I 111 W/m 18,2 C 17,9 C 14,5 km/h (3 Bft) 95,74 %
24.07.2016 09:02 19,4 C 93 % 1016,9 hPa 0,0 l/m 6,1 km/h (2 Bft) SW 221 0 min 0,000 mm 0,6 UV-I 111 W/m 18,2 C 19,4 C 9,7 km/h (2 Bft) 100,00 %
24.07.2016 09:04 19,4 C 93 % 1016,9 hPa 0,0 l/m 6,9 km/h (2 Bft) W-SW 251 0 min 0,000 mm 0,6 UV-I 110 W/m 18,2 C 19,2 C 11,3 km/h (2 Bft) 97,37 %
24.07.2016 09:06 19,4 C 93 % 1016,9 hPa 0,0 l/m 4,4 km/h (1 Bft) SW 219 0 min 0,000 mm 0,6 UV-I 108 W/m 18,2 C 19,4 C 8,0 km/h (2 Bft) 98,04 %
24.07.2016 09:08 19,4 C 93 % 1016,9 hPa 0,0 l/m 6,0 km/h (2 Bft) S-SW 213 0 min 0,000 mm 0,6 UV-I 106 W/m 18,2 C 19,4 C 11,3 km/h (2 Bft) 95,74 %
24.07.2016 09:10 19,4 C 92 % 1016,9 hPa 0,0 l/m 6,7 km/h (2 Bft) SW 236 0 min 0,000 mm 0,6 UV-I 105 W/m 18,1 C 19,3 C 9,7 km/h (2 Bft) 97,87 %
24.07.2016 09:12 19,5 C 92 % 1016,8 hPa 0,0 l/m 7,1 km/h (2 Bft) S-SW 205 0 min 0,000 mm 0,6 UV-I 103 W/m 18,2 C 19,2 C 9,7 km/h (2 Bft) 97,87 %
24.07.2016 09:14 19,5 C 92 % 1016,8 hPa 0,0 l/m 8,3 km/h (2 Bft) S-SW 209 0 min 0,000 mm 0,6 UV-I 102 W/m 18,2 C 18,7 C 14,5 km/h (3 Bft) 97,87 %
24.07.2016 09:16 19,5 C 91 % 1016,9 hPa 0,0 l/m 7,7 km/h (2 Bft) S 186 0 min 0,000 mm 0,6 UV-I 102 W/m 18,0 C 18,9 C 12,9 km/h (3 Bft) 97,87 %
24.07.2016 09:18 19,5 C 91 % 1016,8 hPa 0,0 l/m 9,0 km/h (2 Bft) W-SW 242 0 min 0,000 mm 0,6 UV-I 102 W/m 18,0 C 18,4 C 12,9 km/h (3 Bft) 98,00 %
24.07.2016 09:20 19,6 C 91 % 1016,8 hPa 0,0 l/m 9,7 km/h (2 Bft) S-SW 192 0 min 0,000 mm 0,7 UV-I 107 W/m 18,1 C 18,3 C 14,5 km/h (3 Bft) 97,87 %
24.07.2016 09:22 19,6 C 91 % 1016,9 hPa 0,0 l/m 8,9 km/h (2 Bft) S-SW 209 0 min 0,000 mm 0,7 UV-I 115 W/m 18,1 C 18,6 C 11,3 km/h (2 Bft) 97,87 %
24.07.2016 09:24 19,6 C 90 % 1016,9 hPa 0,0 l/m 8,9 km/h (2 Bft) W-SW 238 0 min 0,000 mm 0,8 UV-I 126 W/m 17,9 C 18,6 C 14,5 km/h (3 Bft) 95,74 %
24.07.2016 09:26 19,6 C 90 % 1016,8 hPa 0,0 l/m 9,1 km/h (2 Bft) W-SW 238 0 min 0,000 mm 0,9 UV-I 135 W/m 17,9 C 18,5 C 14,5 km/h (3 Bft) 97,87 %
24.07.2016 09:28 19,7 C 90 % 1016,8 hPa 0,0 l/m 9,3 km/h (2 Bft) W 261 0 min 0,000 mm 0,9 UV-I 142 W/m 18,0 C 18,6 C 16,1 km/h (3 Bft) 97,87 %
24.07.2016 09:30 19,7 C 91 % 1016,8 hPa 0,0 l/m 7,5 km/h (2 Bft) SW 220 0 min 0,000 mm 1,0 UV-I 147 W/m 18,2 C 19,2 C 16,1 km/h (3 Bft) 95,74 %
24.07.2016 09:32 19,7 C 90 % 1016,9 hPa 0,0 l/m 8,4 km/h (2 Bft) W-SW 252 0 min 0,000 mm 1,0 UV-I 153 W/m 18,0 C 18,9 C 14,5 km/h (3 Bft) 97,87 %
24.07.2016 09:34 19,8 C 91 % 1016,8 hPa 0,0 l/m 8,3 km/h (2 Bft) W-SW 249 0 min 0,000 mm 1,1 UV-I 159 W/m 18,3 C 19,0 C 11,3 km/h (2 Bft) 95,12 %
24.07.2016 09:36 19,8 C 91 % 1016,8 hPa 0,0 l/m 7,3 km/h (2 Bft) W-SW 238 0 min 0,000 mm 1,1 UV-I 171 W/m 18,3 C 19,4 C 12,9 km/h (3 Bft) 97,92 %
24.07.2016 09:38 19,9 C 90 % 1016,8 hPa 0,0 l/m 9,4 km/h (2 Bft) W-SW 238 0 min 0,000 mm 1,2 UV-I 191 W/m 18,2 C 18,7 C 12,9 km/h (3 Bft) 100,00 %
24.07.2016 09:40 19,9 C 91 % 1016,8 hPa 0,0 l/m 9,1 km/h (2 Bft) W-SW 247 0 min 0,000 mm 1,3 UV-I 209 W/m 18,4 C 18,8 C 16,1 km/h (3 Bft) 97,87 %
24.07.2016 09:42 20,0 C 90 % 1016,8 hPa 0,0 l/m 6,9 km/h (2 Bft) W-SW 239 0 min 0,000 mm 1,3 UV-I 222 W/m 18,3 C 19,8 C 11,3 km/h (2 Bft) 100,00 %
24.07.2016 09:44 20,1 C 90 % 1016,9 hPa 0,0 l/m 4,0 km/h (1 Bft) SW 230 0 min 0,000 mm 1,4 UV-I 221 W/m 18,4 C 20,1 C 6,4 km/h (2 Bft) 97,87 %
24.07.2016 09:46 20,1 C 90 % 1016,8 hPa 0,0 l/m 6,5 km/h (2 Bft) W-SW 250 0 min 0,000 mm 1,3 UV-I 212 W/m 18,4 C 20,1 C 11,3 km/h (2 Bft) 98,00 %
24.07.2016 09:48 20,2 C 90 % 1016,9 hPa 0,0 l/m 5,6 km/h (1 Bft) W-SW 243 0 min 0,000 mm 1,3 UV-I 198 W/m 18,5 C 20,2 C 9,7 km/h (2 Bft) 93,62 %
24.07.2016 09:50 20,2 C 90 % 1016,9 hPa 0,0 l/m 5,2 km/h (1 Bft) W-SW 246 0 min 0,000 mm 1,3 UV-I 194 W/m 18,5 C 20,2 C 9,7 km/h (2 Bft) 97,87 %
24.07.2016 09:52 20,2 C 90 % 1017,0 hPa 0,0 l/m 5,1 km/h (1 Bft) W 271 0 min 0,000 mm 1,4 UV-I 208 W/m 18,5 C 20,2 C 9,7 km/h (2 Bft) 100,00 %
24.07.2016 09:54 20,3 C 90 % 1017,0 hPa 0,0 l/m 6,2 km/h (2 Bft) W-SW 251 0 min 0,000 mm 1,5 UV-I 239 W/m 18,6 C 20,3 C 9,7 km/h (2 Bft) 100,00 %
24.07.2016 09:56 20,3 C 90 % 1017,0 hPa 0,0 l/m 2,7 km/h (1 Bft) W-SW 256 0 min 0,000 mm 1,6 UV-I 260 W/m 18,6 C 20,3 C 4,8 km/h (1 Bft) 100,00 %
24.07.2016 09:58 20,4 C 89 % 1017,0 hPa 0,0 l/m 7,2 km/h (2 Bft) SW 233 0 min 0,000 mm 1,6 UV-I 272 W/m 18,5 C 20,1 C 11,3 km/h (2 Bft) 100,00 %
24.07.2016 10:00 20,4 C 89 % 1017,0 hPa 0,0 l/m 6,7 km/h (2 Bft) W 272 0 min 0,000 mm 1,7 UV-I 274 W/m 18,5 C 20,3 C 9,7 km/h (2 Bft) 100,00 %
24.07.2016 10:02 20,5 C 89 % 1017,0 hPa 0,0 l/m 5,1 km/h (1 Bft) W-NW 286 0 min 0,102 mm 1,7 UV-I 272 W/m 18,6 C 20,5 C 11,3 km/h (2 Bft) 100,00 %
24.07.2016 10:04 20,6 C 88 % 1017,0 hPa 0,0 l/m 7,6 km/h (2 Bft) W-SW 238 0 min 0,000 mm 1,7 UV-I 276 W/m 18,5 C 20,1 C 14,5 km/h (3 Bft) 100,00 %
24.07.2016 10:06 20,6 C 88 % 1017,0 hPa 0,0 l/m 7,6 km/h (2 Bft) W-SW 238 0 min 0,000 mm 1,8 UV-I 285 W/m 18,5 C 20,1 C 12,9 km/h (3 Bft) 97,87 %
24.07.2016 10:08 20,7 C 88 % 1017,0 hPa 0,0 l/m 6,3 km/h (2 Bft) W-NW 297 0 min 0,000 mm 1,8 UV-I 287 W/m 18,6 C 20,7 C 9,7 km/h (2 Bft) 97,87 %
24.07.2016 10:10 20,7 C 89 % 1017,0 hPa 0,0 l/m 5,1 km/h (1 Bft) W-SW 247 0 min 0,000 mm 1,8 UV-I 283 W/m 18,8 C 20,7 C 11,3 km/h (2 Bft) 100,00 %
24.07.2016 10:12 20,8 C 88 % 1017,0 hPa 0,0 l/m 4,7 km/h (1 Bft) W-SW 243 0 min 0,000 mm 1,8 UV-I 269 W/m 18,7 C 20,8 C 6,4 km/h (2 Bft) 100,00 %
24.07.2016 10:14 20,8 C 88 % 1017,0 hPa 0,0 l/m 8,4 km/h (2 Bft) SW 233 0 min 0,000 mm 1,7 UV-I 246 W/m 18,7 C 20,0 C 14,5 km/h (3 Bft) 100,00 %
24.07.2016 10:16 20,8 C 87 % 1017,0 hPa 0,0 l/m 7,6 km/h (2 Bft) W-SW 258 0 min 0,000 mm 1,7 UV-I 225 W/m 18,6 C 20,3 C 14,5 km/h (3 Bft) 98,00 %
24.07.2016 10:18 20,8 C 87 % 1017,0 hPa 0,0 l/m 7,8 km/h (2 Bft) W-SW 254 0 min 0,000 mm 1,6 UV-I 217 W/m 18,6 C 20,3 C 12,9 km/h (3 Bft) 98,00 %
24.07.2016 10:20 20,8 C 88 % 1017,1 hPa 0,0 l/m 5,2 km/h (1 Bft) SW 224 0 min 0,000 mm 1,7 UV-I 226 W/m 18,7 C 20,8 C 9,7 km/h (2 Bft) 100,00 %
24.07.2016 10:22 20,8 C 88 % 1017,0 hPa 0,0 l/m 7,7 km/h (2 Bft) W-SW 238 0 min 0,000 mm 1,7 UV-I 242 W/m 18,7 C 20,3 C 14,5 km/h (3 Bft) 100,00 %
24.07.2016 10:24 20,9 C 87 % 1017,1 hPa 0,0 l/m 7,1 km/h (2 Bft) W 269 0 min 0,000 mm 1,8 UV-I 256 W/m 18,7 C 20,6 C 12,9 km/h (3 Bft) 100,00 %
24.07.2016 10:26 20,9 C 88 % 1017,1 hPa 0,0 l/m 6,2 km/h (2 Bft) W-SW 250 0 min 0,000 mm 1,9 UV-I 262 W/m 18,8 C 20,9 C 11,3 km/h (2 Bft) 100,00 %
24.07.2016 10:28 21,0 C 87 % 1017,0 hPa 0,0 l/m 9,3 km/h (2 Bft) W 265 0 min 0,000 mm 1,9 UV-I 265 W/m 18,7 C 20,0 C 14,5 km/h (3 Bft) 97,87 %
24.07.2016 10:30 21,0 C 87 % 1017,1 hPa 0,0 l/m 8,2 km/h (2 Bft) SW 216 0 min 0,000 mm 1,9 UV-I 268 W/m 18,7 C 20,3 C 12,9 km/h (3 Bft) 95,74 %
24.07.2016 10:32 21,1 C 88 % 1017,0 hPa 0,0 l/m 6,8 km/h (2 Bft) W-SW 238 0 min 0,000 mm 2,0 UV-I 268 W/m 19,0 C 21,0 C 11,3 km/h (2 Bft) 95,74 %
24.07.2016 10:34 21,1 C 87 % 1017,0 hPa 0,0 l/m 4,5 km/h (1 Bft) SW 234 0 min 0,000 mm 2,0 UV-I 268 W/m 18,8 C 21,1 C 9,7 km/h (2 Bft) 97,87 %
24.07.2016 10:36 21,2 C 87 % 1017,0 hPa 0,0 l/m 4,7 km/h (1 Bft) W 263 0 min 0,000 mm 2,1 UV-I 278 W/m 18,9 C 21,2 C 8,0 km/h (2 Bft) 97,87 %
24.07.2016 10:38 21,2 C 86 % 1017,0 hPa 0,0 l/m 8,0 km/h (2 Bft) SW 229 0 min 0,000 mm 2,2 UV-I 292 W/m 18,8 C 20,6 C 12,9 km/h (3 Bft) 97,87 %
24.07.2016 10:40 21,2 C 87 % 1017,1 hPa 0,0 l/m 5,3 km/h (1 Bft) S 169 0 min 0,000 mm 2,2 UV-I 305 W/m 18,9 C 21,2 C 8,0 km/h (2 Bft) 100,00 %
24.07.2016 10:42 21,3 C 86 % 1017,0 hPa 0,0 l/m 6,1 km/h (2 Bft) SW 215 0 min 0,000 mm 2,3 UV-I 310 W/m 18,9 C 21,3 C 9,7 km/h (2 Bft) 100,00 %
24.07.2016 10:44 21,3 C 86 % 1017,1 hPa 0,0 l/m 4,5 km/h (1 Bft) S-SW 204 0 min 0,000 mm 2,3 UV-I 314 W/m 18,9 C 21,3 C 9,7 km/h (2 Bft) 100,00 %
24.07.2016 10:46 21,3 C 86 % 1017,1 hPa 0,0 l/m 7,3 km/h (2 Bft) S 173 0 min 0,000 mm 2,4 UV-I 317 W/m 18,9 C 21,0 C 11,3 km/h (2 Bft) 100,00 %
24.07.2016 10:48 21,4 C 86 % 1017,1 hPa 0,0 l/m 6,7 km/h (2 Bft) S-SW 198 0 min 0,000 mm 2,5 UV-I 330 W/m 19,0 C 21,3 C 9,7 km/h (2 Bft) 100,00 %
24.07.2016 10:50 21,4 C 85 % 1017,1 hPa 0,0 l/m 7,6 km/h (2 Bft) SW 232 0 min 0,000 mm 2,7 UV-I 348 W/m 18,8 C 21,0 C 12,9 km/h (3 Bft) 100,00 %
24.07.2016 10:52 21,6 C 86 % 1017,1 hPa 0,0 l/m 4,9 km/h (1 Bft) W 274 0 min 0,000 mm 2,7 UV-I 364 W/m 19,2 C 21,6 C 6,4 km/h (2 Bft) 100,00 %
24.07.2016 10:54 21,6 C 85 % 1017,1 hPa 0,0 l/m 4,6 km/h (1 Bft) W-SW 247 0 min 0,000 mm 2,7 UV-I 365 W/m 19,0 C 21,6 C 9,7 km/h (2 Bft) 98,00 %
24.07.2016 10:56 21,6 C 85 % 1017,1 hPa 0,0 l/m 5,2 km/h (1 Bft) W-SW 240 0 min 0,000 mm 2,7 UV-I 360 W/m 19,0 C 21,6 C 11,3 km/h (2 Bft) 100,00 %
24.07.2016 10:58 21,7 C 84 % 1017,1 hPa 0,0 l/m 8,3 km/h (2 Bft) SW 229 0 min 0,000 mm 2,8 UV-I 381 W/m 18,9 C 21,0 C 14,5 km/h (3 Bft) 100,00 %
24.07.2016 11:00 21,7 C 84 % 1017,0 hPa 0,0 l/m 8,6 km/h (2 Bft) W-SW 244 0 min 0,177 mm 2,8 UV-I 377 W/m 18,9 C 20,9 C 14,5 km/h (3 Bft) 98,00 %
24.07.2016 11:02 21,8 C 85 % 1017,0 hPa 0,0 l/m 7,4 km/h (2 Bft) W-SW 254 0 min 0,000 mm 2,8 UV-I 365 W/m 19,2 C 21,4 C 11,3 km/h (2 Bft) 100,00 %
24.07.2016 11:04 21,8 C 83 % 1017,0 hPa 0,0 l/m 6,5 km/h (2 Bft) SW 224 0 min 0,000 mm 2,8 UV-I 373 W/m 18,8 C 21,8 C 11,3 km/h (2 Bft) 97,87 %
24.07.2016 11:06 21,8 C 83 % 1017,1 hPa 0,0 l/m 7,6 km/h (2 Bft) S-SW 202 0 min 0,000 mm 2,8 UV-I 370 W/m 18,8 C 21,4 C 12,9 km/h (3 Bft) 95,74 %
24.07.2016 11:08 21,8 C 84 % 1017,0 hPa 0,0 l/m 7,9 km/h (2 Bft) W-SW 243 0 min 0,000 mm 2,8 UV-I 364 W/m 19,0 C 21,3 C 12,9 km/h (3 Bft) 93,62 %
24.07.2016 11:10 21,8 C 83 % 1017,0 hPa 0,0 l/m 8,7 km/h (2 Bft) W-SW 249 0 min 0,000 mm 2,8 UV-I 360 W/m 18,8 C 21,0 C 12,9 km/h (3 Bft) 98,00 %
24.07.2016 11:12 21,9 C 84 % 1017,0 hPa 0,0 l/m 8,2 km/h (2 Bft) SW 227 0 min 0,000 mm 2,8 UV-I 357 W/m 19,1 C 21,3 C 12,9 km/h (3 Bft) 97,87 %
24.07.2016 11:14 21,9 C 83 % 1017,0 hPa 0,0 l/m 8,9 km/h (2 Bft) SW 214 0 min 0,000 mm 2,9 UV-I 368 W/m 18,9 C 21,1 C 12,9 km/h (3 Bft) 95,74 %
24.07.2016 11:16 21,9 C 83 % 1017,0 hPa 0,0 l/m 11,0 km/h (2 Bft) W-SW 240 0 min 0,000 mm 3,1 UV-I 388 W/m 18,9 C 20,5 C 17,7 km/h (3 Bft) 97,87 %
24.07.2016 11:18 22,0 C 83 % 1017,0 hPa 0,0 l/m 6,7 km/h (2 Bft) W 275 0 min 0,000 mm 3,3 UV-I 414 W/m 19,0 C 21,9 C 12,9 km/h (3 Bft) 93,62 %
24.07.2016 11:20 22,1 C 85 % 1017,0 hPa 0,0 l/m 4,3 km/h (1 Bft) SW 232 0 min 0,000 mm 3,3 UV-I 434 W/m 19,5 C 22,1 C 9,7 km/h (2 Bft) 97,14 %
24.07.2016 11:22 22,2 C 83 % 1017,0 hPa 0,0 l/m 5,5 km/h (1 Bft) SW 227 2 min 0,000 mm 3,5 UV-I 450 W/m 19,2 C 22,2 C 11,3 km/h (2 Bft) 95,74 %
24.07.2016 11:24 22,2 C 81 % 1017,0 hPa 0,0 l/m 7,3 km/h (2 Bft) W-SW 237 2 min 0,000 mm 3,6 UV-I 468 W/m 18,8 C 21,9 C 11,3 km/h (2 Bft) 97,87 %
24.07.2016 11:26 22,2 C 82 % 1017,0 hPa 0,0 l/m 3,9 km/h (1 Bft) S-SW 209 2 min 0,000 mm 3,9 UV-I 525 W/m 19,0 C 22,2 C 8,0 km/h (2 Bft) 96,00 %
24.07.2016 11:28 22,3 C 82 % 1017,0 hPa 0,0 l/m 5,7 km/h (1 Bft) W-NW 285 2 min 0,000 mm 4,1 UV-I 523 W/m 19,1 C 22,3 C 9,7 km/h (2 Bft) 95,74 %
24.07.2016 11:30 22,3 C 83 % 1016,9 hPa 0,0 l/m 4,7 km/h (1 Bft) W-NW 289 2 min 0,000 mm 3,8 UV-I 488 W/m 19,3 C 22,3 C 6,4 km/h (2 Bft) 95,74 %
24.07.2016 11:32 22,4 C 82 % 1017,0 hPa 0,0 l/m 1,8 km/h (1 Bft) W-NW 289 2 min 0,000 mm 3,8 UV-I 480 W/m 19,2 C 22,4 C 3,2 km/h (1 Bft) 95,74 %
24.07.2016 11:34 22,5 C 80 % 1016,9 hPa 0,0 l/m 5,5 km/h (1 Bft) W 272 2 min 0,000 mm 3,8 UV-I 473 W/m 18,9 C 22,5 C 12,9 km/h (3 Bft) 95,74 %
24.07.2016 11:36 22,6 C 81 % 1016,9 hPa 0,0 l/m 8,9 km/h (2 Bft) W-NW 290 2 min 0,000 mm 3,8 UV-I 475 W/m 19,2 C 21,8 C 14,5 km/h (3 Bft) 97,92 %
24.07.2016 11:38 22,6 C 80 % 1016,9 hPa 0,0 l/m 6,6 km/h (2 Bft) W-SW 247 2 min 0,000 mm 3,8 UV-I 478 W/m 19,0 C 22,5 C 12,9 km/h (3 Bft) 100,00 %
24.07.2016 11:40 22,5 C 79 % 1016,9 hPa 0,0 l/m 8,9 km/h (2 Bft) W-SW 257 2 min 0,000 mm 4,0 UV-I 491 W/m 18,7 C 21,7 C 12,9 km/h (3 Bft) 100,00 %
24.07.2016 11:42 22,4 C 79 % 1016,9 hPa 0,0 l/m 8,8 km/h (2 Bft) W 262 2 min 0,000 mm 4,1 UV-I 526 W/m 18,6 C 21,6 C 12,9 km/h (3 Bft) 97,87 %
24.07.2016 11:44 22,6 C 80 % 1016,8 hPa 0,0 l/m 2,9 km/h (1 Bft) SW 234 2 min 0,000 mm 4,7 UV-I 604 W/m 19,0 C 22,6 C 6,4 km/h (2 Bft) 100,00 %
24.07.2016 11:46 22,8 C 82 % 1016,8 hPa 0,0 l/m 5,0 km/h (1 Bft) SW 226 2 min 0,000 mm 4,5 UV-I 574 W/m 19,6 C 22,8 C 9,7 km/h (2 Bft) 100,00 %
24.07.2016 11:48 22,8 C 79 % 1016,8 hPa 0,0 l/m 11,3 km/h (2 Bft) W-SW 240 2 min 0,000 mm 4,8 UV-I 595 W/m 19,0 C 21,4 C 16,1 km/h (3 Bft) 97,87 %
24.07.2016 11:50 22,9 C 80 % 1016,8 hPa 0,0 l/m 6,2 km/h (2 Bft) W 265 2 min 0,000 mm 5,0 UV-I 631 W/m 19,3 C 22,9 C 12,9 km/h (3 Bft) 97,87 %
24.07.2016 11:52 23,1 C 78 % 1016,8 hPa 0,0 l/m 4,7 km/h (1 Bft) W-SW 253 2 min 0,000 mm 4,9 UV-I 599 W/m 19,0 C 23,1 C 8,0 km/h (2 Bft) 100,00 %
24.07.2016 11:54 23,1 C 80 % 1016,8 hPa 0,0 l/m 6,3 km/h (2 Bft) W-SW 241 2 min 0,000 mm 4,8 UV-I 584 W/m 19,5 C 23,1 C 12,9 km/h (3 Bft) 97,87 %
24.07.2016 11:56 23,1 C 79 % 1016,8 hPa 0,0 l/m 10,2 km/h (2 Bft) W 278 2 min 0,000 mm 4,6 UV-I 538 W/m 19,3 C 22,0 C 12,9 km/h (3 Bft) 100,00 %
24.07.2016 11:58 23,0 C 78 % 1016,8 hPa 0,0 l/m 6,0 km/h (2 Bft) W-NW 294 2 min 0,000 mm 4,7 UV-I 553 W/m 18,9 C 23,0 C 14,5 km/h (3 Bft) 100,00 %
24.07.2016 12:00 22,9 C 78 % 1016,8 hPa 0,0 l/m 5,7 km/h (1 Bft) W-NW 294 2 min 0,305 mm 4,7 UV-I 550 W/m 18,9 C 22,9 C 9,7 km/h (2 Bft) 100,00 %
24.07.2016 12:02 22,9 C 80 % 1016,8 hPa 0,0 l/m 2,5 km/h (1 Bft) SW 234 2 min 0,000 mm 4,8 UV-I 556 W/m 19,3 C 22,9 C 4,8 km/h (1 Bft) 100,00 %
24.07.2016 12:04 23,2 C 79 % 1016,8 hPa 0,0 l/m 4,5 km/h (1 Bft) S-SW 205 2 min 0,000 mm 4,9 UV-I 583 W/m 19,3 C 23,2 C 14,5 km/h (3 Bft) 97,87 %
24.07.2016 12:06 23,2 C 77 % 1016,8 hPa 0,0 l/m 9,5 km/h (2 Bft) SW 235 2 min 0,000 mm 5,1 UV-I 644 W/m 18,9 C 22,3 C 14,5 km/h (3 Bft) 100,00 %
24.07.2016 12:08 23,3 C 79 % 1016,8 hPa 0,0 l/m 5,0 km/h (1 Bft) S-SW 211 2 min 0,000 mm 5,2 UV-I 652 W/m 19,4 C 23,3 C 11,3 km/h (2 Bft) 100,00 %
24.07.2016 12:10 23,2 C 78 % 1016,8 hPa 0,0 l/m 5,7 km/h (1 Bft) S 175 2 min 0,000 mm 5,2 UV-I 635 W/m 19,1 C 23,2 C 9,7 km/h (2 Bft) 100,00 %
24.07.2016 12:12 23,2 C 77 % 1016,8 hPa 0,0 l/m 4,4 km/h (1 Bft) W-SW 252 2 min 0,000 mm 5,0 UV-I 605 W/m 18,9 C 23,2 C 9,7 km/h (2 Bft) 100,00 %
24.07.2016 12:14 23,3 C 80 % 1016,8 hPa 0,0 l/m 1,3 km/h (1 Bft) W-SW 254 2 min 0,000 mm 4,6 UV-I 528 W/m 19,6 C 23,3 C 6,4 km/h (2 Bft) 100,00 %
24.07.2016 12:16 23,4 C 78 % 1016,7 hPa 0,0 l/m 5,6 km/h (1 Bft) S 188 2 min 0,000 mm 4,4 UV-I 500 W/m 19,3 C 23,4 C 9,7 km/h (2 Bft) 100,00 %
24.07.2016 12:18 23,4 C 77 % 1016,8 hPa 0,0 l/m 6,2 km/h (2 Bft) W-SW 240 2 min 0,000 mm 4,4 UV-I 493 W/m 19,1 C 23,4 C 11,3 km/h (2 Bft) 100,00 %
24.07.2016 12:20 23,4 C 78 % 1016,7 hPa 0,0 l/m 5,6 km/h (1 Bft) W-SW 238 2 min 0,000 mm 4,7 UV-I 527 W/m 19,3 C 23,4 C 11,3 km/h (2 Bft) 97,87 %
24.07.2016 12:22 23,4 C 76 % 1016,7 hPa 0,0 l/m 3,5 km/h (1 Bft) W-SW 252 2 min 0,000 mm 4,7 UV-I 548 W/m 18,9 C 23,4 C 8,0 km/h (2 Bft) 100,00 %
24.07.2016 12:24 23,4 C 77 % 1016,7 hPa 0,0 l/m 4,8 km/h (1 Bft) W 262 2 min 0,000 mm 4,2 UV-I 484 W/m 19,1 C 23,4 C 9,7 km/h (2 Bft) 100,00 %
24.07.2016 12:26 23,4 C 80 % 1016,7 hPa 0,0 l/m 5,5 km/h (1 Bft) S 175 0 min 0,000 mm 4,2 UV-I 443 W/m 19,7 C 23,4 C 9,7 km/h (2 Bft) 97,87 %
24.07.2016 12:28 23,6 C 77 % 1016,7 hPa 0,0 l/m 6,4 km/h (2 Bft) S-SW 213 0 min 0,000 mm 4,6 UV-I 452 W/m 19,3 C 23,6 C 11,3 km/h (2 Bft) 97,87 %
24.07.2016 12:30 23,6 C 77 % 1016,7 hPa 0,0 l/m 6,5 km/h (2 Bft) W-SW 241 0 min 0,000 mm 5,6 UV-I 468 W/m 19,3 C 23,6 C 12,9 km/h (3 Bft) 97,37 %
24.07.2016 12:32 23,8 C 77 % 1016,7 hPa 0,0 l/m 7,9 km/h (2 Bft) W-SW 238 2 min 0,000 mm 6,2 UV-I 707 W/m 19,5 C 23,4 C 12,9 km/h (3 Bft) 100,00 %
24.07.2016 12:34 23,8 C 74 % 1016,7 hPa 0,0 l/m 11,7 km/h (2 Bft) W-NW 289 2 min 0,000 mm 5,8 UV-I 877 W/m 18,9 C 22,5 C 20,9 km/h (4 Bft) 97,87 %
24.07.2016 12:36 23,8 C 75 % 1016,7 hPa 0,0 l/m 4,0 km/h (1 Bft) W 268 2 min 0,000 mm 6,6 UV-I 941 W/m 19,1 C 23,8 C 9,7 km/h (2 Bft) 100,00 %
24.07.2016 12:38 23,9 C 77 % 1016,7 hPa 0,0 l/m 5,4 km/h (1 Bft) W-NW 293 2 min 0,000 mm 7,0 UV-I 1003 W/m 19,6 C 23,9 C 12,9 km/h (3 Bft) 95,74 %
24.07.2016 12:40 24,3 C 76 % 1016,6 hPa 0,0 l/m 6,0 km/h (2 Bft) W-SW 254 2 min 0,000 mm 6,9 UV-I 1005 W/m 19,8 C 24,3 C 12,9 km/h (3 Bft) 100,00 %
24.07.2016 12:42 24,4 C 75 % 1016,6 hPa 0,0 l/m 9,8 km/h (2 Bft) SW 232 2 min 0,000 mm 6,5 UV-I 822 W/m 19,7 C 23,5 C 16,1 km/h (3 Bft) 100,00 %
24.07.2016 12:44 24,5 C 75 % 1016,7 hPa 0,0 l/m 10,2 km/h (2 Bft) W 261 2 min 0,000 mm 5,9 UV-I 924 W/m 19,8 C 23,6 C 16,1 km/h (3 Bft) 100,00 %
24.07.2016 12:46 24,4 C 73 % 1016,6 hPa 0,0 l/m 7,2 km/h (2 Bft) W-SW 248 2 min 0,000 mm 5,3 UV-I 747 W/m 19,2 C 24,2 C 12,9 km/h (3 Bft) 100,00 %
24.07.2016 12:48 24,3 C 72 % 1016,6 hPa 0,0 l/m 8,4 km/h (2 Bft) SW 236 0 min 0,000 mm 5,8 UV-I 426 W/m 18,9 C 23,8 C 14,5 km/h (3 Bft) 100,00 %
24.07.2016 12:50 24,3 C 74 % 1016,6 hPa 0,0 l/m 7,5 km/h (2 Bft) W-SW 246 2 min 0,000 mm 6,7 UV-I 801 W/m 19,4 C 24,0 C 12,9 km/h (3 Bft) 100,00 %
24.07.2016 12:52 24,3 C 72 % 1016,6 hPa 0,0 l/m 5,8 km/h (2 Bft) SW 225 2 min 0,000 mm 6,3 UV-I 1039 W/m 18,9 C 24,3 C 9,7 km/h (2 Bft) 97,92 %
24.07.2016 12:54 24,1 C 72 % 1016,6 hPa 0,0 l/m 6,8 km/h (2 Bft) W-SW 254 0 min 0,000 mm 4,3 UV-I 424 W/m 18,7 C 24,0 C 12,9 km/h (3 Bft) 100,00 %
24.07.2016 12:56 24,0 C 74 % 1016,6 hPa 0,0 l/m 6,4 km/h (2 Bft) W-SW 254 0 min 0,000 mm 5,6 UV-I 443 W/m 19,1 C 24,0 C 14,5 km/h (3 Bft) 100,00 %
24.07.2016 12:58 24,2 C 74 % 1016,6 hPa 0,0 l/m 9,5 km/h (2 Bft) W-SW 238 2 min 0,000 mm 6,8 UV-I 640 W/m 19,3 C 23,4 C 14,5 km/h (3 Bft) 100,00 %
24.07.2016 13:00 24,4 C 72 % 1016,6 hPa 0,0 l/m 9,7 km/h (2 Bft) SW 221 2 min 0,000 mm 7,2 UV-I 1016 W/m 19,0 C 23,6 C 16,1 km/h (3 Bft) 96,00 %
24.07.2016 13:02 24,5 C 71 % 1016,5 hPa 0,0 l/m 8,3 km/h (2 Bft) S-SW 211 2 min 0,432 mm 7,0 UV-I 1054 W/m 18,9 C 24,0 C 12,9 km/h (3 Bft) 97,87 %
24.07.2016 13:04 24,4 C 71 % 1016,5 hPa 0,0 l/m 5,3 km/h (1 Bft) W-SW 244 2 min 0,000 mm 5,5 UV-I 556 W/m 18,8 C 24,4 C 9,7 km/h (2 Bft) 95,74 %
24.07.2016 13:06 24,6 C 74 % 1016,5 hPa 0,0 l/m 9,2 km/h (2 Bft) W-SW 252 2 min 0,000 mm 7,1 UV-I 1001 W/m 19,6 C 23,9 C 14,5 km/h (3 Bft) 95,74 %
24.07.2016 13:08 24,9 C 73 % 1016,6 hPa 0,0 l/m 8,0 km/h (2 Bft) W-NW 286 2 min 0,000 mm 7,3 UV-I 1041 W/m 19,7 C 24,5 C 12,9 km/h (3 Bft) 93,62 %
24.07.2016 13:10 25,1 C 70 % 1016,6 hPa 0,0 l/m 8,2 km/h (2 Bft) W-SW 240 2 min 0,000 mm 6,7 UV-I 1061 W/m 19,2 C 24,7 C 14,5 km/h (3 Bft) 97,87 %
24.07.2016 13:12 24,9 C 68 % 1016,6 hPa 0,0 l/m 3,3 km/h (1 Bft) SW 221 2 min 0,000 mm 4,3 UV-I 701 W/m 18,6 C 24,9 C 4,8 km/h (1 Bft) 97,37 %
24.07.2016 13:14 24,6 C 69 % 1016,6 hPa 0,0 l/m 4,0 km/h (1 Bft) S-SW 203 0 min 0,000 mm 4,2 UV-I 350 W/m 18,5 C 24,6 C 6,4 km/h (2 Bft) 93,62 %
24.07.2016 13:16 24,4 C 70 % 1016,6 hPa 0,0 l/m 1,9 km/h (1 Bft) NW 319 0 min 0,000 mm 4,2 UV-I 309 W/m 18,6 C 24,4 C 4,8 km/h (1 Bft) 97,87 %
24.07.2016 13:18 24,3 C 71 % 1016,6 hPa 0,0 l/m 2,9 km/h (1 Bft) W-NW 300 0 min 0,000 mm 5,6 UV-I 277 W/m 18,7 C 24,3 C 8,0 km/h (2 Bft) 97,87 %
24.07.2016 13:20 24,4 C 71 % 1016,6 hPa 0,0 l/m 4,6 km/h (1 Bft) W-NW 283 0 min 0,000 mm 4,7 UV-I 274 W/m 18,8 C 24,4 C 11,3 km/h (2 Bft) 97,87 %
24.07.2016 13:22 24,3 C 70 % 1016,6 hPa 0,0 l/m 5,3 km/h (1 Bft) W-NW 292 0 min 0,000 mm 4,7 UV-I 345 W/m 18,5 C 24,3 C 11,3 km/h (2 Bft) 93,62 %
24.07.2016 13:24 24,3 C 70 % 1016,6 hPa 0,0 l/m 1,6 km/h (1 Bft) NW 310 2 min 0,000 mm 6,8 UV-I 523 W/m 18,5 C 24,3 C 4,8 km/h (1 Bft) 97,87 %
24.07.2016 13:26 24,6 C 71 % 1016,6 hPa 0,0 l/m 1,2 km/h (1 Bft) W-SW 238 2 min 0,000 mm 6,1 UV-I 621 W/m 19,0 C 24,6 C 3,2 km/h (1 Bft) 97,87 %
24.07.2016 13:28 24,6 C 69 % 1016,6 hPa 0,0 l/m 1,9 km/h (1 Bft) S-SW 211 0 min 0,000 mm 4,9 UV-I 337 W/m 18,5 C 24,6 C 3,2 km/h (1 Bft) 96,00 %
24.07.2016 13:30 24,6 C 71 % 1016,6 hPa 0,0 l/m 3,1 km/h (1 Bft) S-SW 211 0 min 0,000 mm 4,2 UV-I 265 W/m 19,0 C 24,6 C 8,0 km/h (2 Bft) 95,74 %
24.07.2016 13:32 24,4 C 71 % 1016,6 hPa 0,0 l/m 6,7 km/h (2 Bft) S-SO 167 0 min 0,000 mm 4,6 UV-I 336 W/m 18,8 C 24,3 C 9,7 km/h (2 Bft) 97,87 %
24.07.2016 13:34 24,4 C 73 % 1016,6 hPa 0,0 l/m 3,8 km/h (1 Bft) S-SW 194 0 min 0,000 mm 6,4 UV-I 464 W/m 19,2 C 24,4 C 8,0 km/h (2 Bft) 100,00 %
24.07.2016 13:36 24,7 C 70 % 1016,5 hPa 0,0 l/m 2,1 km/h (1 Bft) W-NW 302 2 min 0,000 mm 6,3 UV-I 1008 W/m 18,8 C 24,7 C 4,8 km/h (1 Bft) 100,00 %
24.07.2016 13:38 24,9 C 67 % 1016,5 hPa 0,0 l/m 6,0 km/h (2 Bft) SW 228 2 min 0,000 mm 6,9 UV-I 1020 W/m 18,3 C 24,9 C 11,3 km/h (2 Bft) 95,74 %
24.07.2016 13:40 24,9 C 69 % 1016,5 hPa 0,0 l/m 2,4 km/h (1 Bft) W-SW 241 2 min 0,000 mm 6,3 UV-I 1040 W/m 18,8 C 24,9 C 6,4 km/h (2 Bft) 100,00 %
24.07.2016 13:42 25,0 C 67 % 1016,5 hPa 0,0 l/m 1,5 km/h (1 Bft) S 186 2 min 0,000 mm 7,3 UV-I 1029 W/m 18,4 C 25,0 C 4,8 km/h (1 Bft) 100,00 %
24.07.2016 13:44 25,2 C 69 % 1016,5 hPa 0,0 l/m 3,0 km/h (1 Bft) W-SW 240 2 min 0,000 mm 6,8 UV-I 971 W/m 19,1 C 25,2 C 6,4 km/h (2 Bft) 100,00 %
24.07.2016 13:46 25,5 C 67 % 1016,5 hPa 0,0 l/m 3,6 km/h (1 Bft) S-SW 207 2 min 0,000 mm 6,3 UV-I 832 W/m 18,9 C 25,5 C 9,7 km/h (2 Bft) 100,00 %
24.07.2016 13:48 25,6 C 65 % 1016,5 hPa 0,0 l/m 6,7 km/h (2 Bft) W 261 2 min 0,000 mm 5,8 UV-I 743 W/m 18,5 C 25,5 C 12,9 km/h (3 Bft) 97,87 %
24.07.2016 13:50 25,5 C 65 % 1016,5 hPa 0,0 l/m 3,8 km/h (1 Bft) W-SW 245 2 min 0,000 mm 6,1 UV-I 793 W/m 18,4 C 25,5 C 9,7 km/h (2 Bft) 97,87 %
24.07.2016 13:52 25,4 C 67 % 1016,4 hPa 0,0 l/m 6,9 km/h (2 Bft) SW 231 2 min 0,000 mm 5,7 UV-I 695 W/m 18,8 C 25,3 C 9,7 km/h (2 Bft) 97,87 %
24.07.2016 13:54 25,3 C 66 % 1016,4 hPa 0,0 l/m 3,4 km/h (1 Bft) S-SW 209 2 min 0,000 mm 6,2 UV-I 763 W/m 18,5 C 25,3 C 8,0 km/h (2 Bft) 100,00 %
24.07.2016 13:56 25,4 C 67 % 1016,4 hPa 0,0 l/m 5,2 km/h (1 Bft) W 279 2 min 0,000 mm 6,7 UV-I 905 W/m 18,8 C 25,4 C 11,3 km/h (2 Bft) 98,04 %
24.07.2016 13:58 25,6 C 68 % 1016,4 hPa 0,0 l/m 2,7 km/h (1 Bft) W-SW 242 2 min 0,000 mm 6,0 UV-I 826 W/m 19,2 C 25,6 C 6,4 km/h (2 Bft) 100,00 %
24.07.2016 14:00 25,5 C 65 % 1016,4 hPa 0,0 l/m 1,8 km/h (1 Bft) S-SW 196 2 min 0,457 mm 4,6 UV-I 632 W/m 18,4 C 25,5 C 4,8 km/h (1 Bft) 100,00 %
24.07.2016 14:02 25,4 C 68 % 1016,4 hPa 0,0 l/m 2,7 km/h (1 Bft) SW 225 0 min 0,000 mm 3,8 UV-I 354 W/m 19,1 C 25,4 C 4,8 km/h (1 Bft) 100,00 %
24.07.2016 14:04 25,4 C 66 % 1016,4 hPa 0,0 l/m 1,9 km/h (1 Bft) W-NW 286 0 min 0,000 mm 3,7 UV-I 285 W/m 18,6 C 25,4 C 4,8 km/h (1 Bft) 95,74 %
24.07.2016 14:06 25,2 C 67 % 1016,4 hPa 0,0 l/m 0,9 km/h (0 Bft) W-NW 286 0 min 0,000 mm 3,8 UV-I 311 W/m 18,6 C 25,2 C 1,6 km/h (1 Bft) 100,00 %
24.07.2016 14:08 25,1 C 66 % 1016,3 hPa 0,0 l/m 0,9 km/h (0 Bft) SW 223 2 min 0,000 mm 4,1 UV-I 487 W/m 18,3 C 25,1 C 3,2 km/h (1 Bft) 100,00 %
24.07.2016 14:10 25,0 C 66 % 1016,3 hPa 0,0 l/m 1,0 km/h (0 Bft) SW 222 0 min 0,000 mm 3,9 UV-I 417 W/m 18,2 C 25,0 C 3,2 km/h (1 Bft) 100,00 %
24.07.2016 14:12 25,2 C 69 % 1016,3 hPa 0,0 l/m 2,5 km/h (1 Bft) W-SW 248 0 min 0,000 mm 5,2 UV-I 376 W/m 19,1 C 25,2 C 4,8 km/h (1 Bft) 98,00 %
24.07.2016 14:14 25,5 C 66 % 1016,3 hPa 0,0 l/m 4,0 km/h (1 Bft) W-NW 294 2 min 0,000 mm 6,6 UV-I 872 W/m 18,7 C 25,5 C 6,4 km/h (2 Bft) 100,00 %
24.07.2016 14:16 25,7 C 67 % 1016,3 hPa 0,0 l/m 3,2 km/h (1 Bft) SW 216 2 min 0,000 mm 6,8 UV-I 1011 W/m 19,1 C 25,7 C 4,8 km/h (1 Bft) 100,00 %
24.07.2016 14:18 25,8 C 68 % 1016,3 hPa 0,0 l/m 4,1 km/h (1 Bft) W-NW 285 2 min 0,000 mm 6,5 UV-I 956 W/m 19,4 C 25,8 C 9,7 km/h (2 Bft) 100,00 %
24.07.2016 14:20 25,8 C 64 % 1016,3 hPa 0,0 l/m 3,9 km/h (1 Bft) W-SW 242 2 min 0,000 mm 6,8 UV-I 1079 W/m 18,5 C 25,8 C 6,4 km/h (2 Bft) 100,00 %
24.07.2016 14:22 25,9 C 64 % 1016,3 hPa 0,0 l/m 5,2 km/h (1 Bft) SW 222 2 min 0,000 mm 6,8 UV-I 1053 W/m 18,6 C 25,9 C 9,7 km/h (2 Bft) 100,00 %
24.07.2016 14:24 26,0 C 65 % 1016,3 hPa 0,0 l/m 5,8 km/h (2 Bft) W 266 2 min 0,000 mm 6,8 UV-I 989 W/m 18,9 C 26,0 C 9,7 km/h (2 Bft) 100,00 %
24.07.2016 14:26 26,0 C 64 % 1016,3 hPa 0,0 l/m 6,3 km/h (2 Bft) S 169 2 min 0,000 mm 5,7 UV-I 939 W/m 18,6 C 26,0 C 14,5 km/h (3 Bft) 100,00 %
24.07.2016 14:28 25,9 C 65 % 1016,3 hPa 0,0 l/m 9,5 km/h (2 Bft) SW 232 2 min 0,000 mm 5,7 UV-I 795 W/m 18,8 C 25,2 C 12,9 km/h (3 Bft) 97,87 %
24.07.2016 14:30 25,9 C 65 % 1016,3 hPa 0,0 l/m 7,1 km/h (2 Bft) S-SW 208 2 min 0,000 mm 5,9 UV-I 645 W/m 18,8 C 25,7 C 11,3 km/h (2 Bft) 95,74 %
24.07.2016 14:32 25,8 C 64 % 1016,3 hPa 0,0 l/m 7,1 km/h (2 Bft) W-SW 251 0 min 0,000 mm 4,7 UV-I 439 W/m 18,5 C 25,6 C 11,3 km/h (2 Bft) 100,00 %
24.07.2016 14:34 25,7 C 66 % 1016,3 hPa 0,0 l/m 4,7 km/h (1 Bft) SW 221 2 min 0,000 mm 6,1 UV-I 662 W/m 18,9 C 25,7 C 8,0 km/h (2 Bft) 97,87 %
24.07.2016 14:36 25,7 C 67 % 1016,3 hPa 0,0 l/m 4,4 km/h (1 Bft) W-SW 238 2 min 0,000 mm 5,1 UV-I 788 W/m 19,1 C 25,7 C 8,0 km/h (2 Bft) 97,87 %
24.07.2016 14:38 25,8 C 64 % 1016,3 hPa 0,0 l/m 3,7 km/h (1 Bft) W 261 2 min 0,000 mm 5,1 UV-I 715 W/m 18,5 C 25,8 C 8,0 km/h (2 Bft) 97,87 %
24.07.2016 14:40 25,8 C 66 % 1016,3 hPa 0,0 l/m 6,8 km/h (2 Bft) W-SW 253 2 min 0,000 mm 6,2 UV-I 821 W/m 19,0 C 25,7 C 12,9 km/h (3 Bft) 100,00 %
24.07.2016 14:42 25,9 C 65 % 1016,2 hPa 0,0 l/m 3,8 km/h (1 Bft) SW 219 2 min 0,000 mm 5,8 UV-I 848 W/m 18,8 C 25,9 C 6,4 km/h (2 Bft) 100,00 %
24.07.2016 14:44 26,1 C 64 % 1016,2 hPa 0,0 l/m 9,2 km/h (2 Bft) W-SW 254 2 min 0,000 mm 5,0 UV-I 733 W/m 18,7 C 25,5 C 12,9 km/h (3 Bft) 97,37 %
24.07.2016 14:46 26,0 C 62 % 1016,2 hPa 0,0 l/m 2,4 km/h (1 Bft) N-NO 29 2 min 0,000 mm 5,1 UV-I 710 W/m 18,1 C 26,0 C 8,0 km/h (2 Bft) 97,87 %
24.07.2016 14:48 25,9 C 63 % 1016,1 hPa 0,0 l/m 5,2 km/h (1 Bft) S-SO 167 2 min 0,000 mm 5,1 UV-I 649 W/m 18,3 C 25,9 C 9,7 km/h (2 Bft) 100,00 %
24.07.2016 14:50 25,9 C 66 % 1016,1 hPa 0,0 l/m 5,2 km/h (1 Bft) S-SO 149 2 min 0,000 mm 5,0 UV-I 705 W/m 19,0 C 25,9 C 9,7 km/h (2 Bft) 100,00 %
24.07.2016 14:52 25,8 C 65 % 1016,1 hPa 0,0 l/m 4,3 km/h (1 Bft) S-SO 148 2 min 0,000 mm 3,6 UV-I 559 W/m 18,7 C 25,8 C 9,7 km/h (2 Bft) 100,00 %
24.07.2016 14:54 25,8 C 67 % 1016,1 hPa 0,0 l/m 4,7 km/h (1 Bft) S 176 0 min 0,000 mm 4,2 UV-I 301 W/m 19,2 C 25,8 C 9,7 km/h (2 Bft) 98,00 %
24.07.2016 14:56 26,0 C 65 % 1016,1 hPa 0,0 l/m 5,2 km/h (1 Bft) O-SO 109 0 min 0,000 mm 4,2 UV-I 301 W/m 18,9 C 26,0 C 9,7 km/h (2 Bft) 93,62 %
24.07.2016 14:58 26,1 C 64 % 1016,0 hPa 0,0 l/m 3,4 km/h (1 Bft) S 178 0 min 0,000 mm 5,4 UV-I 387 W/m 18,7 C 26,1 C 6,4 km/h (2 Bft) 95,74 %
24.07.2016 15:00 26,2 C 62 % 1015,9 hPa 0,0 l/m 6,7 km/h (2 Bft) S-SW 202 2 min 0,000 mm 5,9 UV-I 958 W/m 18,3 C 26,1 C 12,9 km/h (3 Bft) 95,74 %
24.07.2016 15:02 26,2 C 62 % 1015,9 hPa 0,0 l/m 7,8 km/h (2 Bft) S-SW 197 2 min 0,483 mm 6,0 UV-I 955 W/m 18,3 C 25,9 C 14,5 km/h (3 Bft) 97,87 %
24.07.2016 15:04 26,3 C 66 % 1015,9 hPa 0,0 l/m 7,9 km/h (2 Bft) W 261 2 min 0,000 mm 5,7 UV-I 882 W/m 19,4 C 26,0 C 16,1 km/h (3 Bft) 97,87 %
24.07.2016 15:06 26,3 C 61 % 1015,9 hPa 0,0 l/m 10,4 km/h (2 Bft) W-NW 288 2 min 0,000 mm 5,9 UV-I 951 W/m 18,2 C 25,5 C 14,5 km/h (3 Bft) 98,00 %
24.07.2016 15:08 26,2 C 62 % 1015,9 hPa 0,0 l/m 7,1 km/h (2 Bft) W 267 2 min 0,000 mm 5,9 UV-I 957 W/m 18,3 C 26,1 C 11,3 km/h (2 Bft) 95,74 %
24.07.2016 15:10 26,2 C 60 % 1015,9 hPa 0,0 l/m 3,8 km/h (1 Bft) W-NW 283 2 min 0,000 mm 5,8 UV-I 948 W/m 17,8 C 26,2 C 9,7 km/h (2 Bft) 95,74 %
24.07.2016 15:12 26,3 C 65 % 1015,8 hPa 0,0 l/m 3,4 km/h (1 Bft) SO 132 2 min 0,000 mm 5,8 UV-I 930 W/m 19,2 C 26,3 C 8,0 km/h (2 Bft) 97,37 %
24.07.2016 15:14 26,4 C 64 % 1015,8 hPa 0,0 l/m 3,3 km/h (1 Bft) SO 130 2 min 0,000 mm 5,6 UV-I 902 W/m 19,0 C 26,4 C 11,3 km/h (2 Bft) 95,74 %
24.07.2016 15:16 26,7 C 62 % 1015,7 hPa 0,0 l/m 3,3 km/h (1 Bft) S 184 2 min 0,000 mm 5,5 UV-I 922 W/m 18,8 C 26,7 C 6,4 km/h (2 Bft) 96,00 %
24.07.2016 15:18 26,6 C 62 % 1015,8 hPa 0,0 l/m 3,0 km/h (1 Bft) S 174 2 min 0,000 mm 5,6 UV-I 917 W/m 18,7 C 26,6 C 4,8 km/h (1 Bft) 93,62 %
24.07.2016 15:20 26,5 C 66 % 1015,8 hPa 0,0 l/m 2,9 km/h (1 Bft) SW 236 2 min 0,000 mm 5,4 UV-I 878 W/m 19,6 C 26,5 C 9,7 km/h (2 Bft) 98,00 %
24.07.2016 15:22 26,9 C 67 % 1015,8 hPa 0,0 l/m 2,5 km/h (1 Bft) W-NW 290 2 min 0,000 mm 5,1 UV-I 870 W/m 20,2 C 26,9 C 8,0 km/h (2 Bft) 98,00 %
24.07.2016 15:24 27,0 C 63 % 1015,7 hPa 0,0 l/m 2,8 km/h (1 Bft) N-NW 328 2 min 0,000 mm 4,8 UV-I 840 W/m 19,3 C 27,0 C 8,0 km/h (2 Bft) 97,87 %
24.07.2016 15:26 27,2 C 62 % 1015,7 hPa 0,0 l/m 8,0 km/h (2 Bft) NO 53 2 min 0,000 mm 5,1 UV-I 881 W/m 19,3 C 26,9 C 16,1 km/h (3 Bft) 97,22 %
24.07.2016 15:28 27,3 C 59 % 1015,7 hPa 0,0 l/m 2,8 km/h (1 Bft) O-NO 70 2 min 0,000 mm 5,0 UV-I 869 W/m 18,6 C 27,3 C 8,0 km/h (2 Bft) 95,74 %
24.07.2016 15:30 27,2 C 61 % 1015,7 hPa 0,0 l/m 1,9 km/h (1 Bft) W 275 2 min 0,000 mm 4,9 UV-I 870 W/m 19,0 C 27,2 C 4,8 km/h (1 Bft) 100,00 %
24.07.2016 15:32 27,1 C 60 % 1015,7 hPa 0,0 l/m 3,8 km/h (1 Bft) NW 306 2 min 0,000 mm 4,2 UV-I 726 W/m 18,6 C 27,1 C 8,0 km/h (2 Bft) 100,00 %
24.07.2016 15:34 26,8 C 61 % 1015,7 hPa 0,0 l/m 1,7 km/h (1 Bft) N-NO 16 0 min 0,000 mm 3,2 UV-I 343 W/m 18,6 C 26,8 C 4,8 km/h (1 Bft) 97,87 %
24.07.2016 15:36 26,7 C 64 % 1015,7 hPa 0,0 l/m 4,9 km/h (1 Bft) N 11 0 min 0,000 mm 3,4 UV-I 346 W/m 19,3 C 26,7 C 8,0 km/h (2 Bft) 100,00 %
24.07.2016 15:38 26,8 C 64 % 1015,6 hPa 0,0 l/m 2,1 km/h (1 Bft) N-NW 343 0 min 0,000 mm 3,5 UV-I 385 W/m 19,4 C 26,8 C 6,4 km/h (2 Bft) 100,00 %
24.07.2016 15:40 26,8 C 62 % 1015,6 hPa 0,0 l/m 1,8 km/h (1 Bft) W-NW 303 2 min 0,000 mm 3,9 UV-I 425 W/m 18,9 C 26,8 C 11,3 km/h (2 Bft) 100,00 %
24.07.2016 15:42 26,7 C 59 % 1015,6 hPa 0,0 l/m 4,2 km/h (1 Bft) W-NW 292 0 min 0,000 mm 2,5 UV-I 379 W/m 18,0 C 26,7 C 8,0 km/h (2 Bft) 100,00 %
24.07.2016 15:44 26,6 C 60 % 1015,7 hPa 0,0 l/m 2,4 km/h (1 Bft) N-NW 338 0 min 0,000 mm 2,2 UV-I 262 W/m 18,2 C 26,6 C 6,4 km/h (2 Bft) 97,87 %
24.07.2016 15:46 26,4 C 60 % 1015,6 hPa 0,0 l/m 1,3 km/h (1 Bft) N 355 0 min 0,000 mm 2,3 UV-I 240 W/m 18,0 C 26,4 C 3,2 km/h (1 Bft) 100,00 %
24.07.2016 15:48 26,3 C 62 % 1015,5 hPa 0,0 l/m 3,2 km/h (1 Bft) N 355 0 min 0,000 mm 2,1 UV-I 217 W/m 18,4 C 26,3 C 6,4 km/h (2 Bft) 98,00 %
24.07.2016 15:50 26,2 C 61 % 1015,5 hPa 0,0 l/m 2,8 km/h (1 Bft) N-NO 17 0 min 0,000 mm 1,8 UV-I 219 W/m 18,1 C 26,2 C 6,4 km/h (2 Bft) 100,00 %
24.07.2016 15:52 26,1 C 62 % 1015,6 hPa 0,0 l/m 4,3 km/h (1 Bft) N-NO 29 0 min 0,000 mm 2,2 UV-I 243 W/m 18,2 C 26,1 C 9,7 km/h (2 Bft) 92,31 %
24.07.2016 15:54 26,1 C 61 % 1015,5 hPa 0,0 l/m 6,7 km/h (2 Bft) N-NO 28 0 min 0,000 mm 3,1 UV-I 283 W/m 18,0 C 26,0 C 9,7 km/h (2 Bft) 97,87 %
24.07.2016 15:56 26,1 C 62 % 1015,5 hPa 0,0 l/m 5,6 km/h (1 Bft) N-NO 28 0 min 0,000 mm 2,5 UV-I 244 W/m 18,2 C 26,1 C 8,0 km/h (2 Bft) 100,00 %
24.07.2016 15:58 26,1 C 62 % 1015,5 hPa 0,0 l/m 3,2 km/h (1 Bft) N-NO 22 0 min 0,000 mm 3,0 UV-I 311 W/m 18,2 C 26,1 C 8,0 km/h (2 Bft) 97,87 %
24.07.2016 16:00 26,3 C 63 % 1015,5 hPa 0,0 l/m 6,2 km/h (2 Bft) NO 39 2 min 0,432 mm 3,7 UV-I 542 W/m 18,7 C 26,3 C 8,0 km/h (2 Bft) 100,00 %
24.07.2016 16:02 26,7 C 59 % 1015,5 hPa 0,0 l/m 5,0 km/h (1 Bft) NO 37 2 min 0,000 mm 3,9 UV-I 736 W/m 18,0 C 26,7 C 6,4 km/h (2 Bft) 97,92 %
24.07.2016 16:04 26,8 C 61 % 1015,4 hPa 0,0 l/m 3,8 km/h (1 Bft) N-NO 22 2 min 0,000 mm 3,9 UV-I 737 W/m 18,6 C 26,8 C 6,4 km/h (2 Bft) 100,00 %
24.07.2016 16:06 26,9 C 56 % 1015,4 hPa 0,0 l/m 3,8 km/h (1 Bft) NO 52 2 min 0,000 mm 3,8 UV-I 732 W/m 17,4 C 26,9 C 6,4 km/h (2 Bft) 100,00 %
24.07.2016 16:08 27,0 C 62 % 1015,4 hPa 0,0 l/m 3,3 km/h (1 Bft) NO 52 2 min 0,000 mm 3,8 UV-I 739 W/m 19,1 C 27,0 C 4,8 km/h (1 Bft) 100,00 %
24.07.2016 16:10 26,9 C 58 % 1015,4 hPa 0,0 l/m 2,6 km/h (1 Bft) NO 53 2 min 0,000 mm 3,9 UV-I 743 W/m 17,9 C 26,9 C 4,8 km/h (1 Bft) 100,00 %
24.07.2016 16:12 27,0 C 58 % 1015,3 hPa 0,0 l/m 2,8 km/h (1 Bft) NO 46 2 min 0,000 mm 3,8 UV-I 736 W/m 18,0 C 27,0 C 6,4 km/h (2 Bft) 100,00 %
24.07.2016 16:14 27,2 C 57 % 1015,3 hPa 0,0 l/m 4,9 km/h (1 Bft) O-NO 75 2 min 0,000 mm 3,7 UV-I 727 W/m 17,9 C 27,2 C 6,4 km/h (2 Bft) 97,92 %
24.07.2016 16:16 27,2 C 56 % 1015,3 hPa 0,0 l/m 4,9 km/h (1 Bft) O 82 2 min 0,000 mm 3,6 UV-I 722 W/m 17,6 C 27,2 C 8,0 km/h (2 Bft) 100,00 %
24.07.2016 16:18 27,1 C 59 % 1015,2 hPa 0,0 l/m 3,3 km/h (1 Bft) O-SO 107 2 min 0,000 mm 3,6 UV-I 721 W/m 18,4 C 27,1 C 6,4 km/h (2 Bft) 100,00 %
24.07.2016 16:20 27,1 C 61 % 1015,2 hPa 0,0 l/m 4,9 km/h (1 Bft) O-NO 71 2 min 0,000 mm 3,6 UV-I 717 W/m 18,9 C 27,1 C 6,4 km/h (2 Bft) 100,00 %
24.07.2016 16:22 27,1 C 60 % 1015,2 hPa 0,0 l/m 3,9 km/h (1 Bft) NO 38 2 min 0,000 mm 3,6 UV-I 711 W/m 18,6 C 27,1 C 6,4 km/h (2 Bft) 100,00 %
24.07.2016 16:24 27,1 C 57 % 1015,2 hPa 0,0 l/m 1,5 km/h (1 Bft) NO 47 2 min 0,000 mm 3,5 UV-I 695 W/m 17,8 C 27,1 C 3,2 km/h (1 Bft) 97,87 %
24.07.2016 16:26 27,3 C 61 % 1015,2 hPa 0,0 l/m 2,7 km/h (1 Bft) NO 44 2 min 0,000 mm 3,5 UV-I 665 W/m 19,1 C 27,3 C 4,8 km/h (1 Bft) 100,00 %
24.07.2016 16:28 27,3 C 58 % 1015,1 hPa 0,0 l/m 3,8 km/h (1 Bft) N-NW 340 2 min 0,000 mm 3,4 UV-I 654 W/m 18,3 C 27,3 C 8,0 km/h (2 Bft) 100,00 %
24.07.2016 16:30 27,6 C 57 % 1015,1 hPa 0,0 l/m 2,4 km/h (1 Bft) N-NW 348 2 min 0,000 mm 3,4 UV-I 669 W/m 18,3 C 27,6 C 4,8 km/h (1 Bft) 100,00 %
24.07.2016 16:32 27,5 C 56 % 1015,1 hPa 0,0 l/m 3,9 km/h (1 Bft) N-NO 15 2 min 0,000 mm 3,4 UV-I 689 W/m 17,9 C 27,5 C 6,4 km/h (2 Bft) 97,87 %
24.07.2016 16:34 27,3 C 57 % 1015,1 hPa 0,0 l/m 1,2 km/h (1 Bft) N-NO 12 2 min 0,000 mm 3,3 UV-I 705 W/m 18,0 C 27,3 C 4,8 km/h (1 Bft) 100,00 %
24.07.2016 16:36 27,4 C 58 % 1015,1 hPa 0,0 l/m 6,5 km/h (2 Bft) NO 54 2 min 0,000 mm 3,3 UV-I 719 W/m 18,4 C 27,4 C 9,7 km/h (2 Bft) 100,00 %
24.07.2016 16:38 27,6 C 58 % 1015,1 hPa 0,0 l/m 5,6 km/h (1 Bft) NO 38 2 min 0,000 mm 3,2 UV-I 733 W/m 18,6 C 27,6 C 8,0 km/h (2 Bft) 95,74 %
24.07.2016 16:40 27,5 C 59 % 1015,1 hPa 0,0 l/m 3,7 km/h (1 Bft) O-NO 64 2 min 0,000 mm 3,0 UV-I 725 W/m 18,8 C 27,5 C 6,4 km/h (2 Bft) 97,87 %
24.07.2016 16:42 27,6 C 58 % 1015,1 hPa 0,0 l/m 6,5 km/h (2 Bft) O 85 2 min 0,000 mm 2,8 UV-I 545 W/m 18,6 C 27,6 C 11,3 km/h (2 Bft) 100,00 %
24.07.2016 16:44 27,5 C 55 % 1015,0 hPa 0,0 l/m 4,6 km/h (1 Bft) NO 44 2 min 0,000 mm 3,0 UV-I 693 W/m 17,6 C 27,5 C 8,0 km/h (2 Bft) 98,00 %
24.07.2016 16:46 27,6 C 57 % 1015,0 hPa 0,0 l/m 4,7 km/h (1 Bft) N 350 2 min 0,000 mm 2,9 UV-I 664 W/m 18,3 C 27,6 C 11,3 km/h (2 Bft) 97,87 %
24.07.2016 16:48 27,8 C 59 % 1015,0 hPa 0,0 l/m 4,6 km/h (1 Bft) N 10 2 min 0,000 mm 2,7 UV-I 654 W/m 19,0 C 27,8 C 9,7 km/h (2 Bft) 97,87 %
24.07.2016 16:50 27,9 C 55 % 1015,0 hPa 0,0 l/m 3,0 km/h (1 Bft) NW 323 2 min 0,000 mm 2,6 UV-I 655 W/m 18,0 C 27,9 C 4,8 km/h (1 Bft) 97,44 %
24.07.2016 16:52 27,8 C 51 % 1015,0 hPa 0,0 l/m 4,2 km/h (1 Bft) NO 34 2 min 0,000 mm 2,2 UV-I 346 W/m 16,7 C 27,8 C 8,0 km/h (2 Bft) 97,87 %
24.07.2016 16:54 27,8 C 58 % 1015,0 hPa 0,0 l/m 2,7 km/h (1 Bft) N-NW 329 2 min 0,000 mm 2,7 UV-I 432 W/m 18,8 C 27,8 C 6,4 km/h (2 Bft) 96,00 %
24.07.2016 16:56 27,8 C 54 % 1015,0 hPa 0,0 l/m 2,6 km/h (1 Bft) NO 44 2 min 0,000 mm 2,7 UV-I 649 W/m 17,6 C 27,8 C 4,8 km/h (1 Bft) 97,87 %
24.07.2016 16:58 27,6 C 54 % 1015,0 hPa 0,0 l/m 3,4 km/h (1 Bft) O-NO 58 2 min 0,000 mm 2,6 UV-I 644 W/m 17,4 C 27,6 C 6,4 km/h (2 Bft) 97,87 %
24.07.2016 17:00 27,6 C 53 % 1014,9 hPa 0,0 l/m 4,2 km/h (1 Bft) O-NO 69 2 min 0,457 mm 2,5 UV-I 626 W/m 17,1 C 27,6 C 4,8 km/h (1 Bft) 97,87 %
24.07.2016 17:02 27,4 C 52 % 1014,9 hPa 0,0 l/m 3,1 km/h (1 Bft) O 82 2 min 0,000 mm 2,4 UV-I 613 W/m 16,7 C 27,4 C 4,8 km/h (1 Bft) 95,74 %
24.07.2016 17:04 27,3 C 52 % 1014,9 hPa 0,0 l/m 4,6 km/h (1 Bft) O 82 2 min 0,000 mm 2,4 UV-I 620 W/m 16,6 C 27,3 C 6,4 km/h (2 Bft) 96,00 %
24.07.2016 17:06 27,4 C 55 % 1014,8 hPa 0,0 l/m 4,5 km/h (1 Bft) N-NO 32 2 min 0,000 mm 2,4 UV-I 627 W/m 17,5 C 27,4 C 6,4 km/h (2 Bft) 95,74 %
24.07.2016 17:08 27,4 C 54 % 1014,8 hPa 0,0 l/m 2,3 km/h (1 Bft) O 87 2 min 0,000 mm 2,3 UV-I 624 W/m 17,3 C 27,4 C 4,8 km/h (1 Bft) 97,87 %
24.07.2016 17:10 27,4 C 56 % 1014,8 hPa 0,0 l/m 3,2 km/h (1 Bft) N-NO 28 2 min 0,000 mm 2,3 UV-I 621 W/m 17,8 C 27,4 C 8,0 km/h (2 Bft) 95,74 %
24.07.2016 17:12 27,7 C 57 % 1014,8 hPa 0,0 l/m 6,3 km/h (2 Bft) N-NO 32 2 min 0,000 mm 2,3 UV-I 616 W/m 18,4 C 27,7 C 9,7 km/h (2 Bft) 97,87 %
24.07.2016 17:14 27,8 C 52 % 1014,8 hPa 0,0 l/m 3,2 km/h (1 Bft) NO 42 2 min 0,000 mm 2,2 UV-I 593 W/m 17,0 C 27,8 C 8,0 km/h (2 Bft) 97,87 %
24.07.2016 17:16 27,8 C 53 % 1014,8 hPa 0,0 l/m 4,9 km/h (1 Bft) N 350 2 min 0,000 mm 2,1 UV-I 561 W/m 17,3 C 27,8 C 8,0 km/h (2 Bft) 97,87 %
24.07.2016 17:18 27,8 C 56 % 1014,8 hPa 0,0 l/m 4,2 km/h (1 Bft) N-NO 27 2 min 0,000 mm 1,8 UV-I 548 W/m 18,2 C 27,8 C 8,0 km/h (2 Bft) 100,00 %
24.07.2016 17:20 27,8 C 56 % 1014,8 hPa 0,0 l/m 5,8 km/h (2 Bft) N-NO 23 2 min 0,000 mm 2,0 UV-I 582 W/m 18,2 C 27,8 C 8,0 km/h (2 Bft) 100,00 %
24.07.2016 17:22 27,8 C 55 % 1014,8 hPa 0,0 l/m 5,1 km/h (1 Bft) NO 48 2 min 0,000 mm 1,9 UV-I 599 W/m 17,9 C 27,8 C 11,3 km/h (2 Bft) 95,92 %
24.07.2016 17:24 27,8 C 55 % 1014,8 hPa 0,0 l/m 4,1 km/h (1 Bft) NO 46 2 min 0,000 mm 1,8 UV-I 550 W/m 17,9 C 27,8 C 6,4 km/h (2 Bft) 97,92 %
24.07.2016 17:26 27,7 C 55 % 1014,8 hPa 0,0 l/m 3,1 km/h (1 Bft) NO 46 2 min 0,000 mm 1,9 UV-I 554 W/m 17,8 C 27,7 C 8,0 km/h (2 Bft) 100,00 %
24.07.2016 17:28 27,6 C 54 % 1014,8 hPa 0,0 l/m 6,5 km/h (2 Bft) O-NO 57 2 min 0,000 mm 1,8 UV-I 547 W/m 17,4 C 27,6 C 8,0 km/h (2 Bft) 100,00 %
24.07.2016 17:30 27,7 C 55 % 1014,8 hPa 0,0 l/m 6,4 km/h (2 Bft) N-NO 28 2 min 0,000 mm 1,8 UV-I 538 W/m 17,8 C 27,7 C 8,0 km/h (2 Bft) 100,00 %
24.07.2016 17:32 27,8 C 53 % 1014,7 hPa 0,0 l/m 3,6 km/h (1 Bft) N-NO 25 2 min 0,000 mm 1,8 UV-I 513 W/m 17,3 C 27,8 C 6,4 km/h (2 Bft) 97,87 %
24.07.2016 17:34 27,7 C 53 % 1014,7 hPa 0,0 l/m 2,9 km/h (1 Bft) NO 45 2 min 0,000 mm 1,7 UV-I 504 W/m 17,2 C 27,7 C 4,8 km/h (1 Bft) 95,74 %
24.07.2016 17:36 27,6 C 53 % 1014,7 hPa 0,0 l/m 1,7 km/h (1 Bft) NO 45 2 min 0,000 mm 1,6 UV-I 480 W/m 17,1 C 27,6 C 3,2 km/h (1 Bft) 100,00 %
24.07.2016 17:38 27,3 C 53 % 1014,7 hPa 0,0 l/m 3,1 km/h (1 Bft) N-NO 31 0 min 0,000 mm 1,4 UV-I 250 W/m 16,9 C 27,3 C 4,8 km/h (1 Bft) 100,00 %
24.07.2016 17:40 27,3 C 53 % 1014,7 hPa 0,0 l/m 1,4 km/h (1 Bft) N-NO 30 0 min 0,000 mm 1,2 UV-I 184 W/m 16,9 C 27,3 C 3,2 km/h (1 Bft) 95,92 %
24.07.2016 17:42 27,2 C 55 % 1014,7 hPa 0,0 l/m 1,2 km/h (1 Bft) N-NO 25 0 min 0,000 mm 1,2 UV-I 220 W/m 17,4 C 27,2 C 3,2 km/h (1 Bft) 100,00 %
24.07.2016 17:44 27,1 C 55 % 1014,7 hPa 0,0 l/m 1,9 km/h (1 Bft) N-NO 25 0 min 0,000 mm 1,2 UV-I 163 W/m 17,3 C 27,1 C 3,2 km/h (1 Bft) 100,00 %
24.07.2016 17:46 27,1 C 55 % 1014,7 hPa 0,0 l/m 3,3 km/h (1 Bft) NO 38 0 min 0,000 mm 1,4 UV-I 165 W/m 17,3 C 27,1 C 4,8 km/h (1 Bft) 100,00 %
24.07.2016 17:48 27,2 C 56 % 1014,7 hPa 0,0 l/m 2,1 km/h (1 Bft) N 10 2 min 0,000 mm 1,3 UV-I 453 W/m 17,6 C 27,2 C 3,2 km/h (1 Bft) 100,00 %
24.07.2016 17:50 27,1 C 56 % 1014,7 hPa 0,0 l/m 3,1 km/h (1 Bft) N-NO 12 0 min 0,000 mm 1,1 UV-I 172 W/m 17,5 C 27,1 C 8,0 km/h (2 Bft) 100,00 %
24.07.2016 17:52 26,9 C 56 % 1014,7 hPa 0,0 l/m 3,8 km/h (1 Bft) N-NO 24 0 min 0,000 mm 1,0 UV-I 115 W/m 17,4 C 26,9 C 6,4 km/h (2 Bft) 100,00 %
24.07.2016 17:54 26,8 C 57 % 1014,7 hPa 0,0 l/m 3,0 km/h (1 Bft) N-NO 15 0 min 0,000 mm 1,0 UV-I 108 W/m 17,6 C 26,8 C 4,8 km/h (1 Bft) 100,00 %
24.07.2016 17:56 26,7 C 57 % 1014,7 hPa 0,0 l/m 3,4 km/h (1 Bft) N-NO 15 0 min 0,000 mm 1,0 UV-I 125 W/m 17,5 C 26,7 C 4,8 km/h (1 Bft) 100,00 %
24.07.2016 17:58 26,6 C 56 % 1014,7 hPa 0,0 l/m 2,8 km/h (1 Bft) N-NO 15 2 min 0,000 mm 1,2 UV-I 267 W/m 17,1 C 26,6 C 3,2 km/h (1 Bft) 100,00 %
24.07.2016 18:00 26,8 C 60 % 1014,7 hPa 0,0 l/m 3,8 km/h (1 Bft) NO 46 2 min 0,000 mm 1,2 UV-I 445 W/m 18,4 C 26,8 C 4,8 km/h (1 Bft) 100,00 %
24.07.2016 18:02 27,0 C 56 % 1014,7 hPa 0,0 l/m 3,1 km/h (1 Bft) O-NO 67 2 min 0,305 mm 1,2 UV-I 451 W/m 17,5 C 27,0 C 4,8 km/h (1 Bft) 100,00 %
24.07.2016 18:04 27,1 C 55 % 1014,7 hPa 0,0 l/m 4,2 km/h (1 Bft) O-NO 73 2 min 0,000 mm 1,1 UV-I 458 W/m 17,3 C 27,1 C 4,8 km/h (1 Bft) 100,00 %
24.07.2016 18:06 27,2 C 54 % 1014,7 hPa 0,0 l/m 3,4 km/h (1 Bft) O-NO 74 2 min 0,000 mm 1,0 UV-I 464 W/m 17,1 C 27,2 C 6,4 km/h (2 Bft) 100,00 %
24.07.2016 18:08 27,3 C 57 % 1014,7 hPa 0,0 l/m 4,1 km/h (1 Bft) O-NO 71 2 min 0,000 mm 1,0 UV-I 437 W/m 18,0 C 27,3 C 6,4 km/h (2 Bft) 100,00 %
24.07.2016 18:10 27,2 C 57 % 1014,7 hPa 0,0 l/m 3,3 km/h (1 Bft) NO 53 2 min 0,000 mm 0,8 UV-I 318 W/m 17,9 C 27,2 C 4,8 km/h (1 Bft) 100,00 %
24.07.2016 18:12 27,2 C 56 % 1014,7 hPa 0,0 l/m 4,7 km/h (1 Bft) O-NO 59 0 min 0,000 mm 0,8 UV-I 175 W/m 17,6 C 27,2 C 6,4 km/h (2 Bft) 100,00 %
24.07.2016 18:14 27,1 C 58 % 1014,7 hPa 0,0 l/m 4,6 km/h (1 Bft) NO 49 0 min 0,000 mm 0,8 UV-I 189 W/m 18,1 C 27,1 C 6,4 km/h (2 Bft) 100,00 %
24.07.2016 18:16 27,0 C 55 % 1014,7 hPa 0,0 l/m 4,9 km/h (1 Bft) O-NO 71 0 min 0,000 mm 0,7 UV-I 155 W/m 17,2 C 27,0 C 8,0 km/h (2 Bft) 100,00 %
24.07.2016 18:18 26,9 C 55 % 1014,6 hPa 0,0 l/m 4,5 km/h (1 Bft) O-NO 71 0 min 0,000 mm 0,7 UV-I 128 W/m 17,1 C 26,9 C 6,4 km/h (2 Bft) 96,00 %
24.07.2016 18:20 26,8 C 55 % 1014,6 hPa 0,0 l/m 3,3 km/h (1 Bft) O-NO 71 0 min 0,000 mm 0,7 UV-I 116 W/m 17,0 C 26,8 C 6,4 km/h (2 Bft) 97,87 %
24.07.2016 18:22 26,7 C 57 % 1014,6 hPa 0,0 l/m 2,8 km/h (1 Bft) O 87 0 min 0,000 mm 0,7 UV-I 105 W/m 17,5 C 26,7 C 4,8 km/h (1 Bft) 95,74 %
24.07.2016 18:24 26,6 C 56 % 1014,6 hPa 0,0 l/m 2,9 km/h (1 Bft) O 80 0 min 0,000 mm 0,7 UV-I 98 W/m 17,1 C 26,6 C 4,8 km/h (1 Bft) 97,87 %
24.07.2016 18:26 26,6 C 57 % 1014,6 hPa 0,0 l/m 2,6 km/h (1 Bft) O 80 0 min 0,000 mm 0,7 UV-I 104 W/m 17,4 C 26,6 C 4,8 km/h (1 Bft) 97,87 %
24.07.2016 18:28 26,5 C 59 % 1014,6 hPa 0,0 l/m 2,2 km/h (1 Bft) O 80 0 min 0,000 mm 0,6 UV-I 110 W/m 17,8 C 26,5 C 3,2 km/h (1 Bft) 100,00 %
24.07.2016 18:30 26,4 C 60 % 1014,6 hPa 0,0 l/m 3,1 km/h (1 Bft) O 80 0 min 0,000 mm 0,6 UV-I 166 W/m 18,0 C 26,4 C 4,8 km/h (1 Bft) 98,00 %
24.07.2016 18:32 26,5 C 57 % 1014,7 hPa 0,0 l/m 1,8 km/h (1 Bft) O 80 2 min 0,000 mm 0,6 UV-I 276 W/m 17,3 C 26,5 C 3,2 km/h (1 Bft) 100,00 %
24.07.2016 18:34 26,5 C 58 % 1014,7 hPa 0,0 l/m 1,1 km/h (1 Bft) O 80 0 min 0,000 mm 0,6 UV-I 146 W/m 17,5 C 26,5 C 3,2 km/h (1 Bft) 100,00 %
24.07.2016 18:36 26,5 C 59 % 1014,7 hPa 0,0 l/m 1,6 km/h (1 Bft) O-NO 78 0 min 0,000 mm 0,5 UV-I 160 W/m 17,8 C 26,5 C 3,2 km/h (1 Bft) 100,00 %
24.07.2016 18:38 26,6 C 59 % 1014,7 hPa 0,0 l/m 0,4 km/h (0 Bft) O-NO 78 2 min 0,000 mm 0,5 UV-I 266 W/m 17,9 C 26,6 C 3,2 km/h (1 Bft) 95,74 %
24.07.2016 18:40 26,7 C 56 % 1014,7 hPa 0,0 l/m 2,3 km/h (1 Bft) NO 39 2 min 0,000 mm 0,5 UV-I 236 W/m 17,2 C 26,7 C 6,4 km/h (2 Bft) 97,87 %
24.07.2016 18:42 26,9 C 59 % 1014,7 hPa 0,0 l/m 4,1 km/h (1 Bft) NO 46 2 min 0,000 mm 0,5 UV-I 288 W/m 18,2 C 26,9 C 6,4 km/h (2 Bft) 97,87 %
24.07.2016 18:44 27,0 C 58 % 1014,8 hPa 0,0 l/m 6,2 km/h (2 Bft) NO 46 2 min 0,000 mm 0,5 UV-I 332 W/m 18,0 C 27,0 C 11,3 km/h (2 Bft) 97,87 %
24.07.2016 18:46 27,1 C 58 % 1014,8 hPa 0,0 l/m 6,5 km/h (2 Bft) NO 51 2 min 0,000 mm 0,5 UV-I 325 W/m 18,1 C 27,1 C 9,7 km/h (2 Bft) 95,83 %
24.07.2016 18:48 27,1 C 58 % 1014,8 hPa 0,0 l/m 6,9 km/h (2 Bft) O-NO 73 2 min 0,000 mm 0,5 UV-I 296 W/m 18,1 C 27,0 C 11,3 km/h (2 Bft) 95,92 %
24.07.2016 18:50 27,1 C 59 % 1014,8 hPa 0,0 l/m 6,8 km/h (2 Bft) NO 51 2 min 0,000 mm 0,3 UV-I 224 W/m 18,4 C 27,0 C 11,3 km/h (2 Bft) 93,75 %
24.07.2016 18:52 27,0 C 59 % 1014,9 hPa 0,0 l/m 9,2 km/h (2 Bft) N-NO 31 2 min 0,000 mm 0,0 UV-I 203 W/m 18,3 C 26,5 C 16,1 km/h (3 Bft) 95,74 %
24.07.2016 18:54 26,8 C 60 % 1014,9 hPa 0,0 l/m 7,5 km/h (2 Bft) NO 47 0 min 0,000 mm 0,0 UV-I 158 W/m 18,4 C 26,6 C 11,3 km/h (2 Bft) 95,74 %
24.07.2016 18:56 26,6 C 60 % 1014,9 hPa 0,0 l/m 4,8 km/h (1 Bft) NO 49 0 min 0,000 mm 0,0 UV-I 108 W/m 18,2 C 26,6 C 6,4 km/h (2 Bft) 97,87 %
24.07.2016 18:58 26,4 C 61 % 1014,9 hPa 0,0 l/m 4,3 km/h (1 Bft) NO 51 0 min 0,000 mm 0,0 UV-I 100 W/m 18,3 C 26,4 C 6,4 km/h (2 Bft) 95,74 %
24.07.2016 19:00 26,3 C 62 % 1014,9 hPa 0,0 l/m 3,2 km/h (1 Bft) NO 52 0 min 0,000 mm 0,0 UV-I 92 W/m 18,4 C 26,3 C 6,4 km/h (2 Bft) 97,87 %
24.07.2016 19:02 26,2 C 62 % 1014,9 hPa 0,0 l/m 4,4 km/h (1 Bft) O-NO 74 0 min 0,177 mm 0,0 UV-I 83 W/m 18,3 C 26,2 C 6,4 km/h (2 Bft) 93,62 %
24.07.2016 19:04 26,2 C 62 % 1014,9 hPa 0,0 l/m 3,3 km/h (1 Bft) O-NO 74 0 min 0,000 mm 0,0 UV-I 70 W/m 18,3 C 26,2 C 4,8 km/h (1 Bft) 97,37 %
24.07.2016 19:06 26,1 C 63 % 1014,9 hPa 0,0 l/m 3,8 km/h (1 Bft) O-NO 74 0 min 0,000 mm 0,0 UV-I 58 W/m 18,5 C 26,1 C 4,8 km/h (1 Bft) 100,00 %
24.07.2016 19:08 26,0 C 63 % 1014,9 hPa 0,0 l/m 2,9 km/h (1 Bft) O-NO 74 0 min 0,000 mm 0,0 UV-I 54 W/m 18,4 C 26,0 C 4,8 km/h (1 Bft) 100,00 %
24.07.2016 19:10 25,9 C 62 % 1014,9 hPa 0,0 l/m 3,1 km/h (1 Bft) O-NO 74 0 min 0,000 mm 0,0 UV-I 53 W/m 18,0 C 25,9 C 4,8 km/h (1 Bft) 98,00 %
24.07.2016 19:12 25,8 C 63 % 1014,9 hPa 0,0 l/m 3,0 km/h (1 Bft) O-NO 74 0 min 0,000 mm 0,0 UV-I 56 W/m 18,2 C 25,8 C 4,8 km/h (1 Bft) 100,00 %
24.07.2016 19:14 25,8 C 63 % 1014,9 hPa 0,0 l/m 3,1 km/h (1 Bft) O-NO 73 0 min 0,000 mm 0,0 UV-I 94 W/m 18,2 C 25,8 C 4,8 km/h (1 Bft) 95,74 %
24.07.2016 19:16 25,8 C 62 % 1014,9 hPa 0,0 l/m 3,7 km/h (1 Bft) O-NO 73 0 min 0,000 mm 0,0 UV-I 111 W/m 18,0 C 25,8 C 6,4 km/h (2 Bft) 100,00 %
24.07.2016 19:18 25,8 C 63 % 1014,8 hPa 0,0 l/m 3,4 km/h (1 Bft) O-NO 73 0 min 0,000 mm 0,0 UV-I 90 W/m 18,2 C 25,8 C 4,8 km/h (1 Bft) 100,00 %
24.07.2016 19:20 25,8 C 64 % 1014,8 hPa 0,0 l/m 1,9 km/h (1 Bft) O-NO 73 0 min 0,000 mm 0,0 UV-I 90 W/m 18,5 C 25,8 C 3,2 km/h (1 Bft) 100,00 %
24.07.2016 19:22 25,7 C 64 % 1014,8 hPa 0,0 l/m 1,7 km/h (1 Bft) O-NO 73 0 min 0,000 mm 0,0 UV-I 58 W/m 18,4 C 25,7 C 3,2 km/h (1 Bft) 97,92 %
24.07.2016 19:24 25,7 C 65 % 1014,9 hPa 0,0 l/m 2,4 km/h (1 Bft) O-NO 73 0 min 0,000 mm 0,0 UV-I 60 W/m 18,6 C 25,7 C 4,8 km/h (1 Bft) 97,87 %
24.07.2016 19:26 25,6 C 68 % 1014,9 hPa 0,0 l/m 2,1 km/h (1 Bft) O-NO 73 0 min 0,000 mm 0,0 UV-I 102 W/m 19,2 C 25,6 C 3,2 km/h (1 Bft) 100,00 %
24.07.2016 19:28 25,5 C 70 % 1014,9 hPa 0,0 l/m 2,1 km/h (1 Bft) O-NO 73 2 min 0,000 mm 0,0 UV-I 127 W/m 19,6 C 25,5 C 3,2 km/h (1 Bft) 98,00 %
24.07.2016 19:30 25,5 C 68 % 1014,9 hPa 0,0 l/m 2,0 km/h (1 Bft) O-NO 73 2 min 0,000 mm 0,0 UV-I 123 W/m 19,1 C 25,5 C 3,2 km/h (1 Bft) 100,00 %
24.07.2016 19:32 25,6 C 68 % 1014,9 hPa 0,0 l/m 2,2 km/h (1 Bft) O-NO 73 2 min 0,000 mm 0,0 UV-I 120 W/m 19,2 C 25,6 C 3,2 km/h (1 Bft) 100,00 %
24.07.2016 19:34 25,7 C 65 % 1014,9 hPa 0,0 l/m 3,4 km/h (1 Bft) O-NO 70 2 min 0,000 mm 0,0 UV-I 116 W/m 18,6 C 25,7 C 4,8 km/h (1 Bft) 100,00 %
24.07.2016 19:36 25,8 C 64 % 1014,9 hPa 0,0 l/m 3,8 km/h (1 Bft) O-NO 70 2 min 0,000 mm 0,0 UV-I 114 W/m 18,5 C 25,8 C 4,8 km/h (1 Bft) 100,00 %
24.07.2016 19:38 25,8 C 64 % 1014,9 hPa 0,0 l/m 3,8 km/h (1 Bft) O-NO 70 2 min 0,000 mm 0,0 UV-I 116 W/m 18,5 C 25,8 C 4,8 km/h (1 Bft) 100,00 %
24.07.2016 19:40 25,8 C 64 % 1015,0 hPa 0,0 l/m 3,3 km/h (1 Bft) O-NO 70 2 min 0,000 mm 0,0 UV-I 116 W/m 18,5 C 25,8 C 4,8 km/h (1 Bft) 97,87 %
24.07.2016 19:42 25,8 C 65 % 1014,9 hPa 0,0 l/m 2,8 km/h (1 Bft) O-NO 70 2 min 0,000 mm 0,0 UV-I 113 W/m 18,7 C 25,8 C 4,8 km/h (1 Bft) 100,00 %
24.07.2016 19:44 25,8 C 66 % 1015,0 hPa 0,0 l/m 3,0 km/h (1 Bft) O-NO 69 2 min 0,000 mm 0,0 UV-I 106 W/m 19,0 C 25,8 C 4,8 km/h (1 Bft) 100,00 %
24.07.2016 19:46 25,7 C 67 % 1015,0 hPa 0,0 l/m 3,0 km/h (1 Bft) O-NO 65 2 min 0,000 mm 0,0 UV-I 96 W/m 19,1 C 25,7 C 4,8 km/h (1 Bft) 97,87 %
24.07.2016 19:48 25,7 C 68 % 1015,0 hPa 0,0 l/m 2,5 km/h (1 Bft) O-NO 65 2 min 0,000 mm 0,0 UV-I 84 W/m 19,3 C 25,7 C 3,2 km/h (1 Bft) 97,87 %
24.07.2016 19:50 25,7 C 67 % 1015,0 hPa 0,0 l/m 1,8 km/h (1 Bft) O-NO 65 0 min 0,000 mm 0,0 UV-I 76 W/m 19,1 C 25,7 C 3,2 km/h (1 Bft) 100,00 %
24.07.2016 19:52 25,7 C 66 % 1015,0 hPa 0,0 l/m 1,9 km/h (1 Bft) O-NO 65 0 min 0,000 mm 0,0 UV-I 70 W/m 18,9 C 25,7 C 3,2 km/h (1 Bft) 100,00 %
24.07.2016 19:54 25,7 C 68 % 1015,0 hPa 0,0 l/m 1,1 km/h (1 Bft) O-NO 65 0 min 0,000 mm 0,0 UV-I 67 W/m 19,3 C 25,7 C 3,2 km/h (1 Bft) 100,00 %
24.07.2016 19:56 25,6 C 68 % 1015,1 hPa 0,0 l/m 1,4 km/h (1 Bft) O-NO 65 0 min 0,000 mm 0,0 UV-I 64 W/m 19,2 C 25,6 C 3,2 km/h (1 Bft) 100,00 %
24.07.2016 19:58 25,6 C 67 % 1015,1 hPa 0,0 l/m 2,1 km/h (1 Bft) O-NO 65 0 min 0,000 mm 0,0 UV-I 60 W/m 19,0 C 25,6 C 4,8 km/h (1 Bft) 100,00 %
24.07.2016 20:00 25,5 C 67 % 1015,1 hPa 0,0 l/m 2,3 km/h (1 Bft) O-NO 65 0 min 0,000 mm 0,0 UV-I 56 W/m 18,9 C 25,5 C 3,2 km/h (1 Bft) 100,00 %
24.07.2016 20:02 25,4 C 67 % 1015,0 hPa 0,0 l/m 3,1 km/h (1 Bft) O-NO 65 0 min 0,077 mm 0,0 UV-I 52 W/m 18,8 C 25,4 C 4,8 km/h (1 Bft) 100,00 %
24.07.2016 20:04 25,4 C 67 % 1015,0 hPa 0,0 l/m 1,8 km/h (1 Bft) O-NO 65 0 min 0,000 mm 0,0 UV-I 49 W/m 18,8 C 25,4 C 3,2 km/h (1 Bft) 98,00 %
24.07.2016 20:06 25,4 C 67 % 1015,1 hPa 0,0 l/m 1,1 km/h (1 Bft) O-NO 65 0 min 0,000 mm 0,0 UV-I 43 W/m 18,8 C 25,4 C 1,6 km/h (1 Bft) 100,00 %
24.07.2016 20:08 25,3 C 70 % 1015,0 hPa 0,0 l/m 0,5 km/h (0 Bft) O-NO 65 0 min 0,000 mm 0,0 UV-I 33 W/m 19,4 C 25,3 C 1,6 km/h (1 Bft) 100,00 %
24.07.2016 20:10 25,2 C 69 % 1015,1 hPa 0,0 l/m 0,3 km/h (0 Bft) O-NO 65 0 min 0,000 mm 0,0 UV-I 32 W/m 19,1 C 25,2 C 1,6 km/h (1 Bft) 100,00 %
24.07.2016 20:12 25,1 C 72 % 1015,0 hPa 0,0 l/m 0,0 km/h (0 Bft) O-NO 65 0 min 0,000 mm 0,0 UV-I 32 W/m 19,7 C 25,1 C 0,0 km/h (0 Bft) 97,87 %
24.07.2016 20:14 24,8 C 71 % 1015,1 hPa 0,0 l/m 0,5 km/h (0 Bft) O-NO 65 0 min 0,000 mm 0,0 UV-I 31 W/m 19,2 C 24,8 C 1,6 km/h (1 Bft) 100,00 %
24.07.2016 20:16 24,7 C 72 % 1015,1 hPa 0,0 l/m 0,5 km/h (0 Bft) O-NO 65 0 min 0,000 mm 0,0 UV-I 30 W/m 19,3 C 24,7 C 1,6 km/h (1 Bft) 100,00 %
24.07.2016 20:18 24,6 C 73 % 1015,1 hPa 0,0 l/m 0,5 km/h (0 Bft) O-NO 65 0 min 0,000 mm 0,0 UV-I 28 W/m 19,4 C 24,6 C 1,6 km/h (1 Bft) 97,87 %
24.07.2016 20:20 24,5 C 75 % 1015,1 hPa 0,0 l/m 0,0 km/h (0 Bft) O-NO 65 0 min 0,000 mm 0,0 UV-I 28 W/m 19,8 C 24,5 C 0,0 km/h (0 Bft) 100,00 %
24.07.2016 20:22 24,3 C 76 % 1015,1 hPa 0,0 l/m 0,0 km/h (0 Bft) O-NO 65 0 min 0,000 mm 0,0 UV-I 26 W/m 19,8 C 24,3 C 1,6 km/h (1 Bft) 98,00 %
24.07.2016 20:24 24,2 C 76 % 1015,1 hPa 0,0 l/m 0,0 km/h (0 Bft) O-NO 65 0 min 0,000 mm 0,0 UV-I 26 W/m 19,7 C 24,2 C 1,6 km/h (1 Bft) 95,74 %
24.07.2016 20:26 24,1 C 76 % 1015,1 hPa 0,0 l/m 0,0 km/h (0 Bft) O-NO 65 0 min 0,000 mm 0,0 UV-I 25 W/m 19,6 C 24,1 C 0,0 km/h (0 Bft) 97,87 %
24.07.2016 20:28 24,0 C 77 % 1015,1 hPa 0,0 l/m 0,3 km/h (0 Bft) O-NO 65 2 min 0,000 mm 0,0 UV-I 24 W/m 19,7 C 24,0 C 1,6 km/h (1 Bft) 100,00 %
24.07.2016 20:30 24,1 C 77 % 1015,1 hPa 0,0 l/m 2,0 km/h (1 Bft) O-NO 65 2 min 0,000 mm 0,0 UV-I 23 W/m 19,8 C 24,1 C 3,2 km/h (1 Bft) 98,00 %
24.07.2016 20:32 24,1 C 78 % 1015,1 hPa 0,0 l/m 1,9 km/h (1 Bft) O-NO 65 2 min 0,000 mm 0,0 UV-I 21 W/m 20,0 C 24,1 C 3,2 km/h (1 Bft) 97,87 %
24.07.2016 20:34 24,0 C 78 % 1015,1 hPa 0,0 l/m 2,1 km/h (1 Bft) O-NO 65 2 min 0,000 mm 0,0 UV-I 20 W/m 19,9 C 24,0 C 3,2 km/h (1 Bft) 97,87 %
24.07.2016 20:36 23,9 C 78 % 1015,0 hPa 0,0 l/m 1,1 km/h (1 Bft) O-NO 65 2 min 0,000 mm 0,0 UV-I 19 W/m 19,8 C 23,9 C 1,6 km/h (1 Bft) 97,87 %
24.07.2016 20:38 23,8 C 78 % 1015,0 hPa 0,0 l/m 0,0 km/h (0 Bft) O-NO 65 2 min 0,000 mm 0,0 UV-I 18 W/m 19,7 C 23,8 C 0,0 km/h (0 Bft) 95,74 %
24.07.2016 20:40 23,7 C 80 % 1015,0 hPa 0,0 l/m 0,0 km/h (0 Bft) O-NO 65 0 min 0,000 mm 0,0 UV-I 15 W/m 20,0 C 23,7 C 1,6 km/h (1 Bft) 97,87 %
24.07.2016 20:42 23,5 C 80 % 1015,0 hPa 0,0 l/m 1,4 km/h (1 Bft) O-NO 65 0 min 0,000 mm 0,0 UV-I 13 W/m 19,8 C 23,5 C 3,2 km/h (1 Bft) 97,22 %
24.07.2016 20:44 23,3 C 80 % 1015,1 hPa 0,0 l/m 2,3 km/h (1 Bft) O-NO 65 0 min 0,000 mm 0,0 UV-I 12 W/m 19,6 C 23,3 C 3,2 km/h (1 Bft) 98,11 %
24.07.2016 20:46 23,1 C 80 % 1015,1 hPa 0,0 l/m 2,1 km/h (1 Bft) O-NO 65 0 min 0,000 mm 0,0 UV-I 11 W/m 19,5 C 23,1 C 3,2 km/h (1 Bft) 97,87 %
24.07.2016 20:48 23,1 C 81 % 1015,1 hPa 0,0 l/m 1,9 km/h (1 Bft) O-NO 65 0 min 0,000 mm 0,0 UV-I 9 W/m 19,7 C 23,1 C 3,2 km/h (1 Bft) 97,87 %
24.07.2016 20:50 22,9 C 81 % 1015,1 hPa 0,0 l/m 1,9 km/h (1 Bft) O-NO 65 0 min 0,000 mm 0,0 UV-I 9 W/m 19,5 C 22,9 C 3,2 km/h (1 Bft) 97,87 %
24.07.2016 20:52 22,7 C 82 % 1015,0 hPa 0,0 l/m 1,0 km/h (0 Bft) O-NO 65 0 min 0,000 mm 0,0 UV-I 7 W/m 19,5 C 22,7 C 3,2 km/h (1 Bft) 97,87 %
24.07.2016 20:54 22,6 C 82 % 1015,0 hPa 0,0 l/m 0,1 km/h (0 Bft) O-NO 65 0 min 0,000 mm 0,0 UV-I 7 W/m 19,4 C 22,6 C 1,6 km/h (1 Bft) 95,74 %
24.07.2016 20:56 22,5 C 81 % 1015,0 hPa 0,0 l/m 0,1 km/h (0 Bft) O-NO 65 0 min 0,000 mm 0,0 UV-I 5 W/m 19,1 C 22,5 C 1,6 km/h (1 Bft) 95,74 %
24.07.2016 20:58 22,5 C 81 % 1015,0 hPa 0,0 l/m 0,1 km/h (0 Bft) O-NO 65 0 min 0,000 mm 0,0 UV-I 1 W/m 19,1 C 22,5 C 1,6 km/h (1 Bft) 96,00 %
24.07.2016 21:00 22,4 C 81 % 1015,0 hPa 0,0 l/m 0,0 km/h (0 Bft) O-NO 65 0 min 0,000 mm 0,0 UV-I 0 W/m 19,0 C 22,4 C 0,0 km/h (0 Bft) 95,74 %
24.07.2016 21:02 22,4 C 81 % 1015,0 hPa 0,0 l/m 0,2 km/h (0 Bft) O-NO 65 0 min 0,025 mm 0,0 UV-I 0 W/m 19,0 C 22,4 C 1,6 km/h (1 Bft) 97,87 %
24.07.2016 21:04 22,3 C 81 % 1015,0 hPa 0,0 l/m 0,3 km/h (0 Bft) O-NO 65 0 min 0,000 mm 0,0 UV-I 0 W/m 18,9 C 22,3 C 1,6 km/h (1 Bft) 100,00 %
24.07.2016 21:06 22,3 C 82 % 1015,1 hPa 0,0 l/m 0,0 km/h (0 Bft) O-NO 65 0 min 0,000 mm 0,0 UV-I 0 W/m 19,1 C 22,3 C 0,0 km/h (0 Bft) 97,96 %
24.07.2016 21:08 22,3 C 81 % 1015,1 hPa 0,0 l/m 0,0 km/h (0 Bft) O-NO 65 0 min 0,000 mm 0,0 UV-I 0 W/m 18,9 C 22,3 C 0,0 km/h (0 Bft) 97,37 %
24.07.2016 21:10 22,2 C 81 % 1015,1 hPa 0,0 l/m 0,0 km/h (0 Bft) O-NO 65 0 min 0,000 mm 0,0 UV-I 0 W/m 18,8 C 22,2 C 0,0 km/h (0 Bft) 100,00 %
24.07.2016 21:12 22,2 C 81 % 1015,1 hPa 0,0 l/m 0,0 km/h (0 Bft) O-NO 65 0 min 0,000 mm 0,0 UV-I 0 W/m 18,8 C 22,2 C 0,0 km/h (0 Bft) 100,00 %
24.07.2016 21:14 22,2 C 82 % 1015,2 hPa 0,0 l/m 0,0 km/h (0 Bft) O-NO 65 0 min 0,000 mm 0,0 UV-I 0 W/m 19,0 C 22,2 C 1,6 km/h (1 Bft) 98,00 %
24.07.2016 21:16 22,2 C 83 % 1015,2 hPa 0,0 l/m 0,0 km/h (0 Bft) O-NO 65 0 min 0,000 mm 0,0 UV-I 0 W/m 19,2 C 22,2 C 1,6 km/h (1 Bft) 97,87 %
24.07.2016 21:18 22,1 C 82 % 1015,3 hPa 0,0 l/m 0,0 km/h (0 Bft) O-NO 65 0 min 0,000 mm 0,0 UV-I 0 W/m 18,9 C 22,1 C 0,0 km/h (0 Bft) 97,87 %
24.07.2016 21:20 21,9 C 83 % 1015,4 hPa 0,0 l/m 0,0 km/h (0 Bft) O-NO 65 0 min 0,000 mm 0,0 UV-I 0 W/m 18,9 C 21,9 C 0,0 km/h (0 Bft) 95,74 %
24.07.2016 21:22 21,8 C 84 % 1015,4 hPa 0,0 l/m 0,0 km/h (0 Bft) O-NO 65 0 min 0,000 mm 0,0 UV-I 0 W/m 19,0 C 21,8 C 1,6 km/h (1 Bft) 97,92 %
24.07.2016 21:24 21,8 C 84 % 1015,4 hPa 0,0 l/m 0,0 km/h (0 Bft) O-NO 65 0 min 0,000 mm 0,0 UV-I 0 W/m 19,0 C 21,8 C 0,0 km/h (0 Bft) 97,87 %
24.07.2016 21:26 21,7 C 84 % 1015,4 hPa 0,0 l/m 0,0 km/h (0 Bft) O-NO 65 0 min 0,000 mm 0,0 UV-I 0 W/m 18,9 C 21,7 C 0,0 km/h (0 Bft) 100,00 %
24.07.2016 21:28 21,7 C 85 % 1015,4 hPa 0,0 l/m 0,0 km/h (0 Bft) O-NO 65 0 min 0,000 mm 0,0 UV-I 0 W/m 19,1 C 21,7 C 0,0 km/h (0 Bft) 97,87 %
24.07.2016 21:30 21,7 C 85 % 1015,5 hPa 0,0 l/m 0,0 km/h (0 Bft) O-NO 65 0 min 0,000 mm 0,0 UV-I 0 W/m 19,1 C 21,7 C 0,0 km/h (0 Bft) 100,00 %
24.07.2016 21:32 21,7 C 85 % 1015,5 hPa 0,0 l/m 0,1 km/h (0 Bft) O-NO 65 0 min 0,000 mm 0,0 UV-I 0 W/m 19,1 C 21,7 C 1,6 km/h (1 Bft) 97,87 %
24.07.2016 21:34 21,7 C 85 % 1015,5 hPa 0,0 l/m 0,8 km/h (0 Bft) O-NO 65 0 min 0,000 mm 0,0 UV-I 0 W/m 19,1 C 21,7 C 1,6 km/h (1 Bft) 97,87 %
24.07.2016 21:36 21,6 C 84 % 1015,6 hPa 0,0 l/m 0,1 km/h (0 Bft) O-NO 65 0 min 0,000 mm 0,0 UV-I 0 W/m 18,8 C 21,6 C 1,6 km/h (1 Bft) 97,87 %
24.07.2016 21:38 21,5 C 84 % 1015,6 hPa 0,0 l/m 0,3 km/h (0 Bft) O-NO 65 0 min 0,000 mm 0,0 UV-I 0 W/m 18,7 C 21,5 C 1,6 km/h (1 Bft) 100,00 %
24.07.2016 21:40 21,4 C 84 % 1015,6 hPa 0,0 l/m 0,0 km/h (0 Bft) O-NO 65 0 min 0,000 mm 0,0 UV-I 0 W/m 18,6 C 21,4 C 0,0 km/h (0 Bft) 97,87 %
24.07.2016 21:42 21,4 C 85 % 1015,6 hPa 0,0 l/m 0,0 km/h (0 Bft) O-NO 65 0 min 0,000 mm 0,0 UV-I 0 W/m 18,8 C 21,4 C 0,0 km/h (0 Bft) 100,00 %
24.07.2016 21:44 21,3 C 85 % 1015,6 hPa 0,0 l/m 0,1 km/h (0 Bft) O-NO 65 0 min 0,000 mm 0,0 UV-I 0 W/m 18,7 C 21,3 C 1,6 km/h (1 Bft) 100,00 %
24.07.2016 21:46 21,3 C 85 % 1015,6 hPa 0,0 l/m 0,0 km/h (0 Bft) O-NO 65 0 min 0,000 mm 0,0 UV-I 0 W/m 18,7 C 21,3 C 0,0 km/h (0 Bft) 100,00 %
24.07.2016 21:48 21,2 C 85 % 1015,6 hPa 0,0 l/m 0,0 km/h (0 Bft) O-NO 65 0 min 0,000 mm 0,0 UV-I 0 W/m 18,6 C 21,2 C 0,0 km/h (0 Bft) 100,00 %
24.07.2016 21:50 21,2 C 85 % 1015,6 hPa 0,0 l/m 0,1 km/h (0 Bft) O-NO 65 0 min 0,000 mm 0,0 UV-I 0 W/m 18,6 C 21,2 C 1,6 km/h (1 Bft) 100,00 %
24.07.2016 21:52 21,2 C 84 % 1015,6 hPa 0,0 l/m 0,1 km/h (0 Bft) O-NO 65 0 min 0,000 mm 0,0 UV-I 0 W/m 18,4 C 21,2 C 1,6 km/h (1 Bft) 100,00 %
24.07.2016 21:54 21,2 C 85 % 1015,6 hPa 0,0 l/m 0,0 km/h (0 Bft) O-NO 65 0 min 0,000 mm 0,0 UV-I 0 W/m 18,6 C 21,2 C 0,0 km/h (0 Bft) 100,00 %
24.07.2016 21:56 21,1 C 85 % 1015,6 hPa 0,0 l/m 0,0 km/h (0 Bft) O-NO 65 0 min 0,000 mm 0,0 UV-I 0 W/m 18,5 C 21,1 C 0,0 km/h (0 Bft) 95,74 %
24.07.2016 21:58 21,1 C 85 % 1015,6 hPa 0,0 l/m 0,9 km/h (0 Bft) O-NO 65 0 min 0,000 mm 0,0 UV-I 0 W/m 18,5 C 21,1 C 3,2 km/h (1 Bft) 100,00 %
24.07.2016 22:00 21,0 C 85 % 1015,6 hPa 0,0 l/m 0,9 km/h (0 Bft) O-NO 65 0 min 0,000 mm 0,0 UV-I 0 W/m 18,4 C 21,0 C 3,2 km/h (1 Bft) 97,22 %
24.07.2016 22:02 21,0 C 86 % 1015,6 hPa 0,0 l/m 0,8 km/h (0 Bft) O-NO 65 0 min 0,000 mm 0,0 UV-I 0 W/m 18,6 C 21,0 C 3,2 km/h (1 Bft) 100,00 %
24.07.2016 22:04 20,9 C 86 % 1015,5 hPa 0,0 l/m 0,0 km/h (0 Bft) O-NO 65 0 min 0,000 mm 0,0 UV-I 0 W/m 18,5 C 20,9 C 0,0 km/h (0 Bft) 98,11 %
24.07.2016 22:06 20,9 C 86 % 1015,5 hPa 0,0 l/m 0,0 km/h (0 Bft) O-NO 65 0 min 0,000 mm 0,0 UV-I 0 W/m 18,5 C 20,9 C 0,0 km/h (0 Bft) 100,00 %
24.07.2016 22:08 20,8 C 86 % 1015,6 hPa 0,0 l/m 0,0 km/h (0 Bft) O-NO 65 0 min 0,000 mm 0,0 UV-I 0 W/m 18,4 C 20,8 C 0,0 km/h (0 Bft) 100,00 %
24.07.2016 22:10 20,8 C 86 % 1015,5 hPa 0,0 l/m 0,0 km/h (0 Bft) O-NO 65 0 min 0,000 mm 0,0 UV-I 0 W/m 18,4 C 20,8 C 0,0 km/h (0 Bft) 95,74 %
24.07.2016 22:12 20,9 C 86 % 1015,6 hPa 0,0 l/m 0,0 km/h (0 Bft) O-NO 65 0 min 0,000 mm 0,0 UV-I 0 W/m 18,5 C 20,9 C 0,0 km/h (0 Bft) 100,00 %
24.07.2016 22:14 20,9 C 86 % 1015,5 hPa 0,0 l/m 0,0 km/h (0 Bft) O-NO 65 0 min 0,000 mm 0,0 UV-I 0 W/m 18,5 C 20,9 C 0,0 km/h (0 Bft) 97,87 %
24.07.2016 22:16 20,9 C 86 % 1015,6 hPa 0,0 l/m 0,0 km/h (0 Bft) O-NO 65 0 min 0,000 mm 0,0 UV-I 0 W/m 18,5 C 20,9 C 0,0 km/h (0 Bft) 100,00 %
24.07.2016 22:18 20,9 C 87 % 1015,5 hPa 0,0 l/m 0,2 km/h (0 Bft) O-NO 65 0 min 0,000 mm 0,0 UV-I 0 W/m 18,7 C 20,9 C 1,6 km/h (1 Bft) 95,74 %
24.07.2016 22:20 20,8 C 87 % 1015,5 hPa 0,0 l/m 0,3 km/h (0 Bft) O-NO 65 0 min 0,000 mm 0,0 UV-I 0 W/m 18,6 C 20,8 C 1,6 km/h (1 Bft) 97,87 %
24.07.2016 22:22 20,7 C 87 % 1015,5 hPa 0,0 l/m 0,3 km/h (0 Bft) O-NO 65 0 min 0,000 mm 0,0 UV-I 0 W/m 18,5 C 20,7 C 1,6 km/h (1 Bft) 100,00 %
24.07.2016 22:24 20,5 C 87 % 1015,6 hPa 0,0 l/m 5,1 km/h (1 Bft) NO 35 0 min 0,000 mm 0,0 UV-I 0 W/m 18,3 C 20,5 C 11,3 km/h (2 Bft) 100,00 %
24.07.2016 22:26 20,3 C 89 % 1015,4 hPa 0,0 l/m 4,3 km/h (1 Bft) NO 49 0 min 0,000 mm 0,0 UV-I 0 W/m 18,4 C 20,3 C 6,4 km/h (2 Bft) 100,00 %
24.07.2016 22:28 20,3 C 90 % 1015,5 hPa 0,0 l/m 6,0 km/h (2 Bft) O-NO 66 0 min 0,000 mm 0,0 UV-I 0 W/m 18,6 C 20,3 C 8,0 km/h (2 Bft) 97,87 %
24.07.2016 22:30 20,3 C 90 % 1015,4 hPa 0,0 l/m 4,4 km/h (1 Bft) O-NO 64 0 min 0,000 mm 0,0 UV-I 0 W/m 18,6 C 20,3 C 4,8 km/h (1 Bft) 95,74 %
24.07.2016 22:34 20,4 C 89 % 1015,4 hPa 0,0 l/m 1,1 km/h (1 Bft) O-NO 64 0 min 0,000 mm 0,0 UV-I 0 W/m 18,5 C 20,4 C 3,2 km/h (1 Bft) 93,75 %
24.07.2016 22:36 20,5 C 89 % 1015,3 hPa 0,0 l/m 0,0 km/h (0 Bft) O-NO 64 0 min 0,000 mm 0,0 UV-I 0 W/m 18,6 C 20,5 C 0,0 km/h (0 Bft) 96,92 %
24.07.2016 22:38 20,6 C 89 % 1015,4 hPa 0,0 l/m 0,0 km/h (0 Bft) O-NO 64 0 min 0,000 mm 0,0 UV-I 0 W/m 18,7 C 20,6 C 0,0 km/h (0 Bft) 97,87 %
24.07.2016 22:40 20,6 C 88 % 1015,4 hPa 0,0 l/m 0,0 km/h (0 Bft) O-NO 64 0 min 0,000 mm 0,0 UV-I 0 W/m 18,5 C 20,6 C 0,0 km/h (0 Bft) 95,74 %
24.07.2016 22:42 20,6 C 88 % 1015,4 hPa 0,0 l/m 0,0 km/h (0 Bft) O-NO 64 0 min 0,000 mm 0,0 UV-I 0 W/m 18,5 C 20,6 C 0,0 km/h (0 Bft) 96,00 %
24.07.2016 22:44 20,6 C 88 % 1015,4 hPa 0,0 l/m 1,3 km/h (1 Bft) O-NO 64 0 min 0,000 mm 0,0 UV-I 0 W/m 18,5 C 20,6 C 3,2 km/h (1 Bft) 95,74 %
24.07.2016 22:46 20,6 C 88 % 1015,4 hPa 0,0 l/m 1,3 km/h (1 Bft) O-NO 64 0 min 0,000 mm 0,0 UV-I 0 W/m 18,5 C 20,6 C 3,2 km/h (1 Bft) 97,87 %
24.07.2016 22:48 20,6 C 88 % 1015,4 hPa 0,0 l/m 0,0 km/h (0 Bft) O-NO 64 0 min 0,000 mm 0,0 UV-I 0 W/m 18,5 C 20,6 C 0,0 km/h (0 Bft) 97,37 %
24.07.2016 22:50 20,6 C 88 % 1015,4 hPa 0,0 l/m 0,4 km/h (0 Bft) O-NO 64 0 min 0,000 mm 0,0 UV-I 0 W/m 18,5 C 20,6 C 1,6 km/h (1 Bft) 96,00 %
24.07.2016 22:52 20,6 C 87 % 1015,3 hPa 0,0 l/m 0,0 km/h (0 Bft) O-NO 64 0 min 0,000 mm 0,0 UV-I 0 W/m 18,4 C 20,6 C 1,6 km/h (1 Bft) 98,00 %
24.07.2016 22:54 20,7 C 87 % 1015,4 hPa 0,0 l/m 0,0 km/h (0 Bft) O-NO 64 0 min 0,000 mm 0,0 UV-I 0 W/m 18,5 C 20,7 C 0,0 km/h (0 Bft) 97,44 %
24.07.2016 22:56 20,7 C 88 % 1015,3 hPa 0,0 l/m 0,0 km/h (0 Bft) O-NO 64 0 min 0,000 mm 0,0 UV-I 0 W/m 18,6 C 20,7 C 0,0 km/h (0 Bft) 98,08 %
24.07.2016 22:58 20,6 C 88 % 1015,3 hPa 0,0 l/m 0,0 km/h (0 Bft) O-NO 64 0 min 0,000 mm 0,0 UV-I 0 W/m 18,5 C 20,6 C 0,0 km/h (0 Bft) 95,83 %
24.07.2016 23:00 20,6 C 88 % 1015,3 hPa 0,0 l/m 0,0 km/h (0 Bft) O-NO 64 0 min 0,000 mm 0,0 UV-I 0 W/m 18,5 C 20,6 C 0,0 km/h (0 Bft) 100,00 %
24.07.2016 23:02 20,6 C 88 % 1015,3 hPa 0,0 l/m 0,0 km/h (0 Bft) O-NO 64 0 min 0,000 mm 0,0 UV-I 0 W/m 18,5 C 20,6 C 0,0 km/h (0 Bft) 96,43 %
24.07.2016 23:04 20,4 C 88 % 1015,3 hPa 0,0 l/m 0,1 km/h (0 Bft) O-NO 64 0 min 0,000 mm 0,0 UV-I 0 W/m 18,3 C 20,4 C 1,6 km/h (1 Bft) 100,00 %
24.07.2016 23:06 20,3 C 88 % 1015,3 hPa 0,0 l/m 1,3 km/h (1 Bft) O-NO 64 0 min 0,000 mm 0,0 UV-I 0 W/m 18,2 C 20,3 C 1,6 km/h (1 Bft) 97,37 %
24.07.2016 23:08 20,2 C 89 % 1015,3 hPa 0,0 l/m 1,1 km/h (1 Bft) O-NO 64 0 min 0,000 mm 0,0 UV-I 0 W/m 18,3 C 20,2 C 1,6 km/h (1 Bft) 100,00 %
24.07.2016 23:10 20,2 C 89 % 1015,4 hPa 0,0 l/m 0,2 km/h (0 Bft) O-NO 64 0 min 0,000 mm 0,0 UV-I 0 W/m 18,3 C 20,2 C 1,6 km/h (1 Bft) 100,00 %
24.07.2016 23:12 20,1 C 89 % 1015,4 hPa 0,0 l/m 0,7 km/h (0 Bft) O-NO 64 0 min 0,000 mm 0,0 UV-I 0 W/m 18,2 C 20,1 C 1,6 km/h (1 Bft) 94,29 %
24.07.2016 23:14 20,1 C 89 % 1015,3 hPa 0,0 l/m 1,3 km/h (1 Bft) O-NO 64 0 min 0,000 mm 0,0 UV-I 0 W/m 18,2 C 20,1 C 3,2 km/h (1 Bft) 100,00 %
24.07.2016 23:16 20,1 C 89 % 1015,3 hPa 0,0 l/m 1,3 km/h (1 Bft) O-NO 64 0 min 0,000 mm 0,0 UV-I 0 W/m 18,2 C 20,1 C 3,2 km/h (1 Bft) 100,00 %
24.07.2016 23:18 20,0 C 89 % 1015,4 hPa 0,0 l/m 0,0 km/h (0 Bft) O-NO 64 0 min 0,000 mm 0,0 UV-I 0 W/m 18,1 C 20,0 C 0,0 km/h (0 Bft) 97,87 %
24.07.2016 23:20 20,0 C 89 % 1015,4 hPa 0,0 l/m 0,7 km/h (0 Bft) O-NO 64 0 min 0,000 mm 0,0 UV-I 0 W/m 18,1 C 20,0 C 1,6 km/h (1 Bft) 98,00 %
24.07.2016 23:22 20,0 C 89 % 1015,4 hPa 0,0 l/m 0,1 km/h (0 Bft) O-NO 64 0 min 0,000 mm 0,0 UV-I 0 W/m 18,1 C 20,0 C 1,6 km/h (1 Bft) 97,87 %
24.07.2016 23:24 20,1 C 89 % 1015,4 hPa 0,0 l/m 0,0 km/h (0 Bft) O-NO 64 0 min 0,000 mm 0,0 UV-I 0 W/m 18,2 C 20,1 C 0,0 km/h (0 Bft) 100,00 %
24.07.2016 23:26 20,1 C 89 % 1015,4 hPa 0,0 l/m 0,0 km/h (0 Bft) O-NO 64 0 min 0,000 mm 0,0 UV-I 0 W/m 18,2 C 20,1 C 0,0 km/h (0 Bft) 100,00 %
24.07.2016 23:28 20,1 C 89 % 1015,5 hPa 0,0 l/m 1,0 km/h (0 Bft) O-NO 64 0 min 0,000 mm 0,0 UV-I 0 W/m 18,2 C 20,1 C 1,6 km/h (1 Bft) 97,87 %
24.07.2016 23:30 20,0 C 89 % 1015,5 hPa 0,0 l/m 2,2 km/h (1 Bft) O-NO 64 0 min 0,000 mm 0,0 UV-I 0 W/m 18,1 C 20,0 C 3,2 km/h (1 Bft) 100,00 %
24.07.2016 23:32 19,9 C 89 % 1015,5 hPa 0,0 l/m 3,3 km/h (1 Bft) O-NO 64 0 min 0,000 mm 0,0 UV-I 0 W/m 18,0 C 19,9 C 4,8 km/h (1 Bft) 100,00 %
24.07.2016 23:34 19,8 C 89 % 1015,7 hPa 0,0 l/m 3,1 km/h (1 Bft) O-NO 64 0 min 0,000 mm 0,0 UV-I 0 W/m 17,9 C 19,8 C 4,8 km/h (1 Bft) 100,00 %
24.07.2016 23:36 19,7 C 89 % 1015,6 hPa 0,0 l/m 2,7 km/h (1 Bft) O-NO 64 0 min 0,000 mm 0,0 UV-I 0 W/m 17,8 C 19,7 C 3,2 km/h (1 Bft) 100,00 %
24.07.2016 23:38 19,7 C 90 % 1015,7 hPa 0,0 l/m 2,0 km/h (1 Bft) O-NO 64 0 min 0,000 mm 0,0 UV-I 0 W/m 18,0 C 19,7 C 3,2 km/h (1 Bft) 100,00 %
24.07.2016 23:40 19,7 C 89 % 1015,8 hPa 0,0 l/m 1,1 km/h (1 Bft) O-NO 64 0 min 0,000 mm 0,0 UV-I 0 W/m 17,8 C 19,7 C 1,6 km/h (1 Bft) 97,44 %
24.07.2016 23:42 19,7 C 89 % 1015,8 hPa 0,0 l/m 3,1 km/h (1 Bft) O-NO 64 0 min 0,000 mm 0,0 UV-I 0 W/m 17,8 C 19,7 C 4,8 km/h (1 Bft) 100,00 %
24.07.2016 23:44 19,7 C 89 % 1015,8 hPa 0,0 l/m 4,0 km/h (1 Bft) O-NO 76 0 min 0,000 mm 0,0 UV-I 0 W/m 17,8 C 19,7 C 4,8 km/h (1 Bft) 100,00 %
24.07.2016 23:46 19,6 C 89 % 1015,8 hPa 0,0 l/m 3,9 km/h (1 Bft) O-NO 76 0 min 0,000 mm 0,0 UV-I 0 W/m 17,7 C 19,6 C 4,8 km/h (1 Bft) 100,00 %
24.07.2016 23:48 19,6 C 89 % 1015,8 hPa 0,0 l/m 3,1 km/h (1 Bft) O-NO 76 0 min 0,000 mm 0,0 UV-I 0 W/m 17,7 C 19,6 C 4,8 km/h (1 Bft) 100,00 %
24.07.2016 23:50 19,6 C 89 % 1015,8 hPa 0,0 l/m 2,9 km/h (1 Bft) O-NO 76 0 min 0,000 mm 0,0 UV-I 0 W/m 17,7 C 19,6 C 3,2 km/h (1 Bft) 100,00 %
24.07.2016 23:52 19,6 C 89 % 1015,8 hPa 0,0 l/m 3,1 km/h (1 Bft) O-NO 76 0 min 0,000 mm 0,0 UV-I 0 W/m 17,7 C 19,6 C 4,8 km/h (1 Bft) 100,00 %
24.07.2016 23:54 19,6 C 89 % 1015,8 hPa 0,0 l/m 1,9 km/h (1 Bft) O-NO 76 0 min 0,000 mm 0,0 UV-I 0 W/m 17,7 C 19,6 C 3,2 km/h (1 Bft) 100,00 %
24.07.2016 23:56 19,7 C 89 % 1015,8 hPa 0,0 l/m 0,6 km/h (0 Bft) O-NO 76 0 min 0,000 mm 0,0 UV-I 0 W/m 17,8 C 19,7 C 1,6 km/h (1 Bft) 100,00 %
24.07.2016 23:58 19,8 C 90 % 1015,8 hPa 0,0 l/m 0,0 km/h (0 Bft) O-NO 76 0 min 0,000 mm 0,0 UV-I 0 W/m 18,1 C 19,8 C 0,0 km/h (0 Bft) 98,11 %
_ Min-Zeit 04:42 16:52 18:18 - 20:12 - - - - - - 17:04 02:28 20:12 07:04
Minimum _ 17,9 C 51 % 1014,6 hPa - 0,0 km/h (0 Bft) - - - - - - 16,6 C 15,4 C 0,0 km/h (0 Bft) 91,49 %
_ Max-Zeit 16:52 00:00 10:20 00:04 02:28 - - 11:22 15:02 13:08 14:20 15:22 16:50 00:50 00:00
Maximum _ 28,0 C 96 % 1017,1 hPa 0,2 l/m 14,8 km/h
W-SW (3 Bft)
- - 2 min 0,483 mm 7,3 UV-I 1079 W/m 20,2 C 27,9 C 20,9 km/h
W-SW (4 Bft)
100,00 %
Durchschnitt _ 21,9 C 82 % 1015,9 hPa #0,4 l/m 5,4 km/h (1 Bft) W-SW - #6:12 h #3,556 mm 3,3 UV-I 342 W/m 18,3 C 21,5 C 9,1 km/h (2 Bft) 98,41 %